<?xml version="1.0" encoding="UTF-8" standalone="no" ?>
<gpx xmlns="http://www.topografix.com/GPX/1/1" xmlns:xsi="http://www.w3.org/2001/XMLSchema-instance" xsi:schemaLocation="http://www.topografix.com/GPX/1/1 http://www.topografix.com/GPX/1/1/gpx.xsd" version="1.1" creator="VisuGPX - https://www.visugpx.com">
  <metadata>
    <name>Saint-Remy VTT électrique</name>
    <desc><![CDATA[Super trace un régal ! Single single ! 
2 point de vue : Pierre d'appel
Roche Faucompierre 🤩]]></desc>
  </metadata>
  <trk>
    <name><![CDATA[Saint-Remy VTT électrique]]></name>
    <trkseg>
      <trkpt lat="48.3453" lon="6.82625">
        <ele>361.4</ele>
        <time>2024-03-31T22:10:47.000Z</time>
      </trkpt>
      <trkpt lat="48.34531" lon="6.82623">
        <ele>362</ele>
        <time>2024-03-31T22:10:47.000Z</time>
      </trkpt>
      <trkpt lat="48.34534" lon="6.82601">
        <ele>364.6</ele>
        <time>2024-03-31T22:10:47.004Z</time>
      </trkpt>
      <trkpt lat="48.34532" lon="6.8257">
        <ele>365.4</ele>
        <time>2024-03-31T22:10:47.014Z</time>
      </trkpt>
      <trkpt lat="48.34528" lon="6.82533">
        <ele>365.4</ele>
        <time>2024-03-31T22:10:47.030Z</time>
      </trkpt>
      <trkpt lat="48.34525" lon="6.8251">
        <ele>365.4</ele>
        <time>2024-03-31T22:10:47.050Z</time>
      </trkpt>
      <trkpt lat="48.34522" lon="6.82484">
        <ele>366</ele>
        <time>2024-03-31T22:10:47.074Z</time>
      </trkpt>
      <trkpt lat="48.3452" lon="6.82447">
        <ele>366</ele>
        <time>2024-03-31T22:10:47.105Z</time>
      </trkpt>
      <trkpt lat="48.34522" lon="6.82403">
        <ele>366.4</ele>
        <time>2024-03-31T22:10:47.143Z</time>
      </trkpt>
      <trkpt lat="48.34524" lon="6.82389">
        <ele>366.6</ele>
        <time>2024-03-31T22:10:47.184Z</time>
      </trkpt>
      <trkpt lat="48.34524" lon="6.82381">
        <ele>366.6</ele>
        <time>2024-03-31T22:10:47.226Z</time>
      </trkpt>
      <trkpt lat="48.34524" lon="6.82378">
        <ele>366.6</ele>
        <time>2024-03-31T22:10:47.268Z</time>
      </trkpt>
      <trkpt lat="48.34525" lon="6.82377">
        <ele>366.6</ele>
        <time>2024-03-31T22:10:47.311Z</time>
      </trkpt>
      <trkpt lat="48.34527" lon="6.82359">
        <ele>366.6</ele>
        <time>2024-03-31T22:10:47.357Z</time>
      </trkpt>
      <trkpt lat="48.34531" lon="6.82328">
        <ele>366.8</ele>
        <time>2024-03-31T22:10:47.408Z</time>
      </trkpt>
      <trkpt lat="48.34534" lon="6.82289">
        <ele>367.2</ele>
        <time>2024-03-31T22:10:47.466Z</time>
      </trkpt>
      <trkpt lat="48.34537" lon="6.82244">
        <ele>367.6</ele>
        <time>2024-03-31T22:10:47.531Z</time>
      </trkpt>
      <trkpt lat="48.34537" lon="6.82238">
        <ele>367.6</ele>
        <time>2024-03-31T22:10:47.598Z</time>
      </trkpt>
      <trkpt lat="48.34539" lon="6.82213">
        <ele>368</ele>
        <time>2024-03-31T22:10:47.669Z</time>
      </trkpt>
      <trkpt lat="48.34541" lon="6.82195">
        <ele>368</ele>
        <time>2024-03-31T22:10:47.743Z</time>
      </trkpt>
      <trkpt lat="48.34546" lon="6.82145">
        <ele>368.4</ele>
        <time>2024-03-31T22:10:47.826Z</time>
      </trkpt>
      <trkpt lat="48.34548" lon="6.82114">
        <ele>368.4</ele>
        <time>2024-03-31T22:10:47.914Z</time>
      </trkpt>
      <trkpt lat="48.34548" lon="6.82108">
        <ele>368.6</ele>
        <time>2024-03-31T22:10:48.003Z</time>
      </trkpt>
      <trkpt lat="48.34549" lon="6.82102">
        <ele>368.8</ele>
        <time>2024-03-31T22:10:48.093Z</time>
      </trkpt>
      <trkpt lat="48.34552" lon="6.82051">
        <ele>369.2</ele>
        <time>2024-03-31T22:10:48.191Z</time>
      </trkpt>
      <trkpt lat="48.34551" lon="6.82018">
        <ele>369.6</ele>
        <time>2024-03-31T22:10:48.295Z</time>
      </trkpt>
      <trkpt lat="48.34551" lon="6.82011">
        <ele>369.8</ele>
        <time>2024-03-31T22:10:48.400Z</time>
      </trkpt>
      <trkpt lat="48.34549" lon="6.81991">
        <ele>369.8</ele>
        <time>2024-03-31T22:10:48.509Z</time>
      </trkpt>
      <trkpt lat="48.34548" lon="6.81978">
        <ele>370.2</ele>
        <time>2024-03-31T22:10:48.620Z</time>
      </trkpt>
      <trkpt lat="48.34545" lon="6.81952">
        <ele>371</ele>
        <time>2024-03-31T22:10:48.735Z</time>
      </trkpt>
      <trkpt lat="48.34542" lon="6.81918">
        <ele>372</ele>
        <time>2024-03-31T22:10:48.856Z</time>
      </trkpt>
      <trkpt lat="48.34541" lon="6.81911">
        <ele>372</ele>
        <time>2024-03-31T22:10:48.978Z</time>
      </trkpt>
      <trkpt lat="48.34537" lon="6.81877">
        <ele>372.6</ele>
        <time>2024-03-31T22:10:49.106Z</time>
      </trkpt>
      <trkpt lat="48.34536" lon="6.81864">
        <ele>372.8</ele>
        <time>2024-03-31T22:10:49.236Z</time>
      </trkpt>
      <trkpt lat="48.34533" lon="6.81847">
        <ele>373</ele>
        <time>2024-03-31T22:10:49.369Z</time>
      </trkpt>
      <trkpt lat="48.34535" lon="6.81836">
        <ele>373.4</ele>
        <time>2024-03-31T22:10:49.504Z</time>
      </trkpt>
      <trkpt lat="48.34544" lon="6.81818">
        <ele>374</ele>
        <time>2024-03-31T22:10:49.643Z</time>
      </trkpt>
      <trkpt lat="48.34545" lon="6.81813">
        <ele>374.4</ele>
        <time>2024-03-31T22:10:49.783Z</time>
      </trkpt>
      <trkpt lat="48.34548" lon="6.81798">
        <ele>375.2</ele>
        <time>2024-03-31T22:10:49.926Z</time>
      </trkpt>
      <trkpt lat="48.34549" lon="6.81793">
        <ele>375.6</ele>
        <time>2024-03-31T22:10:50.070Z</time>
      </trkpt>
      <trkpt lat="48.34551" lon="6.81783">
        <ele>376.2</ele>
        <time>2024-03-31T22:10:50.215Z</time>
      </trkpt>
      <trkpt lat="48.34555" lon="6.81777">
        <ele>376.6</ele>
        <time>2024-03-31T22:10:50.362Z</time>
      </trkpt>
      <trkpt lat="48.34556" lon="6.81771">
        <ele>377</ele>
        <time>2024-03-31T22:10:50.510Z</time>
      </trkpt>
      <trkpt lat="48.34558" lon="6.81761">
        <ele>377.2</ele>
        <time>2024-03-31T22:10:50.660Z</time>
      </trkpt>
      <trkpt lat="48.34561" lon="6.81743">
        <ele>378</ele>
        <time>2024-03-31T22:10:50.813Z</time>
      </trkpt>
      <trkpt lat="48.34565" lon="6.81722">
        <ele>379</ele>
        <time>2024-03-31T22:10:50.969Z</time>
      </trkpt>
      <trkpt lat="48.34574" lon="6.81689">
        <ele>380</ele>
        <time>2024-03-31T22:10:51.131Z</time>
      </trkpt>
      <trkpt lat="48.34581" lon="6.81661">
        <ele>380.6</ele>
        <time>2024-03-31T22:10:51.298Z</time>
      </trkpt>
      <trkpt lat="48.34582" lon="6.81656">
        <ele>381</ele>
        <time>2024-03-31T22:10:51.466Z</time>
      </trkpt>
      <trkpt lat="48.3458" lon="6.81651">
        <ele>381.2</ele>
        <time>2024-03-31T22:10:51.635Z</time>
      </trkpt>
      <trkpt lat="48.34579" lon="6.81625">
        <ele>382.2</ele>
        <time>2024-03-31T22:10:51.809Z</time>
      </trkpt>
      <trkpt lat="48.34579" lon="6.81618">
        <ele>382.6</ele>
        <time>2024-03-31T22:10:51.984Z</time>
      </trkpt>
      <trkpt lat="48.34578" lon="6.81611">
        <ele>382.6</ele>
        <time>2024-03-31T22:10:52.160Z</time>
      </trkpt>
      <trkpt lat="48.34576" lon="6.81595">
        <ele>384</ele>
        <time>2024-03-31T22:10:52.339Z</time>
      </trkpt>
      <trkpt lat="48.34566" lon="6.81572">
        <ele>384.8</ele>
        <time>2024-03-31T22:10:52.523Z</time>
      </trkpt>
      <trkpt lat="48.34566" lon="6.81562">
        <ele>385</ele>
        <time>2024-03-31T22:10:52.708Z</time>
      </trkpt>
      <trkpt lat="48.34567" lon="6.81554">
        <ele>385</ele>
        <time>2024-03-31T22:10:52.895Z</time>
      </trkpt>
      <trkpt lat="48.34558" lon="6.81528">
        <ele>385.6</ele>
        <time>2024-03-31T22:10:53.087Z</time>
      </trkpt>
      <trkpt lat="48.34552" lon="6.81503">
        <ele>386</ele>
        <time>2024-03-31T22:10:53.283Z</time>
      </trkpt>
      <trkpt lat="48.34549" lon="6.81494">
        <ele>386.2</ele>
        <time>2024-03-31T22:10:53.481Z</time>
      </trkpt>
      <trkpt lat="48.34545" lon="6.8149">
        <ele>386.6</ele>
        <time>2024-03-31T22:10:53.680Z</time>
      </trkpt>
      <trkpt lat="48.34541" lon="6.81483">
        <ele>387.2</ele>
        <time>2024-03-31T22:10:53.880Z</time>
      </trkpt>
      <trkpt lat="48.3454" lon="6.81478">
        <ele>387.2</ele>
        <time>2024-03-31T22:10:54.081Z</time>
      </trkpt>
      <trkpt lat="48.34531" lon="6.81455">
        <ele>388.4</ele>
        <time>2024-03-31T22:10:54.287Z</time>
      </trkpt>
      <trkpt lat="48.34523" lon="6.81428">
        <ele>389.6</ele>
        <time>2024-03-31T22:10:54.498Z</time>
      </trkpt>
      <trkpt lat="48.34517" lon="6.81415">
        <ele>390</ele>
        <time>2024-03-31T22:10:54.712Z</time>
      </trkpt>
      <trkpt lat="48.3451" lon="6.81402">
        <ele>390.6</ele>
        <time>2024-03-31T22:10:54.928Z</time>
      </trkpt>
      <trkpt lat="48.34506" lon="6.81398">
        <ele>390.6</ele>
        <time>2024-03-31T22:10:55.146Z</time>
      </trkpt>
      <trkpt lat="48.34495" lon="6.81364">
        <ele>391.6</ele>
        <time>2024-03-31T22:10:55.370Z</time>
      </trkpt>
      <trkpt lat="48.3449" lon="6.81351">
        <ele>391.8</ele>
        <time>2024-03-31T22:10:55.597Z</time>
      </trkpt>
      <trkpt lat="48.34485" lon="6.8133">
        <ele>392</ele>
        <time>2024-03-31T22:10:55.827Z</time>
      </trkpt>
      <trkpt lat="48.34478" lon="6.81319">
        <ele>392</ele>
        <time>2024-03-31T22:10:56.060Z</time>
      </trkpt>
      <trkpt lat="48.34477" lon="6.81309">
        <ele>392</ele>
        <time>2024-03-31T22:10:56.295Z</time>
      </trkpt>
      <trkpt lat="48.34476" lon="6.81303">
        <ele>392</ele>
        <time>2024-03-31T22:10:56.531Z</time>
      </trkpt>
      <trkpt lat="48.34476" lon="6.81267">
        <ele>391.8</ele>
        <time>2024-03-31T22:10:56.773Z</time>
      </trkpt>
      <trkpt lat="48.34476" lon="6.81259">
        <ele>391.8</ele>
        <time>2024-03-31T22:10:57.016Z</time>
      </trkpt>
      <trkpt lat="48.34474" lon="6.81242">
        <ele>391.6</ele>
        <time>2024-03-31T22:10:57.262Z</time>
      </trkpt>
      <trkpt lat="48.34474" lon="6.81234">
        <ele>391.6</ele>
        <time>2024-03-31T22:10:57.509Z</time>
      </trkpt>
      <trkpt lat="48.34476" lon="6.81178">
        <ele>391.8</ele>
        <time>2024-03-31T22:10:57.766Z</time>
      </trkpt>
      <trkpt lat="48.34476" lon="6.81165">
        <ele>391.8</ele>
        <time>2024-03-31T22:10:58.025Z</time>
      </trkpt>
      <trkpt lat="48.34477" lon="6.81143">
        <ele>392</ele>
        <time>2024-03-31T22:10:58.288Z</time>
      </trkpt>
      <trkpt lat="48.34479" lon="6.81129">
        <ele>392</ele>
        <time>2024-03-31T22:10:58.553Z</time>
      </trkpt>
      <trkpt lat="48.34479" lon="6.81112">
        <ele>391.8</ele>
        <time>2024-03-31T22:10:58.821Z</time>
      </trkpt>
      <trkpt lat="48.34477" lon="6.8109">
        <ele>391.8</ele>
        <time>2024-03-31T22:10:59.093Z</time>
      </trkpt>
      <trkpt lat="48.34479" lon="6.81046">
        <ele>391</ele>
        <time>2024-03-31T22:10:59.372Z</time>
      </trkpt>
      <trkpt lat="48.3448" lon="6.8104">
        <ele>391</ele>
        <time>2024-03-31T22:10:59.652Z</time>
      </trkpt>
      <trkpt lat="48.3448" lon="6.81031">
        <ele>390.8</ele>
        <time>2024-03-31T22:10:59.934Z</time>
      </trkpt>
      <trkpt lat="48.3448" lon="6.81023">
        <ele>390.8</ele>
        <time>2024-03-31T22:11:00.217Z</time>
      </trkpt>
      <trkpt lat="48.34481" lon="6.80999">
        <ele>390.6</ele>
        <time>2024-03-31T22:11:00.504Z</time>
      </trkpt>
      <trkpt lat="48.34483" lon="6.80975">
        <ele>390.2</ele>
        <time>2024-03-31T22:11:00.795Z</time>
      </trkpt>
      <trkpt lat="48.34485" lon="6.80961">
        <ele>390.2</ele>
        <time>2024-03-31T22:11:01.089Z</time>
      </trkpt>
      <trkpt lat="48.34486" lon="6.80933">
        <ele>390</ele>
        <time>2024-03-31T22:11:01.388Z</time>
      </trkpt>
      <trkpt lat="48.34485" lon="6.80926">
        <ele>389.8</ele>
        <time>2024-03-31T22:11:01.688Z</time>
      </trkpt>
      <trkpt lat="48.34485" lon="6.80919">
        <ele>389.8</ele>
        <time>2024-03-31T22:11:01.989Z</time>
      </trkpt>
      <trkpt lat="48.34482" lon="6.80883">
        <ele>389.8</ele>
        <time>2024-03-31T22:11:02.296Z</time>
      </trkpt>
      <trkpt lat="48.34481" lon="6.80876">
        <ele>389.8</ele>
        <time>2024-03-31T22:11:02.604Z</time>
      </trkpt>
      <trkpt lat="48.34474" lon="6.80847">
        <ele>389.8</ele>
        <time>2024-03-31T22:11:02.918Z</time>
      </trkpt>
      <trkpt lat="48.34469" lon="6.8081">
        <ele>390.2</ele>
        <time>2024-03-31T22:11:03.238Z</time>
      </trkpt>
      <trkpt lat="48.34464" lon="6.80777">
        <ele>390.6</ele>
        <time>2024-03-31T22:11:03.564Z</time>
      </trkpt>
      <trkpt lat="48.34463" lon="6.8077">
        <ele>390.8</ele>
        <time>2024-03-31T22:11:03.891Z</time>
      </trkpt>
      <trkpt lat="48.34463" lon="6.80748">
        <ele>391.4</ele>
        <time>2024-03-31T22:11:04.222Z</time>
      </trkpt>
      <trkpt lat="48.34461" lon="6.80734">
        <ele>391.8</ele>
        <time>2024-03-31T22:11:04.555Z</time>
      </trkpt>
      <trkpt lat="48.34461" lon="6.80718">
        <ele>392.6</ele>
        <time>2024-03-31T22:11:04.891Z</time>
      </trkpt>
      <trkpt lat="48.34461" lon="6.80709">
        <ele>393</ele>
        <time>2024-03-31T22:11:05.228Z</time>
      </trkpt>
      <trkpt lat="48.34463" lon="6.80698">
        <ele>393.6</ele>
        <time>2024-03-31T22:11:05.567Z</time>
      </trkpt>
      <trkpt lat="48.34464" lon="6.80691">
        <ele>394.2</ele>
        <time>2024-03-31T22:11:05.907Z</time>
      </trkpt>
      <trkpt lat="48.34466" lon="6.80686">
        <ele>394.8</ele>
        <time>2024-03-31T22:11:06.248Z</time>
      </trkpt>
      <trkpt lat="48.34468" lon="6.80673">
        <ele>395.6</ele>
        <time>2024-03-31T22:11:06.592Z</time>
      </trkpt>
      <trkpt lat="48.34468" lon="6.80666">
        <ele>396</ele>
        <time>2024-03-31T22:11:06.937Z</time>
      </trkpt>
      <trkpt lat="48.34469" lon="6.80652">
        <ele>396.6</ele>
        <time>2024-03-31T22:11:07.284Z</time>
      </trkpt>
      <trkpt lat="48.34468" lon="6.80639">
        <ele>397.6</ele>
        <time>2024-03-31T22:11:07.633Z</time>
      </trkpt>
      <trkpt lat="48.34468" lon="6.80633">
        <ele>398</ele>
        <time>2024-03-31T22:11:07.984Z</time>
      </trkpt>
      <trkpt lat="48.3447" lon="6.80618">
        <ele>398.8</ele>
        <time>2024-03-31T22:11:08.337Z</time>
      </trkpt>
      <trkpt lat="48.34472" lon="6.80613">
        <ele>399.2</ele>
        <time>2024-03-31T22:11:08.691Z</time>
      </trkpt>
      <trkpt lat="48.34473" lon="6.80607">
        <ele>399.2</ele>
        <time>2024-03-31T22:11:09.046Z</time>
      </trkpt>
      <trkpt lat="48.34474" lon="6.80595">
        <ele>400.6</ele>
        <time>2024-03-31T22:11:09.403Z</time>
      </trkpt>
      <trkpt lat="48.34475" lon="6.80581">
        <ele>402</ele>
        <time>2024-03-31T22:11:09.763Z</time>
      </trkpt>
      <trkpt lat="48.34475" lon="6.80577">
        <ele>402.8</ele>
        <time>2024-03-31T22:11:10.123Z</time>
      </trkpt>
      <trkpt lat="48.34477" lon="6.80573">
        <ele>403.4</ele>
        <time>2024-03-31T22:11:10.484Z</time>
      </trkpt>
      <trkpt lat="48.34483" lon="6.80559">
        <ele>404.6</ele>
        <time>2024-03-31T22:11:10.848Z</time>
      </trkpt>
      <trkpt lat="48.34486" lon="6.80543">
        <ele>405.4</ele>
        <time>2024-03-31T22:11:11.215Z</time>
      </trkpt>
      <trkpt lat="48.34487" lon="6.8054">
        <ele>405.8</ele>
        <time>2024-03-31T22:11:11.582Z</time>
      </trkpt>
      <trkpt lat="48.34496" lon="6.80537">
        <ele>406.8</ele>
        <time>2024-03-31T22:11:11.952Z</time>
      </trkpt>
      <trkpt lat="48.34499" lon="6.80537">
        <ele>407.2</ele>
        <time>2024-03-31T22:11:12.322Z</time>
      </trkpt>
      <trkpt lat="48.34503" lon="6.80532">
        <ele>408</ele>
        <time>2024-03-31T22:11:12.694Z</time>
      </trkpt>
      <trkpt lat="48.34509" lon="6.80524">
        <ele>409</ele>
        <time>2024-03-31T22:11:13.068Z</time>
      </trkpt>
      <trkpt lat="48.34511" lon="6.80521">
        <ele>410.4</ele>
        <time>2024-03-31T22:11:13.443Z</time>
      </trkpt>
      <trkpt lat="48.34512" lon="6.80515">
        <ele>411.4</ele>
        <time>2024-03-31T22:11:13.818Z</time>
      </trkpt>
      <trkpt lat="48.34513" lon="6.80513">
        <ele>411.6</ele>
        <time>2024-03-31T22:11:14.194Z</time>
      </trkpt>
      <trkpt lat="48.34515" lon="6.8051">
        <ele>412.6</ele>
        <time>2024-03-31T22:11:14.571Z</time>
      </trkpt>
      <trkpt lat="48.34519" lon="6.80506">
        <ele>413.2</ele>
        <time>2024-03-31T22:11:14.949Z</time>
      </trkpt>
      <trkpt lat="48.34521" lon="6.80505">
        <ele>413.8</ele>
        <time>2024-03-31T22:11:15.327Z</time>
      </trkpt>
      <trkpt lat="48.34525" lon="6.80503">
        <ele>414.2</ele>
        <time>2024-03-31T22:11:15.706Z</time>
      </trkpt>
      <trkpt lat="48.3453" lon="6.80504">
        <ele>414.8</ele>
        <time>2024-03-31T22:11:16.087Z</time>
      </trkpt>
      <trkpt lat="48.34535" lon="6.80505">
        <ele>415.4</ele>
        <time>2024-03-31T22:11:16.469Z</time>
      </trkpt>
      <trkpt lat="48.34543" lon="6.80509">
        <ele>416</ele>
        <time>2024-03-31T22:11:16.853Z</time>
      </trkpt>
      <trkpt lat="48.34554" lon="6.80513">
        <ele>416.4</ele>
        <time>2024-03-31T22:11:17.240Z</time>
      </trkpt>
      <trkpt lat="48.3457" lon="6.80511">
        <ele>416.8</ele>
        <time>2024-03-31T22:11:17.631Z</time>
      </trkpt>
      <trkpt lat="48.34572" lon="6.80513">
        <ele>417</ele>
        <time>2024-03-31T22:11:18.023Z</time>
      </trkpt>
      <trkpt lat="48.34574" lon="6.80514">
        <ele>417.2</ele>
        <time>2024-03-31T22:11:18.415Z</time>
      </trkpt>
      <trkpt lat="48.34578" lon="6.80522">
        <ele>417.6</ele>
        <time>2024-03-31T22:11:18.809Z</time>
      </trkpt>
      <trkpt lat="48.34577" lon="6.80523">
        <ele>417.8</ele>
        <time>2024-03-31T22:11:19.203Z</time>
      </trkpt>
      <trkpt lat="48.34574" lon="6.80524">
        <ele>418.2</ele>
        <time>2024-03-31T22:11:19.598Z</time>
      </trkpt>
      <trkpt lat="48.34571" lon="6.80529">
        <ele>418.6</ele>
        <time>2024-03-31T22:11:19.994Z</time>
      </trkpt>
      <trkpt lat="48.34568" lon="6.80532">
        <ele>418.8</ele>
        <time>2024-03-31T22:11:20.391Z</time>
      </trkpt>
      <trkpt lat="48.34558" lon="6.80547">
        <ele>419.2</ele>
        <time>2024-03-31T22:11:20.792Z</time>
      </trkpt>
      <trkpt lat="48.34555" lon="6.80552">
        <ele>419.4</ele>
        <time>2024-03-31T22:11:21.194Z</time>
      </trkpt>
      <trkpt lat="48.34547" lon="6.80569">
        <ele>419.8</ele>
        <time>2024-03-31T22:11:21.599Z</time>
      </trkpt>
      <trkpt lat="48.34546" lon="6.80571">
        <ele>419.8</ele>
        <time>2024-03-31T22:11:22.005Z</time>
      </trkpt>
      <trkpt lat="48.34543" lon="6.80592">
        <ele>420.2</ele>
        <time>2024-03-31T22:11:22.415Z</time>
      </trkpt>
      <trkpt lat="48.34546" lon="6.80609">
        <ele>420.2</ele>
        <time>2024-03-31T22:11:22.827Z</time>
      </trkpt>
      <trkpt lat="48.34549" lon="6.80613">
        <ele>420.4</ele>
        <time>2024-03-31T22:11:23.241Z</time>
      </trkpt>
      <trkpt lat="48.34551" lon="6.80617">
        <ele>420.6</ele>
        <time>2024-03-31T22:11:23.655Z</time>
      </trkpt>
      <trkpt lat="48.34551" lon="6.80634">
        <ele>421.2</ele>
        <time>2024-03-31T22:11:24.072Z</time>
      </trkpt>
      <trkpt lat="48.34553" lon="6.80643">
        <ele>421</ele>
        <time>2024-03-31T22:11:24.491Z</time>
      </trkpt>
      <trkpt lat="48.34555" lon="6.8066">
        <ele>421.6</ele>
        <time>2024-03-31T22:11:24.913Z</time>
      </trkpt>
      <trkpt lat="48.34562" lon="6.80691">
        <ele>422.2</ele>
        <time>2024-03-31T22:11:25.340Z</time>
      </trkpt>
      <trkpt lat="48.34565" lon="6.80696">
        <ele>422.2</ele>
        <time>2024-03-31T22:11:25.768Z</time>
      </trkpt>
      <trkpt lat="48.34581" lon="6.80714">
        <ele>422.4</ele>
        <time>2024-03-31T22:11:26.202Z</time>
      </trkpt>
      <trkpt lat="48.34583" lon="6.80721">
        <ele>422.2</ele>
        <time>2024-03-31T22:11:26.637Z</time>
      </trkpt>
      <trkpt lat="48.34592" lon="6.80732">
        <ele>422.6</ele>
        <time>2024-03-31T22:11:27.075Z</time>
      </trkpt>
      <trkpt lat="48.34603" lon="6.80752">
        <ele>422.6</ele>
        <time>2024-03-31T22:11:27.517Z</time>
      </trkpt>
      <trkpt lat="48.34618" lon="6.80771">
        <ele>422.6</ele>
        <time>2024-03-31T22:11:27.964Z</time>
      </trkpt>
      <trkpt lat="48.34625" lon="6.80774">
        <ele>422.4</ele>
        <time>2024-03-31T22:11:28.413Z</time>
      </trkpt>
      <trkpt lat="48.34632" lon="6.80772">
        <ele>422.2</ele>
        <time>2024-03-31T22:11:28.864Z</time>
      </trkpt>
      <trkpt lat="48.34639" lon="6.80768">
        <ele>422.6</ele>
        <time>2024-03-31T22:11:29.317Z</time>
      </trkpt>
      <trkpt lat="48.34644" lon="6.80771">
        <ele>422.6</ele>
        <time>2024-03-31T22:11:29.771Z</time>
      </trkpt>
      <trkpt lat="48.34652" lon="6.80787">
        <ele>422.2</ele>
        <time>2024-03-31T22:11:30.229Z</time>
      </trkpt>
      <trkpt lat="48.34653" lon="6.80786">
        <ele>422</ele>
        <time>2024-03-31T22:11:30.687Z</time>
      </trkpt>
      <trkpt lat="48.34673" lon="6.80788">
        <ele>421.8</ele>
        <time>2024-03-31T22:11:31.150Z</time>
      </trkpt>
      <trkpt lat="48.34674" lon="6.80789">
        <ele>421.8</ele>
        <time>2024-03-31T22:11:31.613Z</time>
      </trkpt>
      <trkpt lat="48.34675" lon="6.8079">
        <ele>421.8</ele>
        <time>2024-03-31T22:11:32.077Z</time>
      </trkpt>
      <trkpt lat="48.34676" lon="6.80789">
        <ele>421.8</ele>
        <time>2024-03-31T22:11:32.541Z</time>
      </trkpt>
      <trkpt lat="48.34683" lon="6.80791">
        <ele>421.6</ele>
        <time>2024-03-31T22:11:33.007Z</time>
      </trkpt>
      <trkpt lat="48.34683" lon="6.80791">
        <ele>421.6</ele>
        <time>2024-03-31T22:11:33.473Z</time>
      </trkpt>
      <trkpt lat="48.34687" lon="6.808">
        <ele>421.6</ele>
        <time>2024-03-31T22:11:33.940Z</time>
      </trkpt>
      <trkpt lat="48.34689" lon="6.80802">
        <ele>421.6</ele>
        <time>2024-03-31T22:11:34.408Z</time>
      </trkpt>
      <trkpt lat="48.34693" lon="6.80804">
        <ele>421.4</ele>
        <time>2024-03-31T22:11:34.877Z</time>
      </trkpt>
      <trkpt lat="48.347" lon="6.80806">
        <ele>421.4</ele>
        <time>2024-03-31T22:11:35.348Z</time>
      </trkpt>
      <trkpt lat="48.34706" lon="6.80809">
        <ele>421</ele>
        <time>2024-03-31T22:11:35.821Z</time>
      </trkpt>
      <trkpt lat="48.34709" lon="6.80812">
        <ele>421</ele>
        <time>2024-03-31T22:11:36.294Z</time>
      </trkpt>
      <trkpt lat="48.34717" lon="6.80811">
        <ele>420.6</ele>
        <time>2024-03-31T22:11:36.770Z</time>
      </trkpt>
      <trkpt lat="48.34738" lon="6.80813">
        <ele>419.6</ele>
        <time>2024-03-31T22:11:37.251Z</time>
      </trkpt>
      <trkpt lat="48.34741" lon="6.80813">
        <ele>419.6</ele>
        <time>2024-03-31T22:11:37.733Z</time>
      </trkpt>
      <trkpt lat="48.34743" lon="6.80813">
        <ele>419.4</ele>
        <time>2024-03-31T22:11:38.215Z</time>
      </trkpt>
      <trkpt lat="48.34743" lon="6.80813">
        <ele>419.4</ele>
        <time>2024-03-31T22:11:38.697Z</time>
      </trkpt>
      <trkpt lat="48.34757" lon="6.8081">
        <ele>418</ele>
        <time>2024-03-31T22:11:39.183Z</time>
      </trkpt>
      <trkpt lat="48.34766" lon="6.80808">
        <ele>417.8</ele>
        <time>2024-03-31T22:11:39.671Z</time>
      </trkpt>
      <trkpt lat="48.3477" lon="6.80809">
        <ele>417.8</ele>
        <time>2024-03-31T22:11:40.160Z</time>
      </trkpt>
      <trkpt lat="48.34776" lon="6.80818">
        <ele>417.4</ele>
        <time>2024-03-31T22:11:40.651Z</time>
      </trkpt>
      <trkpt lat="48.34777" lon="6.80824">
        <ele>417.2</ele>
        <time>2024-03-31T22:11:41.143Z</time>
      </trkpt>
      <trkpt lat="48.34778" lon="6.80827">
        <ele>417</ele>
        <time>2024-03-31T22:11:41.636Z</time>
      </trkpt>
      <trkpt lat="48.34779" lon="6.8083">
        <ele>417</ele>
        <time>2024-03-31T22:11:42.130Z</time>
      </trkpt>
      <trkpt lat="48.34781" lon="6.80837">
        <ele>416.2</ele>
        <time>2024-03-31T22:11:42.625Z</time>
      </trkpt>
      <trkpt lat="48.34781" lon="6.80839">
        <ele>416</ele>
        <time>2024-03-31T22:11:43.120Z</time>
      </trkpt>
      <trkpt lat="48.34783" lon="6.80845">
        <ele>415.6</ele>
        <time>2024-03-31T22:11:43.616Z</time>
      </trkpt>
      <trkpt lat="48.34785" lon="6.80847">
        <ele>415.4</ele>
        <time>2024-03-31T22:11:44.113Z</time>
      </trkpt>
      <trkpt lat="48.34787" lon="6.80848">
        <ele>415</ele>
        <time>2024-03-31T22:11:44.611Z</time>
      </trkpt>
      <trkpt lat="48.34793" lon="6.80846">
        <ele>413.8</ele>
        <time>2024-03-31T22:11:45.110Z</time>
      </trkpt>
      <trkpt lat="48.34795" lon="6.80846">
        <ele>413.4</ele>
        <time>2024-03-31T22:11:45.609Z</time>
      </trkpt>
      <trkpt lat="48.34798" lon="6.80846">
        <ele>412.8</ele>
        <time>2024-03-31T22:11:46.109Z</time>
      </trkpt>
      <trkpt lat="48.34801" lon="6.80846">
        <ele>412.6</ele>
        <time>2024-03-31T22:11:46.610Z</time>
      </trkpt>
      <trkpt lat="48.34804" lon="6.80846">
        <ele>412.6</ele>
        <time>2024-03-31T22:11:47.112Z</time>
      </trkpt>
      <trkpt lat="48.34827" lon="6.80844">
        <ele>412.2</ele>
        <time>2024-03-31T22:11:47.620Z</time>
      </trkpt>
      <trkpt lat="48.34834" lon="6.80846">
        <ele>412.2</ele>
        <time>2024-03-31T22:11:48.130Z</time>
      </trkpt>
      <trkpt lat="48.34837" lon="6.80849">
        <ele>412.2</ele>
        <time>2024-03-31T22:11:48.640Z</time>
      </trkpt>
      <trkpt lat="48.34858" lon="6.80862">
        <ele>411.8</ele>
        <time>2024-03-31T22:11:49.156Z</time>
      </trkpt>
      <trkpt lat="48.34865" lon="6.8087">
        <ele>411.6</ele>
        <time>2024-03-31T22:11:49.674Z</time>
      </trkpt>
      <trkpt lat="48.34873" lon="6.80875">
        <ele>411.2</ele>
        <time>2024-03-31T22:11:50.195Z</time>
      </trkpt>
      <trkpt lat="48.34888" lon="6.80887">
        <ele>411</ele>
        <time>2024-03-31T22:11:50.720Z</time>
      </trkpt>
      <trkpt lat="48.34889" lon="6.80889">
        <ele>411</ele>
        <time>2024-03-31T22:11:51.245Z</time>
      </trkpt>
      <trkpt lat="48.34892" lon="6.8089">
        <ele>411</ele>
        <time>2024-03-31T22:11:51.771Z</time>
      </trkpt>
      <trkpt lat="48.34902" lon="6.80892">
        <ele>411.2</ele>
        <time>2024-03-31T22:11:52.300Z</time>
      </trkpt>
      <trkpt lat="48.34904" lon="6.80893">
        <ele>411.2</ele>
        <time>2024-03-31T22:11:52.829Z</time>
      </trkpt>
      <trkpt lat="48.34919" lon="6.80901">
        <ele>411</ele>
        <time>2024-03-31T22:11:53.362Z</time>
      </trkpt>
      <trkpt lat="48.34929" lon="6.80904">
        <ele>410.4</ele>
        <time>2024-03-31T22:11:53.898Z</time>
      </trkpt>
      <trkpt lat="48.34936" lon="6.80909">
        <ele>410.2</ele>
        <time>2024-03-31T22:11:54.436Z</time>
      </trkpt>
      <trkpt lat="48.34952" lon="6.8092">
        <ele>409.2</ele>
        <time>2024-03-31T22:11:54.978Z</time>
      </trkpt>
      <trkpt lat="48.34957" lon="6.80924">
        <ele>408.6</ele>
        <time>2024-03-31T22:11:55.522Z</time>
      </trkpt>
      <trkpt lat="48.34967" lon="6.80932">
        <ele>408</ele>
        <time>2024-03-31T22:11:56.069Z</time>
      </trkpt>
      <trkpt lat="48.34976" lon="6.80939">
        <ele>406.6</ele>
        <time>2024-03-31T22:11:56.618Z</time>
      </trkpt>
      <trkpt lat="48.34986" lon="6.80946">
        <ele>405.4</ele>
        <time>2024-03-31T22:11:57.170Z</time>
      </trkpt>
      <trkpt lat="48.35003" lon="6.80955">
        <ele>404.8</ele>
        <time>2024-03-31T22:11:57.727Z</time>
      </trkpt>
      <trkpt lat="48.35004" lon="6.80956">
        <ele>404.6</ele>
        <time>2024-03-31T22:11:58.284Z</time>
      </trkpt>
      <trkpt lat="48.35006" lon="6.80957">
        <ele>404.4</ele>
        <time>2024-03-31T22:11:58.841Z</time>
      </trkpt>
      <trkpt lat="48.35021" lon="6.80965">
        <ele>404.4</ele>
        <time>2024-03-31T22:11:59.403Z</time>
      </trkpt>
      <trkpt lat="48.35035" lon="6.80976">
        <ele>404.2</ele>
        <time>2024-03-31T22:11:59.968Z</time>
      </trkpt>
      <trkpt lat="48.35036" lon="6.80979">
        <ele>404.2</ele>
        <time>2024-03-31T22:12:00.534Z</time>
      </trkpt>
      <trkpt lat="48.35042" lon="6.80983">
        <ele>403.8</ele>
        <time>2024-03-31T22:12:01.102Z</time>
      </trkpt>
      <trkpt lat="48.35045" lon="6.80986">
        <ele>403.2</ele>
        <time>2024-03-31T22:12:01.671Z</time>
      </trkpt>
      <trkpt lat="48.35048" lon="6.80989">
        <ele>403</ele>
        <time>2024-03-31T22:12:02.240Z</time>
      </trkpt>
      <trkpt lat="48.35052" lon="6.80992">
        <ele>402.6</ele>
        <time>2024-03-31T22:12:02.811Z</time>
      </trkpt>
      <trkpt lat="48.35055" lon="6.80995">
        <ele>402.2</ele>
        <time>2024-03-31T22:12:03.382Z</time>
      </trkpt>
      <trkpt lat="48.35064" lon="6.81006">
        <ele>401.8</ele>
        <time>2024-03-31T22:12:03.957Z</time>
      </trkpt>
      <trkpt lat="48.35078" lon="6.81011">
        <ele>401.4</ele>
        <time>2024-03-31T22:12:04.535Z</time>
      </trkpt>
      <trkpt lat="48.35086" lon="6.81027">
        <ele>401.2</ele>
        <time>2024-03-31T22:12:05.116Z</time>
      </trkpt>
      <trkpt lat="48.35088" lon="6.81032">
        <ele>401.2</ele>
        <time>2024-03-31T22:12:05.699Z</time>
      </trkpt>
      <trkpt lat="48.35101" lon="6.81062">
        <ele>400.6</ele>
        <time>2024-03-31T22:12:06.288Z</time>
      </trkpt>
      <trkpt lat="48.35108" lon="6.81081">
        <ele>400.2</ele>
        <time>2024-03-31T22:12:06.880Z</time>
      </trkpt>
      <trkpt lat="48.3511" lon="6.81084">
        <ele>400</ele>
        <time>2024-03-31T22:12:07.473Z</time>
      </trkpt>
      <trkpt lat="48.35113" lon="6.81088">
        <ele>400</ele>
        <time>2024-03-31T22:12:08.067Z</time>
      </trkpt>
      <trkpt lat="48.35118" lon="6.81091">
        <ele>400</ele>
        <time>2024-03-31T22:12:08.662Z</time>
      </trkpt>
      <trkpt lat="48.35124" lon="6.81092">
        <ele>400</ele>
        <time>2024-03-31T22:12:09.259Z</time>
      </trkpt>
      <trkpt lat="48.35142" lon="6.81098">
        <ele>399.8</ele>
        <time>2024-03-31T22:12:09.861Z</time>
      </trkpt>
      <trkpt lat="48.3517" lon="6.81108">
        <ele>399.2</ele>
        <time>2024-03-31T22:12:10.470Z</time>
      </trkpt>
      <trkpt lat="48.3519" lon="6.81117">
        <ele>399</ele>
        <time>2024-03-31T22:12:11.084Z</time>
      </trkpt>
      <trkpt lat="48.35195" lon="6.81121">
        <ele>399</ele>
        <time>2024-03-31T22:12:11.700Z</time>
      </trkpt>
      <trkpt lat="48.35204" lon="6.81128">
        <ele>399</ele>
        <time>2024-03-31T22:12:12.318Z</time>
      </trkpt>
      <trkpt lat="48.35215" lon="6.8113">
        <ele>399.2</ele>
        <time>2024-03-31T22:12:12.939Z</time>
      </trkpt>
      <trkpt lat="48.35226" lon="6.8113">
        <ele>399.2</ele>
        <time>2024-03-31T22:12:13.563Z</time>
      </trkpt>
      <trkpt lat="48.35239" lon="6.81133">
        <ele>399.2</ele>
        <time>2024-03-31T22:12:14.190Z</time>
      </trkpt>
      <trkpt lat="48.35245" lon="6.81137">
        <ele>399.2</ele>
        <time>2024-03-31T22:12:14.819Z</time>
      </trkpt>
      <trkpt lat="48.35264" lon="6.81144">
        <ele>399.4</ele>
        <time>2024-03-31T22:12:15.453Z</time>
      </trkpt>
      <trkpt lat="48.35272" lon="6.81145">
        <ele>399.6</ele>
        <time>2024-03-31T22:12:16.089Z</time>
      </trkpt>
      <trkpt lat="48.35298" lon="6.81144">
        <ele>400.2</ele>
        <time>2024-03-31T22:12:16.731Z</time>
      </trkpt>
      <trkpt lat="48.35323" lon="6.81151">
        <ele>401</ele>
        <time>2024-03-31T22:12:17.380Z</time>
      </trkpt>
      <trkpt lat="48.35329" lon="6.81149">
        <ele>401.4</ele>
        <time>2024-03-31T22:12:18.031Z</time>
      </trkpt>
      <trkpt lat="48.35334" lon="6.81148">
        <ele>401.6</ele>
        <time>2024-03-31T22:12:18.683Z</time>
      </trkpt>
      <trkpt lat="48.35344" lon="6.81147">
        <ele>401.8</ele>
        <time>2024-03-31T22:12:19.337Z</time>
      </trkpt>
      <trkpt lat="48.3535" lon="6.81145">
        <ele>402</ele>
        <time>2024-03-31T22:12:19.993Z</time>
      </trkpt>
      <trkpt lat="48.35355" lon="6.81143">
        <ele>402</ele>
        <time>2024-03-31T22:12:20.650Z</time>
      </trkpt>
      <trkpt lat="48.35364" lon="6.81137">
        <ele>402.4</ele>
        <time>2024-03-31T22:12:21.310Z</time>
      </trkpt>
      <trkpt lat="48.35368" lon="6.81136">
        <ele>402.4</ele>
        <time>2024-03-31T22:12:21.971Z</time>
      </trkpt>
      <trkpt lat="48.35372" lon="6.81135">
        <ele>402.4</ele>
        <time>2024-03-31T22:12:22.633Z</time>
      </trkpt>
      <trkpt lat="48.35375" lon="6.81135">
        <ele>402.4</ele>
        <time>2024-03-31T22:12:23.296Z</time>
      </trkpt>
      <trkpt lat="48.35386" lon="6.81138">
        <ele>402.6</ele>
        <time>2024-03-31T22:12:23.961Z</time>
      </trkpt>
      <trkpt lat="48.35401" lon="6.8115">
        <ele>403.2</ele>
        <time>2024-03-31T22:12:24.631Z</time>
      </trkpt>
      <trkpt lat="48.35411" lon="6.8116">
        <ele>403.6</ele>
        <time>2024-03-31T22:12:25.304Z</time>
      </trkpt>
      <trkpt lat="48.35416" lon="6.81163">
        <ele>404</ele>
        <time>2024-03-31T22:12:25.978Z</time>
      </trkpt>
      <trkpt lat="48.35428" lon="6.81168">
        <ele>404.6</ele>
        <time>2024-03-31T22:12:26.655Z</time>
      </trkpt>
      <trkpt lat="48.35438" lon="6.81175">
        <ele>405.6</ele>
        <time>2024-03-31T22:12:27.335Z</time>
      </trkpt>
      <trkpt lat="48.35443" lon="6.81179">
        <ele>405.8</ele>
        <time>2024-03-31T22:12:28.016Z</time>
      </trkpt>
      <trkpt lat="48.35446" lon="6.81184">
        <ele>406.2</ele>
        <time>2024-03-31T22:12:28.699Z</time>
      </trkpt>
      <trkpt lat="48.35452" lon="6.81193">
        <ele>406.4</ele>
        <time>2024-03-31T22:12:29.384Z</time>
      </trkpt>
      <trkpt lat="48.35457" lon="6.81197">
        <ele>406.6</ele>
        <time>2024-03-31T22:12:30.070Z</time>
      </trkpt>
      <trkpt lat="48.35471" lon="6.81207">
        <ele>407.2</ele>
        <time>2024-03-31T22:12:30.760Z</time>
      </trkpt>
      <trkpt lat="48.35475" lon="6.8121">
        <ele>407.8</ele>
        <time>2024-03-31T22:12:31.451Z</time>
      </trkpt>
      <trkpt lat="48.35481" lon="6.81212">
        <ele>408</ele>
        <time>2024-03-31T22:12:32.144Z</time>
      </trkpt>
      <trkpt lat="48.35485" lon="6.81212">
        <ele>408.2</ele>
        <time>2024-03-31T22:12:32.838Z</time>
      </trkpt>
      <trkpt lat="48.35489" lon="6.81214">
        <ele>408.2</ele>
        <time>2024-03-31T22:12:33.533Z</time>
      </trkpt>
      <trkpt lat="48.35496" lon="6.81222">
        <ele>408.2</ele>
        <time>2024-03-31T22:12:34.230Z</time>
      </trkpt>
      <trkpt lat="48.35514" lon="6.81235">
        <ele>407.8</ele>
        <time>2024-03-31T22:12:34.932Z</time>
      </trkpt>
      <trkpt lat="48.35524" lon="6.8124">
        <ele>407.2</ele>
        <time>2024-03-31T22:12:35.637Z</time>
      </trkpt>
      <trkpt lat="48.3553" lon="6.81241">
        <ele>407</ele>
        <time>2024-03-31T22:12:36.344Z</time>
      </trkpt>
      <trkpt lat="48.35536" lon="6.81243">
        <ele>406.8</ele>
        <time>2024-03-31T22:12:37.052Z</time>
      </trkpt>
      <trkpt lat="48.35541" lon="6.81246">
        <ele>406.6</ele>
        <time>2024-03-31T22:12:37.761Z</time>
      </trkpt>
      <trkpt lat="48.3555" lon="6.81254">
        <ele>406</ele>
        <time>2024-03-31T22:12:38.473Z</time>
      </trkpt>
      <trkpt lat="48.35554" lon="6.81256">
        <ele>405.6</ele>
        <time>2024-03-31T22:12:39.186Z</time>
      </trkpt>
      <trkpt lat="48.3556" lon="6.81256">
        <ele>405.4</ele>
        <time>2024-03-31T22:12:39.901Z</time>
      </trkpt>
      <trkpt lat="48.35568" lon="6.81254">
        <ele>405.4</ele>
        <time>2024-03-31T22:12:40.618Z</time>
      </trkpt>
      <trkpt lat="48.35581" lon="6.81257">
        <ele>405.2</ele>
        <time>2024-03-31T22:12:41.338Z</time>
      </trkpt>
      <trkpt lat="48.35586" lon="6.81259">
        <ele>404.8</ele>
        <time>2024-03-31T22:12:42.059Z</time>
      </trkpt>
      <trkpt lat="48.35588" lon="6.8126">
        <ele>404.4</ele>
        <time>2024-03-31T22:12:42.781Z</time>
      </trkpt>
      <trkpt lat="48.35594" lon="6.81264">
        <ele>403.4</ele>
        <time>2024-03-31T22:12:43.505Z</time>
      </trkpt>
      <trkpt lat="48.35597" lon="6.81266">
        <ele>402.6</ele>
        <time>2024-03-31T22:12:44.229Z</time>
      </trkpt>
      <trkpt lat="48.356" lon="6.81266">
        <ele>401.4</ele>
        <time>2024-03-31T22:12:44.954Z</time>
      </trkpt>
      <trkpt lat="48.35605" lon="6.81266">
        <ele>399.6</ele>
        <time>2024-03-31T22:12:45.680Z</time>
      </trkpt>
      <trkpt lat="48.35612" lon="6.81265">
        <ele>398</ele>
        <time>2024-03-31T22:12:46.408Z</time>
      </trkpt>
      <trkpt lat="48.3562" lon="6.81269">
        <ele>396.6</ele>
        <time>2024-03-31T22:12:47.138Z</time>
      </trkpt>
      <trkpt lat="48.35628" lon="6.81273">
        <ele>395.4</ele>
        <time>2024-03-31T22:12:47.871Z</time>
      </trkpt>
      <trkpt lat="48.35638" lon="6.81278">
        <ele>393.6</ele>
        <time>2024-03-31T22:12:48.606Z</time>
      </trkpt>
      <trkpt lat="48.35643" lon="6.81281">
        <ele>392.4</ele>
        <time>2024-03-31T22:12:49.342Z</time>
      </trkpt>
      <trkpt lat="48.35653" lon="6.81288">
        <ele>390.2</ele>
        <time>2024-03-31T22:12:50.081Z</time>
      </trkpt>
      <trkpt lat="48.35656" lon="6.81293">
        <ele>389.8</ele>
        <time>2024-03-31T22:12:50.822Z</time>
      </trkpt>
      <trkpt lat="48.3566" lon="6.81297">
        <ele>388.6</ele>
        <time>2024-03-31T22:12:51.564Z</time>
      </trkpt>
      <trkpt lat="48.35666" lon="6.81301">
        <ele>387.4</ele>
        <time>2024-03-31T22:12:52.307Z</time>
      </trkpt>
      <trkpt lat="48.35666" lon="6.81301">
        <ele>387.2</ele>
        <time>2024-03-31T22:12:53.050Z</time>
      </trkpt>
      <trkpt lat="48.35678" lon="6.81311">
        <ele>384.8</ele>
        <time>2024-03-31T22:12:53.797Z</time>
      </trkpt>
      <trkpt lat="48.35694" lon="6.81309">
        <ele>384.4</ele>
        <time>2024-03-31T22:12:54.548Z</time>
      </trkpt>
      <trkpt lat="48.35713" lon="6.81312">
        <ele>384.4</ele>
        <time>2024-03-31T22:12:55.304Z</time>
      </trkpt>
      <trkpt lat="48.35739" lon="6.81319">
        <ele>384.4</ele>
        <time>2024-03-31T22:12:56.067Z</time>
      </trkpt>
      <trkpt lat="48.35753" lon="6.81308">
        <ele>384.4</ele>
        <time>2024-03-31T22:12:56.834Z</time>
      </trkpt>
      <trkpt lat="48.35762" lon="6.81299">
        <ele>384.4</ele>
        <time>2024-03-31T22:12:57.603Z</time>
      </trkpt>
      <trkpt lat="48.3577" lon="6.81284">
        <ele>384.2</ele>
        <time>2024-03-31T22:12:58.375Z</time>
      </trkpt>
      <trkpt lat="48.35775" lon="6.81274">
        <ele>383.8</ele>
        <time>2024-03-31T22:12:59.150Z</time>
      </trkpt>
      <trkpt lat="48.35786" lon="6.81254">
        <ele>382.4</ele>
        <time>2024-03-31T22:12:59.929Z</time>
      </trkpt>
      <trkpt lat="48.35789" lon="6.81249">
        <ele>381.6</ele>
        <time>2024-03-31T22:13:00.709Z</time>
      </trkpt>
      <trkpt lat="48.35792" lon="6.81243">
        <ele>380.8</ele>
        <time>2024-03-31T22:13:01.490Z</time>
      </trkpt>
      <trkpt lat="48.35801" lon="6.8123">
        <ele>379.2</ele>
        <time>2024-03-31T22:13:02.275Z</time>
      </trkpt>
      <trkpt lat="48.35814" lon="6.81218">
        <ele>377</ele>
        <time>2024-03-31T22:13:03.064Z</time>
      </trkpt>
      <trkpt lat="48.35826" lon="6.81207">
        <ele>374.6</ele>
        <time>2024-03-31T22:13:03.856Z</time>
      </trkpt>
      <trkpt lat="48.35839" lon="6.81195">
        <ele>373</ele>
        <time>2024-03-31T22:13:04.652Z</time>
      </trkpt>
      <trkpt lat="48.35844" lon="6.81189">
        <ele>371.2</ele>
        <time>2024-03-31T22:13:05.450Z</time>
      </trkpt>
      <trkpt lat="48.3585" lon="6.81184">
        <ele>370.4</ele>
        <time>2024-03-31T22:13:06.249Z</time>
      </trkpt>
      <trkpt lat="48.35856" lon="6.81179">
        <ele>369</ele>
        <time>2024-03-31T22:13:07.050Z</time>
      </trkpt>
      <trkpt lat="48.35868" lon="6.81168">
        <ele>367.2</ele>
        <time>2024-03-31T22:13:07.855Z</time>
      </trkpt>
      <trkpt lat="48.35874" lon="6.81162">
        <ele>366.2</ele>
        <time>2024-03-31T22:13:08.662Z</time>
      </trkpt>
      <trkpt lat="48.35879" lon="6.81157">
        <ele>364.8</ele>
        <time>2024-03-31T22:13:09.470Z</time>
      </trkpt>
      <trkpt lat="48.35886" lon="6.81149">
        <ele>363.4</ele>
        <time>2024-03-31T22:13:10.280Z</time>
      </trkpt>
      <trkpt lat="48.35893" lon="6.81145">
        <ele>361</ele>
        <time>2024-03-31T22:13:11.092Z</time>
      </trkpt>
      <trkpt lat="48.35896" lon="6.81144">
        <ele>359.8</ele>
        <time>2024-03-31T22:13:11.905Z</time>
      </trkpt>
      <trkpt lat="48.35898" lon="6.81143">
        <ele>359.4</ele>
        <time>2024-03-31T22:13:12.718Z</time>
      </trkpt>
      <trkpt lat="48.35902" lon="6.81143">
        <ele>358.8</ele>
        <time>2024-03-31T22:13:13.532Z</time>
      </trkpt>
      <trkpt lat="48.35905" lon="6.81141">
        <ele>358.4</ele>
        <time>2024-03-31T22:13:14.347Z</time>
      </trkpt>
      <trkpt lat="48.35911" lon="6.81138">
        <ele>357.2</ele>
        <time>2024-03-31T22:13:15.164Z</time>
      </trkpt>
      <trkpt lat="48.35915" lon="6.81135">
        <ele>357</ele>
        <time>2024-03-31T22:13:15.982Z</time>
      </trkpt>
      <trkpt lat="48.3592" lon="6.81128">
        <ele>356.4</ele>
        <time>2024-03-31T22:13:16.802Z</time>
      </trkpt>
      <trkpt lat="48.35924" lon="6.81125">
        <ele>356.2</ele>
        <time>2024-03-31T22:13:17.623Z</time>
      </trkpt>
      <trkpt lat="48.35929" lon="6.8112">
        <ele>355.4</ele>
        <time>2024-03-31T22:13:18.445Z</time>
      </trkpt>
      <trkpt lat="48.35937" lon="6.81112">
        <ele>355.2</ele>
        <time>2024-03-31T22:13:19.270Z</time>
      </trkpt>
      <trkpt lat="48.35948" lon="6.81103">
        <ele>355</ele>
        <time>2024-03-31T22:13:20.098Z</time>
      </trkpt>
      <trkpt lat="48.35963" lon="6.81095">
        <ele>354.6</ele>
        <time>2024-03-31T22:13:20.930Z</time>
      </trkpt>
      <trkpt lat="48.35972" lon="6.81088">
        <ele>354.2</ele>
        <time>2024-03-31T22:13:21.765Z</time>
      </trkpt>
      <trkpt lat="48.35977" lon="6.81085">
        <ele>353.8</ele>
        <time>2024-03-31T22:13:22.601Z</time>
      </trkpt>
      <trkpt lat="48.35996" lon="6.81071">
        <ele>352.8</ele>
        <time>2024-03-31T22:13:23.442Z</time>
      </trkpt>
      <trkpt lat="48.36004" lon="6.81064">
        <ele>352.2</ele>
        <time>2024-03-31T22:13:24.286Z</time>
      </trkpt>
      <trkpt lat="48.3601" lon="6.8106">
        <ele>351.8</ele>
        <time>2024-03-31T22:13:25.131Z</time>
      </trkpt>
      <trkpt lat="48.36015" lon="6.81059">
        <ele>351</ele>
        <time>2024-03-31T22:13:25.978Z</time>
      </trkpt>
      <trkpt lat="48.36026" lon="6.81048">
        <ele>350</ele>
        <time>2024-03-31T22:13:26.828Z</time>
      </trkpt>
      <trkpt lat="48.36039" lon="6.81038">
        <ele>349.4</ele>
        <time>2024-03-31T22:13:27.682Z</time>
      </trkpt>
      <trkpt lat="48.36043" lon="6.81038">
        <ele>348.4</ele>
        <time>2024-03-31T22:13:28.537Z</time>
      </trkpt>
      <trkpt lat="48.36053" lon="6.8104">
        <ele>347.2</ele>
        <time>2024-03-31T22:13:29.394Z</time>
      </trkpt>
      <trkpt lat="48.36064" lon="6.81042">
        <ele>345.8</ele>
        <time>2024-03-31T22:13:30.254Z</time>
      </trkpt>
      <trkpt lat="48.36073" lon="6.81043">
        <ele>344.6</ele>
        <time>2024-03-31T22:13:31.116Z</time>
      </trkpt>
      <trkpt lat="48.36083" lon="6.81042">
        <ele>344</ele>
        <time>2024-03-31T22:13:31.981Z</time>
      </trkpt>
      <trkpt lat="48.36088" lon="6.81042">
        <ele>343.8</ele>
        <time>2024-03-31T22:13:32.847Z</time>
      </trkpt>
      <trkpt lat="48.36092" lon="6.81042">
        <ele>343.6</ele>
        <time>2024-03-31T22:13:33.714Z</time>
      </trkpt>
      <trkpt lat="48.36101" lon="6.81041">
        <ele>343.2</ele>
        <time>2024-03-31T22:13:34.584Z</time>
      </trkpt>
      <trkpt lat="48.36106" lon="6.81039">
        <ele>342.8</ele>
        <time>2024-03-31T22:13:35.455Z</time>
      </trkpt>
      <trkpt lat="48.36115" lon="6.81035">
        <ele>342.2</ele>
        <time>2024-03-31T22:13:36.328Z</time>
      </trkpt>
      <trkpt lat="48.36123" lon="6.81037">
        <ele>342</ele>
        <time>2024-03-31T22:13:37.203Z</time>
      </trkpt>
      <trkpt lat="48.36141" lon="6.81048">
        <ele>341.6</ele>
        <time>2024-03-31T22:13:38.083Z</time>
      </trkpt>
      <trkpt lat="48.36164" lon="6.81065">
        <ele>341.2</ele>
        <time>2024-03-31T22:13:38.970Z</time>
      </trkpt>
      <trkpt lat="48.36174" lon="6.81082">
        <ele>341</ele>
        <time>2024-03-31T22:13:39.860Z</time>
      </trkpt>
      <trkpt lat="48.36187" lon="6.81099">
        <ele>340.4</ele>
        <time>2024-03-31T22:13:40.755Z</time>
      </trkpt>
      <trkpt lat="48.36201" lon="6.81119">
        <ele>340.2</ele>
        <time>2024-03-31T22:13:41.655Z</time>
      </trkpt>
      <trkpt lat="48.36204" lon="6.81123">
        <ele>340.2</ele>
        <time>2024-03-31T22:13:42.556Z</time>
      </trkpt>
      <trkpt lat="48.36214" lon="6.81145">
        <ele>340.2</ele>
        <time>2024-03-31T22:13:43.461Z</time>
      </trkpt>
      <trkpt lat="48.36222" lon="6.81176">
        <ele>340.6</ele>
        <time>2024-03-31T22:13:44.372Z</time>
      </trkpt>
      <trkpt lat="48.36221" lon="6.81211">
        <ele>340.6</ele>
        <time>2024-03-31T22:13:45.289Z</time>
      </trkpt>
      <trkpt lat="48.3622" lon="6.81225">
        <ele>340.6</ele>
        <time>2024-03-31T22:13:46.208Z</time>
      </trkpt>
      <trkpt lat="48.36221" lon="6.81243">
        <ele>340.8</ele>
        <time>2024-03-31T22:13:47.130Z</time>
      </trkpt>
      <trkpt lat="48.36217" lon="6.81286">
        <ele>341.2</ele>
        <time>2024-03-31T22:13:48.060Z</time>
      </trkpt>
      <trkpt lat="48.36212" lon="6.81312">
        <ele>340.8</ele>
        <time>2024-03-31T22:13:48.994Z</time>
      </trkpt>
      <trkpt lat="48.36211" lon="6.81326">
        <ele>340.8</ele>
        <time>2024-03-31T22:13:49.931Z</time>
      </trkpt>
      <trkpt lat="48.36208" lon="6.81345">
        <ele>340.6</ele>
        <time>2024-03-31T22:13:50.871Z</time>
      </trkpt>
      <trkpt lat="48.36204" lon="6.81375">
        <ele>340.4</ele>
        <time>2024-03-31T22:13:51.816Z</time>
      </trkpt>
      <trkpt lat="48.36203" lon="6.81383">
        <ele>340.4</ele>
        <time>2024-03-31T22:13:52.763Z</time>
      </trkpt>
      <trkpt lat="48.36197" lon="6.81415">
        <ele>340</ele>
        <time>2024-03-31T22:13:53.715Z</time>
      </trkpt>
      <trkpt lat="48.36195" lon="6.81423">
        <ele>340</ele>
        <time>2024-03-31T22:13:54.669Z</time>
      </trkpt>
      <trkpt lat="48.36191" lon="6.81456">
        <ele>339.8</ele>
        <time>2024-03-31T22:13:55.628Z</time>
      </trkpt>
      <trkpt lat="48.36186" lon="6.81518">
        <ele>339.4</ele>
        <time>2024-03-31T22:13:56.598Z</time>
      </trkpt>
      <trkpt lat="48.36178" lon="6.81568">
        <ele>339.2</ele>
        <time>2024-03-31T22:13:57.577Z</time>
      </trkpt>
      <trkpt lat="48.36176" lon="6.81586">
        <ele>339</ele>
        <time>2024-03-31T22:13:58.559Z</time>
      </trkpt>
      <trkpt lat="48.36175" lon="6.81594">
        <ele>339</ele>
        <time>2024-03-31T22:13:59.542Z</time>
      </trkpt>
      <trkpt lat="48.36173" lon="6.81612">
        <ele>338.8</ele>
        <time>2024-03-31T22:14:00.528Z</time>
      </trkpt>
      <trkpt lat="48.36163" lon="6.81664">
        <ele>338.6</ele>
        <time>2024-03-31T22:14:01.523Z</time>
      </trkpt>
      <trkpt lat="48.36159" lon="6.81713">
        <ele>338</ele>
        <time>2024-03-31T22:14:02.527Z</time>
      </trkpt>
      <trkpt lat="48.36162" lon="6.81722">
        <ele>337.8</ele>
        <time>2024-03-31T22:14:03.532Z</time>
      </trkpt>
      <trkpt lat="48.36166" lon="6.81729">
        <ele>337.8</ele>
        <time>2024-03-31T22:14:04.539Z</time>
      </trkpt>
      <trkpt lat="48.36173" lon="6.81741">
        <ele>337.8</ele>
        <time>2024-03-31T22:14:05.549Z</time>
      </trkpt>
      <trkpt lat="48.36176" lon="6.81749">
        <ele>337.8</ele>
        <time>2024-03-31T22:14:06.560Z</time>
      </trkpt>
      <trkpt lat="48.36179" lon="6.81765">
        <ele>337.8</ele>
        <time>2024-03-31T22:14:07.574Z</time>
      </trkpt>
      <trkpt lat="48.36181" lon="6.8178">
        <ele>337.8</ele>
        <time>2024-03-31T22:14:08.591Z</time>
      </trkpt>
      <trkpt lat="48.36188" lon="6.81811">
        <ele>338.4</ele>
        <time>2024-03-31T22:14:09.613Z</time>
      </trkpt>
      <trkpt lat="48.3619" lon="6.81818">
        <ele>338.4</ele>
        <time>2024-03-31T22:14:10.636Z</time>
      </trkpt>
      <trkpt lat="48.36192" lon="6.81825">
        <ele>338.6</ele>
        <time>2024-03-31T22:14:11.661Z</time>
      </trkpt>
      <trkpt lat="48.36197" lon="6.81837">
        <ele>338.6</ele>
        <time>2024-03-31T22:14:12.688Z</time>
      </trkpt>
      <trkpt lat="48.36204" lon="6.8185">
        <ele>338.8</ele>
        <time>2024-03-31T22:14:13.718Z</time>
      </trkpt>
      <trkpt lat="48.3622" lon="6.81884">
        <ele>339</ele>
        <time>2024-03-31T22:14:14.755Z</time>
      </trkpt>
      <trkpt lat="48.36223" lon="6.81889">
        <ele>339</ele>
        <time>2024-03-31T22:14:15.793Z</time>
      </trkpt>
      <trkpt lat="48.36252" lon="6.8192">
        <ele>340</ele>
        <time>2024-03-31T22:14:16.840Z</time>
      </trkpt>
      <trkpt lat="48.36257" lon="6.81925">
        <ele>340</ele>
        <time>2024-03-31T22:14:17.889Z</time>
      </trkpt>
      <trkpt lat="48.36261" lon="6.8193">
        <ele>340.2</ele>
        <time>2024-03-31T22:14:18.939Z</time>
      </trkpt>
      <trkpt lat="48.36275" lon="6.81949">
        <ele>340</ele>
        <time>2024-03-31T22:14:19.994Z</time>
      </trkpt>
      <trkpt lat="48.36284" lon="6.81962">
        <ele>339.6</ele>
        <time>2024-03-31T22:14:21.052Z</time>
      </trkpt>
      <trkpt lat="48.36294" lon="6.8198">
        <ele>339.4</ele>
        <time>2024-03-31T22:14:22.114Z</time>
      </trkpt>
      <trkpt lat="48.3631" lon="6.81997">
        <ele>339.6</ele>
        <time>2024-03-31T22:14:23.181Z</time>
      </trkpt>
      <trkpt lat="48.36326" lon="6.82014">
        <ele>340.2</ele>
        <time>2024-03-31T22:14:24.253Z</time>
      </trkpt>
      <trkpt lat="48.36336" lon="6.82024">
        <ele>341</ele>
        <time>2024-03-31T22:14:25.328Z</time>
      </trkpt>
      <trkpt lat="48.36346" lon="6.82035">
        <ele>342.2</ele>
        <time>2024-03-31T22:14:26.406Z</time>
      </trkpt>
      <trkpt lat="48.3635" lon="6.82039">
        <ele>342.4</ele>
        <time>2024-03-31T22:14:27.485Z</time>
      </trkpt>
      <trkpt lat="48.36376" lon="6.82063">
        <ele>342.6</ele>
        <time>2024-03-31T22:14:28.572Z</time>
      </trkpt>
      <trkpt lat="48.36398" lon="6.82088">
        <ele>341</ele>
        <time>2024-03-31T22:14:29.666Z</time>
      </trkpt>
      <trkpt lat="48.36404" lon="6.82095">
        <ele>341</ele>
        <time>2024-03-31T22:14:30.762Z</time>
      </trkpt>
      <trkpt lat="48.36414" lon="6.82107">
        <ele>339.6</ele>
        <time>2024-03-31T22:14:31.861Z</time>
      </trkpt>
      <trkpt lat="48.36426" lon="6.82122">
        <ele>338.6</ele>
        <time>2024-03-31T22:14:32.964Z</time>
      </trkpt>
      <trkpt lat="48.36436" lon="6.82134">
        <ele>338.2</ele>
        <time>2024-03-31T22:14:34.071Z</time>
      </trkpt>
      <trkpt lat="48.36441" lon="6.8214">
        <ele>337.6</ele>
        <time>2024-03-31T22:14:35.179Z</time>
      </trkpt>
      <trkpt lat="48.36446" lon="6.82148">
        <ele>337.4</ele>
        <time>2024-03-31T22:14:36.289Z</time>
      </trkpt>
      <trkpt lat="48.36449" lon="6.82156">
        <ele>337.2</ele>
        <time>2024-03-31T22:14:37.401Z</time>
      </trkpt>
      <trkpt lat="48.3645" lon="6.82165">
        <ele>336.8</ele>
        <time>2024-03-31T22:14:38.514Z</time>
      </trkpt>
      <trkpt lat="48.3645" lon="6.82176">
        <ele>336.6</ele>
        <time>2024-03-31T22:14:39.629Z</time>
      </trkpt>
      <trkpt lat="48.3645" lon="6.82183">
        <ele>336.4</ele>
        <time>2024-03-31T22:14:40.745Z</time>
      </trkpt>
      <trkpt lat="48.36447" lon="6.8221">
        <ele>336.4</ele>
        <time>2024-03-31T22:14:41.866Z</time>
      </trkpt>
      <trkpt lat="48.36446" lon="6.8222">
        <ele>336.4</ele>
        <time>2024-03-31T22:14:42.989Z</time>
      </trkpt>
      <trkpt lat="48.36445" lon="6.82254">
        <ele>336.6</ele>
        <time>2024-03-31T22:14:44.117Z</time>
      </trkpt>
      <trkpt lat="48.36445" lon="6.82271">
        <ele>336.6</ele>
        <time>2024-03-31T22:14:45.248Z</time>
      </trkpt>
      <trkpt lat="48.36441" lon="6.82287">
        <ele>336.6</ele>
        <time>2024-03-31T22:14:46.382Z</time>
      </trkpt>
      <trkpt lat="48.36426" lon="6.82318">
        <ele>336.4</ele>
        <time>2024-03-31T22:14:47.522Z</time>
      </trkpt>
      <trkpt lat="48.36423" lon="6.82326">
        <ele>336.4</ele>
        <time>2024-03-31T22:14:48.664Z</time>
      </trkpt>
      <trkpt lat="48.36421" lon="6.82334">
        <ele>336.4</ele>
        <time>2024-03-31T22:14:49.808Z</time>
      </trkpt>
      <trkpt lat="48.36417" lon="6.82361">
        <ele>336.4</ele>
        <time>2024-03-31T22:14:50.956Z</time>
      </trkpt>
      <trkpt lat="48.36414" lon="6.824">
        <ele>336.4</ele>
        <time>2024-03-31T22:14:52.111Z</time>
      </trkpt>
      <trkpt lat="48.36413" lon="6.82415">
        <ele>336.2</ele>
        <time>2024-03-31T22:14:53.268Z</time>
      </trkpt>
      <trkpt lat="48.36411" lon="6.82429">
        <ele>336</ele>
        <time>2024-03-31T22:14:54.428Z</time>
      </trkpt>
      <trkpt lat="48.36411" lon="6.82441">
        <ele>336</ele>
        <time>2024-03-31T22:14:55.590Z</time>
      </trkpt>
      <trkpt lat="48.36412" lon="6.82463">
        <ele>336</ele>
        <time>2024-03-31T22:14:56.756Z</time>
      </trkpt>
      <trkpt lat="48.36412" lon="6.82474">
        <ele>336</ele>
        <time>2024-03-31T22:14:57.924Z</time>
      </trkpt>
      <trkpt lat="48.36413" lon="6.82496">
        <ele>336.2</ele>
        <time>2024-03-31T22:14:59.095Z</time>
      </trkpt>
      <trkpt lat="48.36414" lon="6.82522">
        <ele>337.2</ele>
        <time>2024-03-31T22:15:00.271Z</time>
      </trkpt>
      <trkpt lat="48.36414" lon="6.82528">
        <ele>337.4</ele>
        <time>2024-03-31T22:15:01.448Z</time>
      </trkpt>
      <trkpt lat="48.36415" lon="6.82554">
        <ele>337.6</ele>
        <time>2024-03-31T22:15:02.629Z</time>
      </trkpt>
      <trkpt lat="48.36417" lon="6.8258">
        <ele>338.4</ele>
        <time>2024-03-31T22:15:03.815Z</time>
      </trkpt>
      <trkpt lat="48.36419" lon="6.82596">
        <ele>338.6</ele>
        <time>2024-03-31T22:15:05.003Z</time>
      </trkpt>
      <trkpt lat="48.36421" lon="6.82637">
        <ele>338.8</ele>
        <time>2024-03-31T22:15:06.198Z</time>
      </trkpt>
      <trkpt lat="48.36424" lon="6.82678">
        <ele>338.8</ele>
        <time>2024-03-31T22:15:07.400Z</time>
      </trkpt>
      <trkpt lat="48.36426" lon="6.8272">
        <ele>338.6</ele>
        <time>2024-03-31T22:15:08.609Z</time>
      </trkpt>
      <trkpt lat="48.36427" lon="6.82731">
        <ele>338.6</ele>
        <time>2024-03-31T22:15:09.820Z</time>
      </trkpt>
      <trkpt lat="48.36431" lon="6.8275">
        <ele>338.2</ele>
        <time>2024-03-31T22:15:11.035Z</time>
      </trkpt>
      <trkpt lat="48.36434" lon="6.8277">
        <ele>338</ele>
        <time>2024-03-31T22:15:12.253Z</time>
      </trkpt>
      <trkpt lat="48.36433" lon="6.82781">
        <ele>337.6</ele>
        <time>2024-03-31T22:15:13.473Z</time>
      </trkpt>
      <trkpt lat="48.36435" lon="6.82806">
        <ele>337.2</ele>
        <time>2024-03-31T22:15:14.697Z</time>
      </trkpt>
      <trkpt lat="48.36437" lon="6.82838">
        <ele>336.8</ele>
        <time>2024-03-31T22:15:15.927Z</time>
      </trkpt>
      <trkpt lat="48.36439" lon="6.82855">
        <ele>336.6</ele>
        <time>2024-03-31T22:15:17.160Z</time>
      </trkpt>
      <trkpt lat="48.36441" lon="6.82872">
        <ele>336.4</ele>
        <time>2024-03-31T22:15:18.395Z</time>
      </trkpt>
      <trkpt lat="48.36442" lon="6.82887">
        <ele>336.4</ele>
        <time>2024-03-31T22:15:19.633Z</time>
      </trkpt>
      <trkpt lat="48.36443" lon="6.82905">
        <ele>336.2</ele>
        <time>2024-03-31T22:15:20.874Z</time>
      </trkpt>
      <trkpt lat="48.36448" lon="6.82961">
        <ele>335.6</ele>
        <time>2024-03-31T22:15:22.125Z</time>
      </trkpt>
      <trkpt lat="48.36449" lon="6.82987">
        <ele>335.6</ele>
        <time>2024-03-31T22:15:23.380Z</time>
      </trkpt>
      <trkpt lat="48.36451" lon="6.83">
        <ele>335.6</ele>
        <time>2024-03-31T22:15:24.637Z</time>
      </trkpt>
      <trkpt lat="48.36456" lon="6.83011">
        <ele>335.8</ele>
        <time>2024-03-31T22:15:25.896Z</time>
      </trkpt>
      <trkpt lat="48.3646" lon="6.83021">
        <ele>336</ele>
        <time>2024-03-31T22:15:27.158Z</time>
      </trkpt>
      <trkpt lat="48.36467" lon="6.83047">
        <ele>337.2</ele>
        <time>2024-03-31T22:15:28.424Z</time>
      </trkpt>
      <trkpt lat="48.3647" lon="6.83055">
        <ele>337.6</ele>
        <time>2024-03-31T22:15:29.692Z</time>
      </trkpt>
      <trkpt lat="48.36475" lon="6.8307">
        <ele>338.2</ele>
        <time>2024-03-31T22:15:30.963Z</time>
      </trkpt>
      <trkpt lat="48.36479" lon="6.83084">
        <ele>339</ele>
        <time>2024-03-31T22:15:32.236Z</time>
      </trkpt>
      <trkpt lat="48.3648" lon="6.83091">
        <ele>339.4</ele>
        <time>2024-03-31T22:15:33.510Z</time>
      </trkpt>
      <trkpt lat="48.36484" lon="6.83111">
        <ele>340.8</ele>
        <time>2024-03-31T22:15:34.788Z</time>
      </trkpt>
      <trkpt lat="48.36491" lon="6.83146">
        <ele>341.8</ele>
        <time>2024-03-31T22:15:36.072Z</time>
      </trkpt>
      <trkpt lat="48.36492" lon="6.83151">
        <ele>342</ele>
        <time>2024-03-31T22:15:37.357Z</time>
      </trkpt>
      <trkpt lat="48.36494" lon="6.8318">
        <ele>342.6</ele>
        <time>2024-03-31T22:15:38.647Z</time>
      </trkpt>
      <trkpt lat="48.36492" lon="6.83194">
        <ele>343</ele>
        <time>2024-03-31T22:15:39.939Z</time>
      </trkpt>
      <trkpt lat="48.36487" lon="6.83223">
        <ele>343.2</ele>
        <time>2024-03-31T22:15:41.237Z</time>
      </trkpt>
      <trkpt lat="48.36478" lon="6.83287">
        <ele>343.8</ele>
        <time>2024-03-31T22:15:42.546Z</time>
      </trkpt>
      <trkpt lat="48.36476" lon="6.83318">
        <ele>343.2</ele>
        <time>2024-03-31T22:15:43.860Z</time>
      </trkpt>
      <trkpt lat="48.36474" lon="6.83339">
        <ele>343.2</ele>
        <time>2024-03-31T22:15:45.177Z</time>
      </trkpt>
      <trkpt lat="48.3647" lon="6.83366">
        <ele>343</ele>
        <time>2024-03-31T22:15:46.499Z</time>
      </trkpt>
      <trkpt lat="48.36469" lon="6.83374">
        <ele>342.8</ele>
        <time>2024-03-31T22:15:47.823Z</time>
      </trkpt>
      <trkpt lat="48.36467" lon="6.83402">
        <ele>342.4</ele>
        <time>2024-03-31T22:15:49.151Z</time>
      </trkpt>
      <trkpt lat="48.36465" lon="6.83419">
        <ele>342</ele>
        <time>2024-03-31T22:15:50.482Z</time>
      </trkpt>
      <trkpt lat="48.36464" lon="6.83427">
        <ele>341.8</ele>
        <time>2024-03-31T22:15:51.815Z</time>
      </trkpt>
      <trkpt lat="48.36462" lon="6.83444">
        <ele>341.6</ele>
        <time>2024-03-31T22:15:53.150Z</time>
      </trkpt>
      <trkpt lat="48.36466" lon="6.83459">
        <ele>341.4</ele>
        <time>2024-03-31T22:15:54.488Z</time>
      </trkpt>
      <trkpt lat="48.3648" lon="6.83473">
        <ele>341</ele>
        <time>2024-03-31T22:15:55.830Z</time>
      </trkpt>
      <trkpt lat="48.36485" lon="6.83477">
        <ele>340.8</ele>
        <time>2024-03-31T22:15:57.174Z</time>
      </trkpt>
      <trkpt lat="48.36491" lon="6.8348">
        <ele>340.6</ele>
        <time>2024-03-31T22:15:58.519Z</time>
      </trkpt>
      <trkpt lat="48.36502" lon="6.83481">
        <ele>340.4</ele>
        <time>2024-03-31T22:15:59.867Z</time>
      </trkpt>
      <trkpt lat="48.36508" lon="6.83479">
        <ele>340.2</ele>
        <time>2024-03-31T22:16:01.217Z</time>
      </trkpt>
      <trkpt lat="48.36513" lon="6.83476">
        <ele>340</ele>
        <time>2024-03-31T22:16:02.568Z</time>
      </trkpt>
      <trkpt lat="48.36518" lon="6.83472">
        <ele>339.8</ele>
        <time>2024-03-31T22:16:03.921Z</time>
      </trkpt>
      <trkpt lat="48.36522" lon="6.83469">
        <ele>339.6</ele>
        <time>2024-03-31T22:16:05.275Z</time>
      </trkpt>
      <trkpt lat="48.36528" lon="6.83467">
        <ele>339.6</ele>
        <time>2024-03-31T22:16:06.630Z</time>
      </trkpt>
      <trkpt lat="48.36557" lon="6.83457">
        <ele>339</ele>
        <time>2024-03-31T22:16:07.993Z</time>
      </trkpt>
      <trkpt lat="48.36563" lon="6.83457">
        <ele>338.8</ele>
        <time>2024-03-31T22:16:09.357Z</time>
      </trkpt>
      <trkpt lat="48.36569" lon="6.83458">
        <ele>338.6</ele>
        <time>2024-03-31T22:16:10.723Z</time>
      </trkpt>
      <trkpt lat="48.36581" lon="6.83462">
        <ele>338.4</ele>
        <time>2024-03-31T22:16:12.092Z</time>
      </trkpt>
      <trkpt lat="48.36587" lon="6.83466">
        <ele>338.2</ele>
        <time>2024-03-31T22:16:13.463Z</time>
      </trkpt>
      <trkpt lat="48.36594" lon="6.83471">
        <ele>337.8</ele>
        <time>2024-03-31T22:16:14.836Z</time>
      </trkpt>
      <trkpt lat="48.366" lon="6.83477">
        <ele>337.4</ele>
        <time>2024-03-31T22:16:16.211Z</time>
      </trkpt>
      <trkpt lat="48.36606" lon="6.83484">
        <ele>337.2</ele>
        <time>2024-03-31T22:16:17.588Z</time>
      </trkpt>
      <trkpt lat="48.36611" lon="6.83493">
        <ele>337</ele>
        <time>2024-03-31T22:16:18.967Z</time>
      </trkpt>
      <trkpt lat="48.36614" lon="6.83504">
        <ele>336.8</ele>
        <time>2024-03-31T22:16:20.348Z</time>
      </trkpt>
      <trkpt lat="48.36614" lon="6.83515">
        <ele>336.4</ele>
        <time>2024-03-31T22:16:21.730Z</time>
      </trkpt>
      <trkpt lat="48.36613" lon="6.83525">
        <ele>336</ele>
        <time>2024-03-31T22:16:23.114Z</time>
      </trkpt>
      <trkpt lat="48.36604" lon="6.83552">
        <ele>335.6</ele>
        <time>2024-03-31T22:16:24.503Z</time>
      </trkpt>
      <trkpt lat="48.36596" lon="6.83566">
        <ele>335.4</ele>
        <time>2024-03-31T22:16:25.895Z</time>
      </trkpt>
      <trkpt lat="48.36593" lon="6.83573">
        <ele>335.2</ele>
        <time>2024-03-31T22:16:27.289Z</time>
      </trkpt>
      <trkpt lat="48.36588" lon="6.83588">
        <ele>335.2</ele>
        <time>2024-03-31T22:16:28.686Z</time>
      </trkpt>
      <trkpt lat="48.36577" lon="6.83623">
        <ele>335.2</ele>
        <time>2024-03-31T22:16:30.089Z</time>
      </trkpt>
      <trkpt lat="48.36573" lon="6.83635">
        <ele>335</ele>
        <time>2024-03-31T22:16:31.494Z</time>
      </trkpt>
      <trkpt lat="48.36569" lon="6.83654">
        <ele>334.8</ele>
        <time>2024-03-31T22:16:32.903Z</time>
      </trkpt>
      <trkpt lat="48.36566" lon="6.83681">
        <ele>334.8</ele>
        <time>2024-03-31T22:16:34.316Z</time>
      </trkpt>
      <trkpt lat="48.36566" lon="6.83693">
        <ele>335</ele>
        <time>2024-03-31T22:16:35.731Z</time>
      </trkpt>
      <trkpt lat="48.36568" lon="6.83705">
        <ele>335</ele>
        <time>2024-03-31T22:16:37.149Z</time>
      </trkpt>
      <trkpt lat="48.36573" lon="6.83717">
        <ele>335.4</ele>
        <time>2024-03-31T22:16:38.569Z</time>
      </trkpt>
      <trkpt lat="48.36578" lon="6.83728">
        <ele>335.4</ele>
        <time>2024-03-31T22:16:39.991Z</time>
      </trkpt>
      <trkpt lat="48.36586" lon="6.83743">
        <ele>335.8</ele>
        <time>2024-03-31T22:16:41.417Z</time>
      </trkpt>
      <trkpt lat="48.36589" lon="6.83749">
        <ele>335.8</ele>
        <time>2024-03-31T22:16:42.844Z</time>
      </trkpt>
      <trkpt lat="48.36594" lon="6.83757">
        <ele>335.8</ele>
        <time>2024-03-31T22:16:44.273Z</time>
      </trkpt>
      <trkpt lat="48.36597" lon="6.83761">
        <ele>335.8</ele>
        <time>2024-03-31T22:16:45.703Z</time>
      </trkpt>
      <trkpt lat="48.36616" lon="6.83782">
        <ele>336.2</ele>
        <time>2024-03-31T22:16:47.139Z</time>
      </trkpt>
      <trkpt lat="48.36628" lon="6.83792">
        <ele>336.2</ele>
        <time>2024-03-31T22:16:48.578Z</time>
      </trkpt>
      <trkpt lat="48.36632" lon="6.83794">
        <ele>336.2</ele>
        <time>2024-03-31T22:16:50.018Z</time>
      </trkpt>
      <trkpt lat="48.3664" lon="6.83796">
        <ele>336.4</ele>
        <time>2024-03-31T22:16:51.460Z</time>
      </trkpt>
      <trkpt lat="48.36648" lon="6.83798">
        <ele>336.4</ele>
        <time>2024-03-31T22:16:52.904Z</time>
      </trkpt>
      <trkpt lat="48.36673" lon="6.83791">
        <ele>336.6</ele>
        <time>2024-03-31T22:16:54.355Z</time>
      </trkpt>
      <trkpt lat="48.36681" lon="6.83787">
        <ele>336.8</ele>
        <time>2024-03-31T22:16:55.808Z</time>
      </trkpt>
      <trkpt lat="48.36697" lon="6.8378">
        <ele>337</ele>
        <time>2024-03-31T22:16:57.265Z</time>
      </trkpt>
      <trkpt lat="48.36724" lon="6.83764">
        <ele>337.4</ele>
        <time>2024-03-31T22:16:58.729Z</time>
      </trkpt>
      <trkpt lat="48.36728" lon="6.83761">
        <ele>337.4</ele>
        <time>2024-03-31T22:17:00.195Z</time>
      </trkpt>
      <trkpt lat="48.36732" lon="6.83758">
        <ele>337.6</ele>
        <time>2024-03-31T22:17:01.662Z</time>
      </trkpt>
      <trkpt lat="48.3675" lon="6.8375">
        <ele>338</ele>
        <time>2024-03-31T22:17:03.133Z</time>
      </trkpt>
      <trkpt lat="48.36758" lon="6.83749">
        <ele>338.2</ele>
        <time>2024-03-31T22:17:04.607Z</time>
      </trkpt>
      <trkpt lat="48.36763" lon="6.8375">
        <ele>338.4</ele>
        <time>2024-03-31T22:17:06.082Z</time>
      </trkpt>
      <trkpt lat="48.36767" lon="6.83751">
        <ele>338.6</ele>
        <time>2024-03-31T22:17:07.558Z</time>
      </trkpt>
      <trkpt lat="48.36772" lon="6.83753">
        <ele>338.8</ele>
        <time>2024-03-31T22:17:09.035Z</time>
      </trkpt>
      <trkpt lat="48.36811" lon="6.83774">
        <ele>339.4</ele>
        <time>2024-03-31T22:17:10.523Z</time>
      </trkpt>
      <trkpt lat="48.36833" lon="6.83787">
        <ele>339.2</ele>
        <time>2024-03-31T22:17:12.017Z</time>
      </trkpt>
      <trkpt lat="48.36836" lon="6.83791">
        <ele>339.2</ele>
        <time>2024-03-31T22:17:13.512Z</time>
      </trkpt>
      <trkpt lat="48.36838" lon="6.83803">
        <ele>339</ele>
        <time>2024-03-31T22:17:15.009Z</time>
      </trkpt>
      <trkpt lat="48.36837" lon="6.83812">
        <ele>338.8</ele>
        <time>2024-03-31T22:17:16.507Z</time>
      </trkpt>
      <trkpt lat="48.36837" lon="6.83849">
        <ele>338</ele>
        <time>2024-03-31T22:17:18.012Z</time>
      </trkpt>
      <trkpt lat="48.36838" lon="6.83859">
        <ele>337.6</ele>
        <time>2024-03-31T22:17:19.518Z</time>
      </trkpt>
      <trkpt lat="48.36842" lon="6.83877">
        <ele>337.2</ele>
        <time>2024-03-31T22:17:21.028Z</time>
      </trkpt>
      <trkpt lat="48.36845" lon="6.83905">
        <ele>336.4</ele>
        <time>2024-03-31T22:17:22.542Z</time>
      </trkpt>
      <trkpt lat="48.36845" lon="6.83912">
        <ele>335.8</ele>
        <time>2024-03-31T22:17:24.058Z</time>
      </trkpt>
      <trkpt lat="48.36843" lon="6.8392">
        <ele>335.4</ele>
        <time>2024-03-31T22:17:25.575Z</time>
      </trkpt>
      <trkpt lat="48.36835" lon="6.83934">
        <ele>334.8</ele>
        <time>2024-03-31T22:17:27.095Z</time>
      </trkpt>
      <trkpt lat="48.36831" lon="6.83939">
        <ele>334.8</ele>
        <time>2024-03-31T22:17:28.616Z</time>
      </trkpt>
      <trkpt lat="48.36816" lon="6.83954">
        <ele>334.6</ele>
        <time>2024-03-31T22:17:30.142Z</time>
      </trkpt>
      <trkpt lat="48.36781" lon="6.83992">
        <ele>334.8</ele>
        <time>2024-03-31T22:17:31.679Z</time>
      </trkpt>
      <trkpt lat="48.36769" lon="6.84018">
        <ele>335.2</ele>
        <time>2024-03-31T22:17:33.221Z</time>
      </trkpt>
      <trkpt lat="48.36767" lon="6.84025">
        <ele>335.4</ele>
        <time>2024-03-31T22:17:34.765Z</time>
      </trkpt>
      <trkpt lat="48.36763" lon="6.84039">
        <ele>335.8</ele>
        <time>2024-03-31T22:17:36.311Z</time>
      </trkpt>
      <trkpt lat="48.36762" lon="6.84045">
        <ele>335.8</ele>
        <time>2024-03-31T22:17:37.858Z</time>
      </trkpt>
      <trkpt lat="48.36762" lon="6.84053">
        <ele>335.8</ele>
        <time>2024-03-31T22:17:39.407Z</time>
      </trkpt>
      <trkpt lat="48.36761" lon="6.84059">
        <ele>336</ele>
        <time>2024-03-31T22:17:40.957Z</time>
      </trkpt>
      <trkpt lat="48.36761" lon="6.84067">
        <ele>336</ele>
        <time>2024-03-31T22:17:42.508Z</time>
      </trkpt>
      <trkpt lat="48.36762" lon="6.84083">
        <ele>336.4</ele>
        <time>2024-03-31T22:17:44.062Z</time>
      </trkpt>
      <trkpt lat="48.36767" lon="6.84092">
        <ele>337</ele>
        <time>2024-03-31T22:17:45.618Z</time>
      </trkpt>
      <trkpt lat="48.3677" lon="6.84095">
        <ele>337.4</ele>
        <time>2024-03-31T22:17:47.175Z</time>
      </trkpt>
      <trkpt lat="48.3678" lon="6.84089">
        <ele>338</ele>
        <time>2024-03-31T22:17:48.734Z</time>
      </trkpt>
      <trkpt lat="48.36784" lon="6.84087">
        <ele>338.6</ele>
        <time>2024-03-31T22:17:50.295Z</time>
      </trkpt>
      <trkpt lat="48.36795" lon="6.84086">
        <ele>339.2</ele>
        <time>2024-03-31T22:17:51.858Z</time>
      </trkpt>
      <trkpt lat="48.36799" lon="6.84089">
        <ele>339.4</ele>
        <time>2024-03-31T22:17:53.422Z</time>
      </trkpt>
      <trkpt lat="48.36802" lon="6.84095">
        <ele>339.8</ele>
        <time>2024-03-31T22:17:54.988Z</time>
      </trkpt>
      <trkpt lat="48.36806" lon="6.8411">
        <ele>340</ele>
        <time>2024-03-31T22:17:56.556Z</time>
      </trkpt>
      <trkpt lat="48.36808" lon="6.84117">
        <ele>340.4</ele>
        <time>2024-03-31T22:17:58.126Z</time>
      </trkpt>
      <trkpt lat="48.36811" lon="6.84129">
        <ele>341</ele>
        <time>2024-03-31T22:17:59.698Z</time>
      </trkpt>
      <trkpt lat="48.36818" lon="6.84149">
        <ele>341.8</ele>
        <time>2024-03-31T22:18:01.274Z</time>
      </trkpt>
      <trkpt lat="48.36821" lon="6.84155">
        <ele>342</ele>
        <time>2024-03-31T22:18:02.851Z</time>
      </trkpt>
      <trkpt lat="48.36831" lon="6.84178">
        <ele>343.2</ele>
        <time>2024-03-31T22:18:04.433Z</time>
      </trkpt>
      <trkpt lat="48.36834" lon="6.84184">
        <ele>343.6</ele>
        <time>2024-03-31T22:18:06.016Z</time>
      </trkpt>
      <trkpt lat="48.36838" lon="6.84195">
        <ele>344</ele>
        <time>2024-03-31T22:18:07.601Z</time>
      </trkpt>
      <trkpt lat="48.36843" lon="6.84207">
        <ele>344.2</ele>
        <time>2024-03-31T22:18:09.188Z</time>
      </trkpt>
      <trkpt lat="48.36855" lon="6.84227">
        <ele>345.2</ele>
        <time>2024-03-31T22:18:10.780Z</time>
      </trkpt>
      <trkpt lat="48.36859" lon="6.84231">
        <ele>345.2</ele>
        <time>2024-03-31T22:18:12.373Z</time>
      </trkpt>
      <trkpt lat="48.36862" lon="6.84234">
        <ele>345.4</ele>
        <time>2024-03-31T22:18:13.967Z</time>
      </trkpt>
      <trkpt lat="48.36871" lon="6.84236">
        <ele>345.6</ele>
        <time>2024-03-31T22:18:15.563Z</time>
      </trkpt>
      <trkpt lat="48.36874" lon="6.84236">
        <ele>345.6</ele>
        <time>2024-03-31T22:18:17.160Z</time>
      </trkpt>
      <trkpt lat="48.36891" lon="6.84231">
        <ele>346.4</ele>
        <time>2024-03-31T22:18:18.761Z</time>
      </trkpt>
      <trkpt lat="48.36894" lon="6.84231">
        <ele>346.8</ele>
        <time>2024-03-31T22:18:20.363Z</time>
      </trkpt>
      <trkpt lat="48.36903" lon="6.84231">
        <ele>347.6</ele>
        <time>2024-03-31T22:18:21.968Z</time>
      </trkpt>
      <trkpt lat="48.36914" lon="6.84231">
        <ele>348.4</ele>
        <time>2024-03-31T22:18:23.575Z</time>
      </trkpt>
      <trkpt lat="48.3692" lon="6.8423">
        <ele>348.6</ele>
        <time>2024-03-31T22:18:25.184Z</time>
      </trkpt>
      <trkpt lat="48.36923" lon="6.8423">
        <ele>348.8</ele>
        <time>2024-03-31T22:18:26.794Z</time>
      </trkpt>
      <trkpt lat="48.36928" lon="6.84232">
        <ele>349</ele>
        <time>2024-03-31T22:18:28.405Z</time>
      </trkpt>
      <trkpt lat="48.36939" lon="6.84229">
        <ele>349.8</ele>
        <time>2024-03-31T22:18:30.019Z</time>
      </trkpt>
      <trkpt lat="48.3695" lon="6.84227">
        <ele>350.2</ele>
        <time>2024-03-31T22:18:31.636Z</time>
      </trkpt>
      <trkpt lat="48.36959" lon="6.84228">
        <ele>350.8</ele>
        <time>2024-03-31T22:18:33.255Z</time>
      </trkpt>
      <trkpt lat="48.3697" lon="6.84228">
        <ele>351.6</ele>
        <time>2024-03-31T22:18:34.877Z</time>
      </trkpt>
      <trkpt lat="48.36978" lon="6.84226">
        <ele>352.4</ele>
        <time>2024-03-31T22:18:36.501Z</time>
      </trkpt>
      <trkpt lat="48.36999" lon="6.84223">
        <ele>353.6</ele>
        <time>2024-03-31T22:18:38.130Z</time>
      </trkpt>
      <trkpt lat="48.37002" lon="6.84223">
        <ele>354</ele>
        <time>2024-03-31T22:18:39.760Z</time>
      </trkpt>
      <trkpt lat="48.37012" lon="6.84224">
        <ele>354.6</ele>
        <time>2024-03-31T22:18:41.392Z</time>
      </trkpt>
      <trkpt lat="48.3702" lon="6.84226">
        <ele>355.6</ele>
        <time>2024-03-31T22:18:43.027Z</time>
      </trkpt>
      <trkpt lat="48.37029" lon="6.84228">
        <ele>356.6</ele>
        <time>2024-03-31T22:18:44.664Z</time>
      </trkpt>
      <trkpt lat="48.37038" lon="6.8423">
        <ele>357.8</ele>
        <time>2024-03-31T22:18:46.303Z</time>
      </trkpt>
      <trkpt lat="48.37051" lon="6.84235">
        <ele>359</ele>
        <time>2024-03-31T22:18:47.945Z</time>
      </trkpt>
      <trkpt lat="48.37062" lon="6.84237">
        <ele>360.4</ele>
        <time>2024-03-31T22:18:49.590Z</time>
      </trkpt>
      <trkpt lat="48.37076" lon="6.8424">
        <ele>361.6</ele>
        <time>2024-03-31T22:18:51.239Z</time>
      </trkpt>
      <trkpt lat="48.37089" lon="6.84244">
        <ele>362.8</ele>
        <time>2024-03-31T22:18:52.891Z</time>
      </trkpt>
      <trkpt lat="48.37094" lon="6.84248">
        <ele>363.6</ele>
        <time>2024-03-31T22:18:54.545Z</time>
      </trkpt>
      <trkpt lat="48.37097" lon="6.84249">
        <ele>364.2</ele>
        <time>2024-03-31T22:18:56.199Z</time>
      </trkpt>
      <trkpt lat="48.37107" lon="6.84255">
        <ele>365.2</ele>
        <time>2024-03-31T22:18:57.856Z</time>
      </trkpt>
      <trkpt lat="48.37115" lon="6.8426">
        <ele>366.2</ele>
        <time>2024-03-31T22:18:59.515Z</time>
      </trkpt>
      <trkpt lat="48.37133" lon="6.84273">
        <ele>367.6</ele>
        <time>2024-03-31T22:19:01.179Z</time>
      </trkpt>
      <trkpt lat="48.37147" lon="6.84275">
        <ele>369.2</ele>
        <time>2024-03-31T22:19:02.847Z</time>
      </trkpt>
      <trkpt lat="48.37154" lon="6.84278">
        <ele>370.4</ele>
        <time>2024-03-31T22:19:04.517Z</time>
      </trkpt>
      <trkpt lat="48.3716" lon="6.8428">
        <ele>371.4</ele>
        <time>2024-03-31T22:19:06.188Z</time>
      </trkpt>
      <trkpt lat="48.37166" lon="6.84284">
        <ele>372.6</ele>
        <time>2024-03-31T22:19:07.861Z</time>
      </trkpt>
      <trkpt lat="48.37168" lon="6.84285">
        <ele>372.8</ele>
        <time>2024-03-31T22:19:09.535Z</time>
      </trkpt>
      <trkpt lat="48.3717" lon="6.84288">
        <ele>373.8</ele>
        <time>2024-03-31T22:19:11.210Z</time>
      </trkpt>
      <trkpt lat="48.37172" lon="6.8429">
        <ele>374.4</ele>
        <time>2024-03-31T22:19:12.885Z</time>
      </trkpt>
      <trkpt lat="48.37174" lon="6.84293">
        <ele>375.2</ele>
        <time>2024-03-31T22:19:14.561Z</time>
      </trkpt>
      <trkpt lat="48.37178" lon="6.84299">
        <ele>377</ele>
        <time>2024-03-31T22:19:16.238Z</time>
      </trkpt>
      <trkpt lat="48.37181" lon="6.84303">
        <ele>377.4</ele>
        <time>2024-03-31T22:19:17.916Z</time>
      </trkpt>
      <trkpt lat="48.37184" lon="6.84307">
        <ele>378.4</ele>
        <time>2024-03-31T22:19:19.595Z</time>
      </trkpt>
      <trkpt lat="48.37188" lon="6.84311">
        <ele>378.8</ele>
        <time>2024-03-31T22:19:21.275Z</time>
      </trkpt>
      <trkpt lat="48.37192" lon="6.84315">
        <ele>379.4</ele>
        <time>2024-03-31T22:19:22.957Z</time>
      </trkpt>
      <trkpt lat="48.37195" lon="6.84317">
        <ele>379.8</ele>
        <time>2024-03-31T22:19:24.639Z</time>
      </trkpt>
      <trkpt lat="48.37198" lon="6.8432">
        <ele>380.8</ele>
        <time>2024-03-31T22:19:26.322Z</time>
      </trkpt>
      <trkpt lat="48.372" lon="6.84322">
        <ele>381</ele>
        <time>2024-03-31T22:19:28.006Z</time>
      </trkpt>
      <trkpt lat="48.37202" lon="6.84323">
        <ele>382</ele>
        <time>2024-03-31T22:19:29.690Z</time>
      </trkpt>
      <trkpt lat="48.37202" lon="6.84324">
        <ele>382.6</ele>
        <time>2024-03-31T22:19:31.375Z</time>
      </trkpt>
      <trkpt lat="48.37203" lon="6.84327">
        <ele>383</ele>
        <time>2024-03-31T22:19:33.060Z</time>
      </trkpt>
      <trkpt lat="48.37204" lon="6.84328">
        <ele>383.2</ele>
        <time>2024-03-31T22:19:34.745Z</time>
      </trkpt>
      <trkpt lat="48.37203" lon="6.8433">
        <ele>384.2</ele>
        <time>2024-03-31T22:19:36.431Z</time>
      </trkpt>
      <trkpt lat="48.37201" lon="6.84338">
        <ele>385.2</ele>
        <time>2024-03-31T22:19:38.118Z</time>
      </trkpt>
      <trkpt lat="48.37202" lon="6.84346">
        <ele>385.8</ele>
        <time>2024-03-31T22:19:39.807Z</time>
      </trkpt>
      <trkpt lat="48.37203" lon="6.84351">
        <ele>386.2</ele>
        <time>2024-03-31T22:19:41.497Z</time>
      </trkpt>
      <trkpt lat="48.37205" lon="6.84354">
        <ele>386.4</ele>
        <time>2024-03-31T22:19:43.187Z</time>
      </trkpt>
      <trkpt lat="48.37208" lon="6.84361">
        <ele>387</ele>
        <time>2024-03-31T22:19:44.879Z</time>
      </trkpt>
      <trkpt lat="48.3721" lon="6.84363">
        <ele>387.4</ele>
        <time>2024-03-31T22:19:46.571Z</time>
      </trkpt>
      <trkpt lat="48.37212" lon="6.84369">
        <ele>387.8</ele>
        <time>2024-03-31T22:19:48.264Z</time>
      </trkpt>
      <trkpt lat="48.37216" lon="6.8438">
        <ele>388.6</ele>
        <time>2024-03-31T22:19:49.959Z</time>
      </trkpt>
      <trkpt lat="48.37217" lon="6.84389">
        <ele>389.6</ele>
        <time>2024-03-31T22:19:51.656Z</time>
      </trkpt>
      <trkpt lat="48.37217" lon="6.84398">
        <ele>390.6</ele>
        <time>2024-03-31T22:19:53.355Z</time>
      </trkpt>
      <trkpt lat="48.37218" lon="6.844">
        <ele>391</ele>
        <time>2024-03-31T22:19:55.054Z</time>
      </trkpt>
      <trkpt lat="48.37218" lon="6.84405">
        <ele>391.6</ele>
        <time>2024-03-31T22:19:56.754Z</time>
      </trkpt>
      <trkpt lat="48.37217" lon="6.8441">
        <ele>392.2</ele>
        <time>2024-03-31T22:19:58.455Z</time>
      </trkpt>
      <trkpt lat="48.37217" lon="6.84412">
        <ele>392.6</ele>
        <time>2024-03-31T22:20:00.156Z</time>
      </trkpt>
      <trkpt lat="48.37216" lon="6.84414">
        <ele>393.4</ele>
        <time>2024-03-31T22:20:01.857Z</time>
      </trkpt>
      <trkpt lat="48.37219" lon="6.84438">
        <ele>395.8</ele>
        <time>2024-03-31T22:20:03.563Z</time>
      </trkpt>
      <trkpt lat="48.37222" lon="6.84441">
        <ele>395.8</ele>
        <time>2024-03-31T22:20:05.269Z</time>
      </trkpt>
      <trkpt lat="48.37227" lon="6.84449">
        <ele>396.2</ele>
        <time>2024-03-31T22:20:06.977Z</time>
      </trkpt>
      <trkpt lat="48.37226" lon="6.84455">
        <ele>396.8</ele>
        <time>2024-03-31T22:20:08.686Z</time>
      </trkpt>
      <trkpt lat="48.37226" lon="6.84458">
        <ele>397.2</ele>
        <time>2024-03-31T22:20:10.396Z</time>
      </trkpt>
      <trkpt lat="48.37226" lon="6.84461">
        <ele>397.6</ele>
        <time>2024-03-31T22:20:12.106Z</time>
      </trkpt>
      <trkpt lat="48.37226" lon="6.84464">
        <ele>397.8</ele>
        <time>2024-03-31T22:20:13.817Z</time>
      </trkpt>
      <trkpt lat="48.37227" lon="6.84468">
        <ele>398.2</ele>
        <time>2024-03-31T22:20:15.529Z</time>
      </trkpt>
      <trkpt lat="48.37232" lon="6.84479">
        <ele>399.2</ele>
        <time>2024-03-31T22:20:17.243Z</time>
      </trkpt>
      <trkpt lat="48.37234" lon="6.84484">
        <ele>399.6</ele>
        <time>2024-03-31T22:20:18.958Z</time>
      </trkpt>
      <trkpt lat="48.37238" lon="6.84492">
        <ele>400.2</ele>
        <time>2024-03-31T22:20:20.675Z</time>
      </trkpt>
      <trkpt lat="48.37238" lon="6.84494">
        <ele>401</ele>
        <time>2024-03-31T22:20:22.392Z</time>
      </trkpt>
      <trkpt lat="48.37239" lon="6.84502">
        <ele>401.8</ele>
        <time>2024-03-31T22:20:24.110Z</time>
      </trkpt>
      <trkpt lat="48.3724" lon="6.84507">
        <ele>402.4</ele>
        <time>2024-03-31T22:20:25.829Z</time>
      </trkpt>
      <trkpt lat="48.3724" lon="6.84516">
        <ele>403</ele>
        <time>2024-03-31T22:20:27.550Z</time>
      </trkpt>
      <trkpt lat="48.37244" lon="6.84527">
        <ele>404.4</ele>
        <time>2024-03-31T22:20:29.273Z</time>
      </trkpt>
      <trkpt lat="48.37246" lon="6.84533">
        <ele>404.8</ele>
        <time>2024-03-31T22:20:30.997Z</time>
      </trkpt>
      <trkpt lat="48.37247" lon="6.8454">
        <ele>405.4</ele>
        <time>2024-03-31T22:20:32.722Z</time>
      </trkpt>
      <trkpt lat="48.37247" lon="6.84547">
        <ele>406.6</ele>
        <time>2024-03-31T22:20:34.448Z</time>
      </trkpt>
      <trkpt lat="48.37248" lon="6.84556">
        <ele>407.8</ele>
        <time>2024-03-31T22:20:36.176Z</time>
      </trkpt>
      <trkpt lat="48.37249" lon="6.84565">
        <ele>408.8</ele>
        <time>2024-03-31T22:20:37.905Z</time>
      </trkpt>
      <trkpt lat="48.37251" lon="6.84573">
        <ele>409.4</ele>
        <time>2024-03-31T22:20:39.636Z</time>
      </trkpt>
      <trkpt lat="48.37252" lon="6.84576">
        <ele>409.8</ele>
        <time>2024-03-31T22:20:41.367Z</time>
      </trkpt>
      <trkpt lat="48.37252" lon="6.8458">
        <ele>410.2</ele>
        <time>2024-03-31T22:20:43.099Z</time>
      </trkpt>
      <trkpt lat="48.37254" lon="6.84586">
        <ele>410.8</ele>
        <time>2024-03-31T22:20:44.832Z</time>
      </trkpt>
      <trkpt lat="48.37254" lon="6.8459">
        <ele>411.6</ele>
        <time>2024-03-31T22:20:46.566Z</time>
      </trkpt>
      <trkpt lat="48.37255" lon="6.84593">
        <ele>412.4</ele>
        <time>2024-03-31T22:20:48.300Z</time>
      </trkpt>
      <trkpt lat="48.37256" lon="6.84595">
        <ele>412.6</ele>
        <time>2024-03-31T22:20:50.035Z</time>
      </trkpt>
      <trkpt lat="48.37256" lon="6.84598">
        <ele>412.8</ele>
        <time>2024-03-31T22:20:51.770Z</time>
      </trkpt>
      <trkpt lat="48.37257" lon="6.846">
        <ele>413</ele>
        <time>2024-03-31T22:20:53.506Z</time>
      </trkpt>
      <trkpt lat="48.3726" lon="6.84605">
        <ele>414</ele>
        <time>2024-03-31T22:20:55.243Z</time>
      </trkpt>
      <trkpt lat="48.37262" lon="6.84608">
        <ele>414.8</ele>
        <time>2024-03-31T22:20:56.980Z</time>
      </trkpt>
      <trkpt lat="48.37263" lon="6.84612">
        <ele>415.4</ele>
        <time>2024-03-31T22:20:58.718Z</time>
      </trkpt>
      <trkpt lat="48.37265" lon="6.84622">
        <ele>416.2</ele>
        <time>2024-03-31T22:21:00.458Z</time>
      </trkpt>
      <trkpt lat="48.37266" lon="6.84624">
        <ele>416.8</ele>
        <time>2024-03-31T22:21:02.198Z</time>
      </trkpt>
      <trkpt lat="48.37267" lon="6.84632">
        <ele>417.8</ele>
        <time>2024-03-31T22:21:03.940Z</time>
      </trkpt>
      <trkpt lat="48.37268" lon="6.84634">
        <ele>418.2</ele>
        <time>2024-03-31T22:21:05.682Z</time>
      </trkpt>
      <trkpt lat="48.37271" lon="6.84645">
        <ele>419</ele>
        <time>2024-03-31T22:21:07.426Z</time>
      </trkpt>
      <trkpt lat="48.37275" lon="6.84654">
        <ele>420</ele>
        <time>2024-03-31T22:21:09.172Z</time>
      </trkpt>
      <trkpt lat="48.3728" lon="6.84667">
        <ele>421.2</ele>
        <time>2024-03-31T22:21:10.920Z</time>
      </trkpt>
      <trkpt lat="48.37281" lon="6.8467">
        <ele>421.4</ele>
        <time>2024-03-31T22:21:12.669Z</time>
      </trkpt>
      <trkpt lat="48.37285" lon="6.84678">
        <ele>422.4</ele>
        <time>2024-03-31T22:21:14.420Z</time>
      </trkpt>
      <trkpt lat="48.37287" lon="6.84683">
        <ele>423.4</ele>
        <time>2024-03-31T22:21:16.172Z</time>
      </trkpt>
      <trkpt lat="48.37288" lon="6.84686">
        <ele>423.8</ele>
        <time>2024-03-31T22:21:17.924Z</time>
      </trkpt>
      <trkpt lat="48.37289" lon="6.84694">
        <ele>424.4</ele>
        <time>2024-03-31T22:21:19.678Z</time>
      </trkpt>
      <trkpt lat="48.3729" lon="6.84701">
        <ele>425.2</ele>
        <time>2024-03-31T22:21:21.433Z</time>
      </trkpt>
      <trkpt lat="48.3729" lon="6.84704">
        <ele>425.4</ele>
        <time>2024-03-31T22:21:23.188Z</time>
      </trkpt>
      <trkpt lat="48.37292" lon="6.84711">
        <ele>426.4</ele>
        <time>2024-03-31T22:21:24.945Z</time>
      </trkpt>
      <trkpt lat="48.37294" lon="6.84719">
        <ele>427.4</ele>
        <time>2024-03-31T22:21:26.703Z</time>
      </trkpt>
      <trkpt lat="48.37295" lon="6.84721">
        <ele>427.8</ele>
        <time>2024-03-31T22:21:28.462Z</time>
      </trkpt>
      <trkpt lat="48.37298" lon="6.84732">
        <ele>429</ele>
        <time>2024-03-31T22:21:30.223Z</time>
      </trkpt>
      <trkpt lat="48.37298" lon="6.84735">
        <ele>429.2</ele>
        <time>2024-03-31T22:21:31.984Z</time>
      </trkpt>
      <trkpt lat="48.37298" lon="6.84738">
        <ele>429.6</ele>
        <time>2024-03-31T22:21:33.746Z</time>
      </trkpt>
      <trkpt lat="48.37301" lon="6.84744">
        <ele>430.2</ele>
        <time>2024-03-31T22:21:35.509Z</time>
      </trkpt>
      <trkpt lat="48.37301" lon="6.84747">
        <ele>430.6</ele>
        <time>2024-03-31T22:21:37.272Z</time>
      </trkpt>
      <trkpt lat="48.37303" lon="6.8475">
        <ele>431</ele>
        <time>2024-03-31T22:21:39.036Z</time>
      </trkpt>
      <trkpt lat="48.37305" lon="6.84753">
        <ele>431.4</ele>
        <time>2024-03-31T22:21:40.801Z</time>
      </trkpt>
      <trkpt lat="48.37308" lon="6.84758">
        <ele>432.2</ele>
        <time>2024-03-31T22:21:42.567Z</time>
      </trkpt>
      <trkpt lat="48.37309" lon="6.84761">
        <ele>432.4</ele>
        <time>2024-03-31T22:21:44.333Z</time>
      </trkpt>
      <trkpt lat="48.37313" lon="6.84768">
        <ele>433</ele>
        <time>2024-03-31T22:21:46.101Z</time>
      </trkpt>
      <trkpt lat="48.37316" lon="6.84774">
        <ele>433.4</ele>
        <time>2024-03-31T22:21:47.870Z</time>
      </trkpt>
      <trkpt lat="48.37318" lon="6.84777">
        <ele>433.8</ele>
        <time>2024-03-31T22:21:49.640Z</time>
      </trkpt>
      <trkpt lat="48.37321" lon="6.84785">
        <ele>434.2</ele>
        <time>2024-03-31T22:21:51.411Z</time>
      </trkpt>
      <trkpt lat="48.37323" lon="6.8479">
        <ele>434.8</ele>
        <time>2024-03-31T22:21:53.183Z</time>
      </trkpt>
      <trkpt lat="48.37325" lon="6.84804">
        <ele>436</ele>
        <time>2024-03-31T22:21:54.958Z</time>
      </trkpt>
      <trkpt lat="48.37327" lon="6.84812">
        <ele>436.4</ele>
        <time>2024-03-31T22:21:56.734Z</time>
      </trkpt>
      <trkpt lat="48.37329" lon="6.84821">
        <ele>436.6</ele>
        <time>2024-03-31T22:21:58.512Z</time>
      </trkpt>
      <trkpt lat="48.37329" lon="6.84828">
        <ele>436.6</ele>
        <time>2024-03-31T22:22:00.291Z</time>
      </trkpt>
      <trkpt lat="48.37328" lon="6.84857">
        <ele>436.6</ele>
        <time>2024-03-31T22:22:02.075Z</time>
      </trkpt>
      <trkpt lat="48.37326" lon="6.84862">
        <ele>436.6</ele>
        <time>2024-03-31T22:22:03.860Z</time>
      </trkpt>
      <trkpt lat="48.3732" lon="6.84872">
        <ele>436.2</ele>
        <time>2024-03-31T22:22:05.647Z</time>
      </trkpt>
      <trkpt lat="48.37317" lon="6.84886">
        <ele>436.2</ele>
        <time>2024-03-31T22:22:07.437Z</time>
      </trkpt>
      <trkpt lat="48.37316" lon="6.84891">
        <ele>436.2</ele>
        <time>2024-03-31T22:22:09.228Z</time>
      </trkpt>
      <trkpt lat="48.37307" lon="6.8491">
        <ele>436.2</ele>
        <time>2024-03-31T22:22:11.023Z</time>
      </trkpt>
      <trkpt lat="48.37305" lon="6.84919">
        <ele>436.4</ele>
        <time>2024-03-31T22:22:12.819Z</time>
      </trkpt>
      <trkpt lat="48.37303" lon="6.84928">
        <ele>436.6</ele>
        <time>2024-03-31T22:22:14.617Z</time>
      </trkpt>
      <trkpt lat="48.37296" lon="6.84958">
        <ele>436.8</ele>
        <time>2024-03-31T22:22:16.420Z</time>
      </trkpt>
      <trkpt lat="48.37287" lon="6.84991">
        <ele>436.8</ele>
        <time>2024-03-31T22:22:18.229Z</time>
      </trkpt>
      <trkpt lat="48.37284" lon="6.84998">
        <ele>436.8</ele>
        <time>2024-03-31T22:22:20.040Z</time>
      </trkpt>
      <trkpt lat="48.37279" lon="6.85022">
        <ele>436.6</ele>
        <time>2024-03-31T22:22:21.855Z</time>
      </trkpt>
      <trkpt lat="48.37277" lon="6.8503">
        <ele>436.6</ele>
        <time>2024-03-31T22:22:23.671Z</time>
      </trkpt>
      <trkpt lat="48.37271" lon="6.85052">
        <ele>436.2</ele>
        <time>2024-03-31T22:22:25.492Z</time>
      </trkpt>
      <trkpt lat="48.37268" lon="6.85067">
        <ele>436</ele>
        <time>2024-03-31T22:22:27.315Z</time>
      </trkpt>
      <trkpt lat="48.37262" lon="6.85093">
        <ele>435.6</ele>
        <time>2024-03-31T22:22:29.143Z</time>
      </trkpt>
      <trkpt lat="48.37256" lon="6.85124">
        <ele>435.2</ele>
        <time>2024-03-31T22:22:30.976Z</time>
      </trkpt>
      <trkpt lat="48.37258" lon="6.85135">
        <ele>435.4</ele>
        <time>2024-03-31T22:22:32.811Z</time>
      </trkpt>
      <trkpt lat="48.37254" lon="6.8516">
        <ele>435.6</ele>
        <time>2024-03-31T22:22:34.651Z</time>
      </trkpt>
      <trkpt lat="48.3726" lon="6.85186">
        <ele>435.6</ele>
        <time>2024-03-31T22:22:36.495Z</time>
      </trkpt>
      <trkpt lat="48.37263" lon="6.85191">
        <ele>435.4</ele>
        <time>2024-03-31T22:22:38.340Z</time>
      </trkpt>
      <trkpt lat="48.37261" lon="6.85205">
        <ele>435.4</ele>
        <time>2024-03-31T22:22:40.188Z</time>
      </trkpt>
      <trkpt lat="48.37258" lon="6.85219">
        <ele>435.2</ele>
        <time>2024-03-31T22:22:42.038Z</time>
      </trkpt>
      <trkpt lat="48.37261" lon="6.85226">
        <ele>435.2</ele>
        <time>2024-03-31T22:22:43.889Z</time>
      </trkpt>
      <trkpt lat="48.37265" lon="6.85233">
        <ele>435</ele>
        <time>2024-03-31T22:22:45.742Z</time>
      </trkpt>
      <trkpt lat="48.37272" lon="6.85264">
        <ele>434.4</ele>
        <time>2024-03-31T22:22:47.601Z</time>
      </trkpt>
      <trkpt lat="48.37275" lon="6.85268">
        <ele>434.2</ele>
        <time>2024-03-31T22:22:49.461Z</time>
      </trkpt>
      <trkpt lat="48.37276" lon="6.85273">
        <ele>434.2</ele>
        <time>2024-03-31T22:22:51.321Z</time>
      </trkpt>
      <trkpt lat="48.3728" lon="6.85283">
        <ele>433.8</ele>
        <time>2024-03-31T22:22:53.183Z</time>
      </trkpt>
      <trkpt lat="48.37293" lon="6.85298">
        <ele>433.8</ele>
        <time>2024-03-31T22:22:55.050Z</time>
      </trkpt>
      <trkpt lat="48.37308" lon="6.85314">
        <ele>434</ele>
        <time>2024-03-31T22:22:56.921Z</time>
      </trkpt>
      <trkpt lat="48.37312" lon="6.85315">
        <ele>434.2</ele>
        <time>2024-03-31T22:22:58.793Z</time>
      </trkpt>
      <trkpt lat="48.37318" lon="6.85333">
        <ele>433.8</ele>
        <time>2024-03-31T22:23:00.669Z</time>
      </trkpt>
      <trkpt lat="48.37319" lon="6.85346">
        <ele>434</ele>
        <time>2024-03-31T22:23:02.547Z</time>
      </trkpt>
      <trkpt lat="48.37321" lon="6.85354">
        <ele>434</ele>
        <time>2024-03-31T22:23:04.426Z</time>
      </trkpt>
      <trkpt lat="48.3733" lon="6.8538">
        <ele>434</ele>
        <time>2024-03-31T22:23:06.310Z</time>
      </trkpt>
      <trkpt lat="48.37335" lon="6.85404">
        <ele>434.2</ele>
        <time>2024-03-31T22:23:08.199Z</time>
      </trkpt>
      <trkpt lat="48.37343" lon="6.85435">
        <ele>434.2</ele>
        <time>2024-03-31T22:23:10.093Z</time>
      </trkpt>
      <trkpt lat="48.37343" lon="6.85443">
        <ele>434.2</ele>
        <time>2024-03-31T22:23:11.989Z</time>
      </trkpt>
      <trkpt lat="48.37342" lon="6.85451">
        <ele>434</ele>
        <time>2024-03-31T22:23:13.886Z</time>
      </trkpt>
      <trkpt lat="48.3734" lon="6.85468">
        <ele>434</ele>
        <time>2024-03-31T22:23:15.786Z</time>
      </trkpt>
      <trkpt lat="48.37337" lon="6.85474">
        <ele>434</ele>
        <time>2024-03-31T22:23:17.687Z</time>
      </trkpt>
      <trkpt lat="48.37332" lon="6.85484">
        <ele>433.8</ele>
        <time>2024-03-31T22:23:19.590Z</time>
      </trkpt>
      <trkpt lat="48.37324" lon="6.85506">
        <ele>433.8</ele>
        <time>2024-03-31T22:23:21.498Z</time>
      </trkpt>
      <trkpt lat="48.37316" lon="6.85539">
        <ele>433.8</ele>
        <time>2024-03-31T22:23:23.412Z</time>
      </trkpt>
      <trkpt lat="48.37311" lon="6.85555">
        <ele>434</ele>
        <time>2024-03-31T22:23:25.329Z</time>
      </trkpt>
      <trkpt lat="48.37305" lon="6.85581">
        <ele>434.2</ele>
        <time>2024-03-31T22:23:27.250Z</time>
      </trkpt>
      <trkpt lat="48.373" lon="6.85604">
        <ele>434.4</ele>
        <time>2024-03-31T22:23:29.175Z</time>
      </trkpt>
      <trkpt lat="48.37299" lon="6.85644">
        <ele>434.4</ele>
        <time>2024-03-31T22:23:31.107Z</time>
      </trkpt>
      <trkpt lat="48.37304" lon="6.85689">
        <ele>434.8</ele>
        <time>2024-03-31T22:23:33.047Z</time>
      </trkpt>
      <trkpt lat="48.37307" lon="6.85707">
        <ele>435.2</ele>
        <time>2024-03-31T22:23:34.990Z</time>
      </trkpt>
      <trkpt lat="48.37307" lon="6.85713">
        <ele>435.4</ele>
        <time>2024-03-31T22:23:36.934Z</time>
      </trkpt>
      <trkpt lat="48.37308" lon="6.85725">
        <ele>436</ele>
        <time>2024-03-31T22:23:38.880Z</time>
      </trkpt>
      <trkpt lat="48.37312" lon="6.85749">
        <ele>436</ele>
        <time>2024-03-31T22:23:40.830Z</time>
      </trkpt>
      <trkpt lat="48.37321" lon="6.85771">
        <ele>435.8</ele>
        <time>2024-03-31T22:23:42.785Z</time>
      </trkpt>
      <trkpt lat="48.37332" lon="6.85795">
        <ele>435.6</ele>
        <time>2024-03-31T22:23:44.744Z</time>
      </trkpt>
      <trkpt lat="48.37346" lon="6.85815">
        <ele>435.8</ele>
        <time>2024-03-31T22:23:46.708Z</time>
      </trkpt>
      <trkpt lat="48.37362" lon="6.8583">
        <ele>435.8</ele>
        <time>2024-03-31T22:23:48.677Z</time>
      </trkpt>
      <trkpt lat="48.37381" lon="6.85842">
        <ele>435.8</ele>
        <time>2024-03-31T22:23:50.651Z</time>
      </trkpt>
      <trkpt lat="48.37394" lon="6.85846">
        <ele>435.8</ele>
        <time>2024-03-31T22:23:52.629Z</time>
      </trkpt>
      <trkpt lat="48.37398" lon="6.85842">
        <ele>435.8</ele>
        <time>2024-03-31T22:23:54.608Z</time>
      </trkpt>
      <trkpt lat="48.37403" lon="6.85845">
        <ele>436</ele>
        <time>2024-03-31T22:23:56.589Z</time>
      </trkpt>
      <trkpt lat="48.37409" lon="6.85851">
        <ele>436.6</ele>
        <time>2024-03-31T22:23:58.571Z</time>
      </trkpt>
      <trkpt lat="48.37418" lon="6.85855">
        <ele>437.4</ele>
        <time>2024-03-31T22:24:00.556Z</time>
      </trkpt>
      <trkpt lat="48.37422" lon="6.85852">
        <ele>437.6</ele>
        <time>2024-03-31T22:24:02.542Z</time>
      </trkpt>
      <trkpt lat="48.37437" lon="6.85852">
        <ele>438.2</ele>
        <time>2024-03-31T22:24:04.532Z</time>
      </trkpt>
      <trkpt lat="48.37452" lon="6.85856">
        <ele>438.6</ele>
        <time>2024-03-31T22:24:06.526Z</time>
      </trkpt>
      <trkpt lat="48.37455" lon="6.85858">
        <ele>438.8</ele>
        <time>2024-03-31T22:24:08.520Z</time>
      </trkpt>
      <trkpt lat="48.37468" lon="6.85865">
        <ele>440</ele>
        <time>2024-03-31T22:24:10.518Z</time>
      </trkpt>
      <trkpt lat="48.37483" lon="6.85873">
        <ele>441.2</ele>
        <time>2024-03-31T22:24:12.520Z</time>
      </trkpt>
      <trkpt lat="48.37493" lon="6.85881">
        <ele>442.2</ele>
        <time>2024-03-31T22:24:14.525Z</time>
      </trkpt>
      <trkpt lat="48.37496" lon="6.85884">
        <ele>442.4</ele>
        <time>2024-03-31T22:24:16.531Z</time>
      </trkpt>
      <trkpt lat="48.37509" lon="6.85894">
        <ele>443.4</ele>
        <time>2024-03-31T22:24:18.540Z</time>
      </trkpt>
      <trkpt lat="48.37511" lon="6.85896">
        <ele>444</ele>
        <time>2024-03-31T22:24:20.550Z</time>
      </trkpt>
      <trkpt lat="48.37518" lon="6.85901">
        <ele>444.6</ele>
        <time>2024-03-31T22:24:22.562Z</time>
      </trkpt>
      <trkpt lat="48.37527" lon="6.85911">
        <ele>445</ele>
        <time>2024-03-31T22:24:24.577Z</time>
      </trkpt>
      <trkpt lat="48.37536" lon="6.85923">
        <ele>445.6</ele>
        <time>2024-03-31T22:24:26.595Z</time>
      </trkpt>
      <trkpt lat="48.37542" lon="6.85929">
        <ele>445.8</ele>
        <time>2024-03-31T22:24:28.615Z</time>
      </trkpt>
      <trkpt lat="48.37546" lon="6.85933">
        <ele>445.8</ele>
        <time>2024-03-31T22:24:30.636Z</time>
      </trkpt>
      <trkpt lat="48.37564" lon="6.85956">
        <ele>446.2</ele>
        <time>2024-03-31T22:24:32.663Z</time>
      </trkpt>
      <trkpt lat="48.37575" lon="6.85967">
        <ele>446.4</ele>
        <time>2024-03-31T22:24:34.693Z</time>
      </trkpt>
      <trkpt lat="48.3758" lon="6.85974">
        <ele>447.4</ele>
        <time>2024-03-31T22:24:36.725Z</time>
      </trkpt>
      <trkpt lat="48.37585" lon="6.85982">
        <ele>448.4</ele>
        <time>2024-03-31T22:24:38.759Z</time>
      </trkpt>
      <trkpt lat="48.37588" lon="6.85986">
        <ele>449.2</ele>
        <time>2024-03-31T22:24:40.794Z</time>
      </trkpt>
      <trkpt lat="48.37592" lon="6.85992">
        <ele>450.6</ele>
        <time>2024-03-31T22:24:42.831Z</time>
      </trkpt>
      <trkpt lat="48.37594" lon="6.85992">
        <ele>451</ele>
        <time>2024-03-31T22:24:44.868Z</time>
      </trkpt>
      <trkpt lat="48.37595" lon="6.85992">
        <ele>451.6</ele>
        <time>2024-03-31T22:24:46.905Z</time>
      </trkpt>
      <trkpt lat="48.37595" lon="6.85991">
        <ele>451.8</ele>
        <time>2024-03-31T22:24:48.942Z</time>
      </trkpt>
      <trkpt lat="48.37593" lon="6.85983">
        <ele>452.4</ele>
        <time>2024-03-31T22:24:50.981Z</time>
      </trkpt>
      <trkpt lat="48.37591" lon="6.85979">
        <ele>452.8</ele>
        <time>2024-03-31T22:24:53.021Z</time>
      </trkpt>
      <trkpt lat="48.37588" lon="6.85964">
        <ele>453.4</ele>
        <time>2024-03-31T22:24:55.063Z</time>
      </trkpt>
      <trkpt lat="48.37585" lon="6.85956">
        <ele>454</ele>
        <time>2024-03-31T22:24:57.107Z</time>
      </trkpt>
      <trkpt lat="48.37577" lon="6.85938">
        <ele>454.6</ele>
        <time>2024-03-31T22:24:59.155Z</time>
      </trkpt>
      <trkpt lat="48.37573" lon="6.8593">
        <ele>455</ele>
        <time>2024-03-31T22:25:01.204Z</time>
      </trkpt>
      <trkpt lat="48.37568" lon="6.85915">
        <ele>456</ele>
        <time>2024-03-31T22:25:03.256Z</time>
      </trkpt>
      <trkpt lat="48.37566" lon="6.85911">
        <ele>456.2</ele>
        <time>2024-03-31T22:25:05.309Z</time>
      </trkpt>
      <trkpt lat="48.37559" lon="6.85898">
        <ele>457.4</ele>
        <time>2024-03-31T22:25:07.365Z</time>
      </trkpt>
      <trkpt lat="48.37553" lon="6.85888">
        <ele>458</ele>
        <time>2024-03-31T22:25:09.423Z</time>
      </trkpt>
      <trkpt lat="48.3755" lon="6.85882">
        <ele>458.6</ele>
        <time>2024-03-31T22:25:11.482Z</time>
      </trkpt>
      <trkpt lat="48.3754" lon="6.85869">
        <ele>459</ele>
        <time>2024-03-31T22:25:13.545Z</time>
      </trkpt>
      <trkpt lat="48.37535" lon="6.85857">
        <ele>459.6</ele>
        <time>2024-03-31T22:25:15.610Z</time>
      </trkpt>
      <trkpt lat="48.37526" lon="6.85849">
        <ele>460.4</ele>
        <time>2024-03-31T22:25:17.678Z</time>
      </trkpt>
      <trkpt lat="48.37522" lon="6.85842">
        <ele>460.8</ele>
        <time>2024-03-31T22:25:19.747Z</time>
      </trkpt>
      <trkpt lat="48.37515" lon="6.85832">
        <ele>461.4</ele>
        <time>2024-03-31T22:25:21.819Z</time>
      </trkpt>
      <trkpt lat="48.37503" lon="6.85817">
        <ele>462</ele>
        <time>2024-03-31T22:25:23.895Z</time>
      </trkpt>
      <trkpt lat="48.37493" lon="6.85806">
        <ele>463.2</ele>
        <time>2024-03-31T22:25:25.974Z</time>
      </trkpt>
      <trkpt lat="48.3749" lon="6.85802">
        <ele>463.4</ele>
        <time>2024-03-31T22:25:28.054Z</time>
      </trkpt>
      <trkpt lat="48.37472" lon="6.85792">
        <ele>464.2</ele>
        <time>2024-03-31T22:25:30.139Z</time>
      </trkpt>
      <trkpt lat="48.37467" lon="6.8579">
        <ele>464.4</ele>
        <time>2024-03-31T22:25:32.225Z</time>
      </trkpt>
      <trkpt lat="48.37457" lon="6.85783">
        <ele>465.4</ele>
        <time>2024-03-31T22:25:34.314Z</time>
      </trkpt>
      <trkpt lat="48.37452" lon="6.8578">
        <ele>466.4</ele>
        <time>2024-03-31T22:25:36.404Z</time>
      </trkpt>
      <trkpt lat="48.37448" lon="6.85779">
        <ele>466.6</ele>
        <time>2024-03-31T22:25:38.495Z</time>
      </trkpt>
      <trkpt lat="48.37438" lon="6.85778">
        <ele>467.8</ele>
        <time>2024-03-31T22:25:40.589Z</time>
      </trkpt>
      <trkpt lat="48.37435" lon="6.85778">
        <ele>468.2</ele>
        <time>2024-03-31T22:25:42.684Z</time>
      </trkpt>
      <trkpt lat="48.37431" lon="6.85776">
        <ele>469</ele>
        <time>2024-03-31T22:25:44.780Z</time>
      </trkpt>
      <trkpt lat="48.37418" lon="6.85771">
        <ele>470.2</ele>
        <time>2024-03-31T22:25:46.879Z</time>
      </trkpt>
      <trkpt lat="48.37402" lon="6.85763">
        <ele>471.6</ele>
        <time>2024-03-31T22:25:48.982Z</time>
      </trkpt>
      <trkpt lat="48.37391" lon="6.85753">
        <ele>472.6</ele>
        <time>2024-03-31T22:25:51.089Z</time>
      </trkpt>
      <trkpt lat="48.37385" lon="6.8574">
        <ele>473.2</ele>
        <time>2024-03-31T22:25:53.198Z</time>
      </trkpt>
      <trkpt lat="48.37381" lon="6.85728">
        <ele>474</ele>
        <time>2024-03-31T22:25:55.310Z</time>
      </trkpt>
      <trkpt lat="48.37374" lon="6.85704">
        <ele>475.8</ele>
        <time>2024-03-31T22:25:57.426Z</time>
      </trkpt>
      <trkpt lat="48.37373" lon="6.85699">
        <ele>476</ele>
        <time>2024-03-31T22:25:59.543Z</time>
      </trkpt>
      <trkpt lat="48.37372" lon="6.85676">
        <ele>477</ele>
        <time>2024-03-31T22:26:01.664Z</time>
      </trkpt>
      <trkpt lat="48.37374" lon="6.85667">
        <ele>477.8</ele>
        <time>2024-03-31T22:26:03.786Z</time>
      </trkpt>
      <trkpt lat="48.37375" lon="6.85657">
        <ele>478.2</ele>
        <time>2024-03-31T22:26:05.910Z</time>
      </trkpt>
      <trkpt lat="48.3738" lon="6.85636">
        <ele>479.2</ele>
        <time>2024-03-31T22:26:08.038Z</time>
      </trkpt>
      <trkpt lat="48.37385" lon="6.85621">
        <ele>480.4</ele>
        <time>2024-03-31T22:26:10.169Z</time>
      </trkpt>
      <trkpt lat="48.37389" lon="6.8561">
        <ele>481.6</ele>
        <time>2024-03-31T22:26:12.302Z</time>
      </trkpt>
      <trkpt lat="48.37392" lon="6.85601">
        <ele>482.8</ele>
        <time>2024-03-31T22:26:14.437Z</time>
      </trkpt>
      <trkpt lat="48.37397" lon="6.85584">
        <ele>484</ele>
        <time>2024-03-31T22:26:16.575Z</time>
      </trkpt>
      <trkpt lat="48.37399" lon="6.85579">
        <ele>485.4</ele>
        <time>2024-03-31T22:26:18.714Z</time>
      </trkpt>
      <trkpt lat="48.374" lon="6.85577">
        <ele>485.6</ele>
        <time>2024-03-31T22:26:20.853Z</time>
      </trkpt>
      <trkpt lat="48.37404" lon="6.85572">
        <ele>485.8</ele>
        <time>2024-03-31T22:26:22.993Z</time>
      </trkpt>
      <trkpt lat="48.37409" lon="6.85562">
        <ele>486.4</ele>
        <time>2024-03-31T22:26:25.135Z</time>
      </trkpt>
      <trkpt lat="48.37417" lon="6.85549">
        <ele>487.4</ele>
        <time>2024-03-31T22:26:27.280Z</time>
      </trkpt>
      <trkpt lat="48.37418" lon="6.85546">
        <ele>487.8</ele>
        <time>2024-03-31T22:26:29.426Z</time>
      </trkpt>
      <trkpt lat="48.37422" lon="6.85535">
        <ele>489</ele>
        <time>2024-03-31T22:26:31.574Z</time>
      </trkpt>
      <trkpt lat="48.37424" lon="6.85533">
        <ele>489</ele>
        <time>2024-03-31T22:26:33.723Z</time>
      </trkpt>
      <trkpt lat="48.37431" lon="6.85514">
        <ele>490</ele>
        <time>2024-03-31T22:26:35.875Z</time>
      </trkpt>
      <trkpt lat="48.37435" lon="6.85505">
        <ele>490.6</ele>
        <time>2024-03-31T22:26:38.029Z</time>
      </trkpt>
      <trkpt lat="48.37436" lon="6.85499">
        <ele>491</ele>
        <time>2024-03-31T22:26:40.184Z</time>
      </trkpt>
      <trkpt lat="48.37438" lon="6.85482">
        <ele>492.2</ele>
        <time>2024-03-31T22:26:42.342Z</time>
      </trkpt>
      <trkpt lat="48.37439" lon="6.85477">
        <ele>492.2</ele>
        <time>2024-03-31T22:26:44.501Z</time>
      </trkpt>
      <trkpt lat="48.37437" lon="6.85448">
        <ele>492.8</ele>
        <time>2024-03-31T22:26:46.665Z</time>
      </trkpt>
      <trkpt lat="48.37437" lon="6.8543">
        <ele>493.2</ele>
        <time>2024-03-31T22:26:48.832Z</time>
      </trkpt>
      <trkpt lat="48.37438" lon="6.8542">
        <ele>493.8</ele>
        <time>2024-03-31T22:26:51.001Z</time>
      </trkpt>
      <trkpt lat="48.37434" lon="6.85396">
        <ele>494.4</ele>
        <time>2024-03-31T22:26:53.174Z</time>
      </trkpt>
      <trkpt lat="48.37427" lon="6.8537">
        <ele>495.4</ele>
        <time>2024-03-31T22:26:55.352Z</time>
      </trkpt>
      <trkpt lat="48.37426" lon="6.85366">
        <ele>495.8</ele>
        <time>2024-03-31T22:26:57.530Z</time>
      </trkpt>
      <trkpt lat="48.37426" lon="6.85351">
        <ele>496.8</ele>
        <time>2024-03-31T22:26:59.711Z</time>
      </trkpt>
      <trkpt lat="48.37426" lon="6.85344">
        <ele>497</ele>
        <time>2024-03-31T22:27:01.893Z</time>
      </trkpt>
      <trkpt lat="48.37423" lon="6.85324">
        <ele>498</ele>
        <time>2024-03-31T22:27:04.079Z</time>
      </trkpt>
      <trkpt lat="48.3742" lon="6.85305">
        <ele>498.8</ele>
        <time>2024-03-31T22:27:06.268Z</time>
      </trkpt>
      <trkpt lat="48.37418" lon="6.853">
        <ele>499.4</ele>
        <time>2024-03-31T22:27:08.458Z</time>
      </trkpt>
      <trkpt lat="48.37408" lon="6.8528">
        <ele>500.6</ele>
        <time>2024-03-31T22:27:10.652Z</time>
      </trkpt>
      <trkpt lat="48.37406" lon="6.85274">
        <ele>500.8</ele>
        <time>2024-03-31T22:27:12.847Z</time>
      </trkpt>
      <trkpt lat="48.37399" lon="6.85259">
        <ele>501.8</ele>
        <time>2024-03-31T22:27:15.045Z</time>
      </trkpt>
      <trkpt lat="48.37391" lon="6.85244">
        <ele>503</ele>
        <time>2024-03-31T22:27:17.247Z</time>
      </trkpt>
      <trkpt lat="48.37389" lon="6.8524">
        <ele>503.2</ele>
        <time>2024-03-31T22:27:19.449Z</time>
      </trkpt>
      <trkpt lat="48.37384" lon="6.85232">
        <ele>503.6</ele>
        <time>2024-03-31T22:27:21.653Z</time>
      </trkpt>
      <trkpt lat="48.37383" lon="6.85227">
        <ele>503.8</ele>
        <time>2024-03-31T22:27:23.858Z</time>
      </trkpt>
      <trkpt lat="48.37379" lon="6.85215">
        <ele>504</ele>
        <time>2024-03-31T22:27:26.065Z</time>
      </trkpt>
      <trkpt lat="48.37377" lon="6.852">
        <ele>504.4</ele>
        <time>2024-03-31T22:27:28.275Z</time>
      </trkpt>
      <trkpt lat="48.37381" lon="6.85178">
        <ele>504.8</ele>
        <time>2024-03-31T22:27:30.489Z</time>
      </trkpt>
      <trkpt lat="48.37388" lon="6.85155">
        <ele>505</ele>
        <time>2024-03-31T22:27:32.707Z</time>
      </trkpt>
      <trkpt lat="48.37396" lon="6.85126">
        <ele>506.2</ele>
        <time>2024-03-31T22:27:34.930Z</time>
      </trkpt>
      <trkpt lat="48.37403" lon="6.85102">
        <ele>507.4</ele>
        <time>2024-03-31T22:27:37.158Z</time>
      </trkpt>
      <trkpt lat="48.37407" lon="6.8509">
        <ele>508.2</ele>
        <time>2024-03-31T22:27:39.388Z</time>
      </trkpt>
      <trkpt lat="48.37409" lon="6.85085">
        <ele>508.4</ele>
        <time>2024-03-31T22:27:41.619Z</time>
      </trkpt>
      <trkpt lat="48.37416" lon="6.85066">
        <ele>509</ele>
        <time>2024-03-31T22:27:43.854Z</time>
      </trkpt>
      <trkpt lat="48.3742" lon="6.85053">
        <ele>509.4</ele>
        <time>2024-03-31T22:27:46.091Z</time>
      </trkpt>
      <trkpt lat="48.37428" lon="6.85033">
        <ele>509.4</ele>
        <time>2024-03-31T22:27:48.332Z</time>
      </trkpt>
      <trkpt lat="48.3743" lon="6.85027">
        <ele>509.6</ele>
        <time>2024-03-31T22:27:50.574Z</time>
      </trkpt>
      <trkpt lat="48.37434" lon="6.85014">
        <ele>509.8</ele>
        <time>2024-03-31T22:27:52.819Z</time>
      </trkpt>
      <trkpt lat="48.37446" lon="6.84979">
        <ele>510.4</ele>
        <time>2024-03-31T22:27:55.070Z</time>
      </trkpt>
      <trkpt lat="48.37449" lon="6.84974">
        <ele>510.6</ele>
        <time>2024-03-31T22:27:57.323Z</time>
      </trkpt>
      <trkpt lat="48.37451" lon="6.84969">
        <ele>510.6</ele>
        <time>2024-03-31T22:27:59.577Z</time>
      </trkpt>
      <trkpt lat="48.37465" lon="6.84946">
        <ele>511.6</ele>
        <time>2024-03-31T22:28:01.836Z</time>
      </trkpt>
      <trkpt lat="48.37478" lon="6.84922">
        <ele>513</ele>
        <time>2024-03-31T22:28:04.100Z</time>
      </trkpt>
      <trkpt lat="48.37489" lon="6.849">
        <ele>514.4</ele>
        <time>2024-03-31T22:28:06.369Z</time>
      </trkpt>
      <trkpt lat="48.37494" lon="6.84887">
        <ele>515.4</ele>
        <time>2024-03-31T22:28:08.640Z</time>
      </trkpt>
      <trkpt lat="48.37496" lon="6.84883">
        <ele>515.6</ele>
        <time>2024-03-31T22:28:10.912Z</time>
      </trkpt>
      <trkpt lat="48.37498" lon="6.8487">
        <ele>516.6</ele>
        <time>2024-03-31T22:28:13.186Z</time>
      </trkpt>
      <trkpt lat="48.375" lon="6.84868">
        <ele>516.8</ele>
        <time>2024-03-31T22:28:15.461Z</time>
      </trkpt>
      <trkpt lat="48.375" lon="6.84875">
        <ele>517.6</ele>
        <time>2024-03-31T22:28:17.737Z</time>
      </trkpt>
      <trkpt lat="48.37498" lon="6.84905">
        <ele>518.8</ele>
        <time>2024-03-31T22:28:20.018Z</time>
      </trkpt>
      <trkpt lat="48.37501" lon="6.84935">
        <ele>519.6</ele>
        <time>2024-03-31T22:28:22.304Z</time>
      </trkpt>
      <trkpt lat="48.375" lon="6.84943">
        <ele>520</ele>
        <time>2024-03-31T22:28:24.592Z</time>
      </trkpt>
      <trkpt lat="48.37499" lon="6.84951">
        <ele>520.8</ele>
        <time>2024-03-31T22:28:26.881Z</time>
      </trkpt>
      <trkpt lat="48.37499" lon="6.84957">
        <ele>521</ele>
        <time>2024-03-31T22:28:29.171Z</time>
      </trkpt>
      <trkpt lat="48.37499" lon="6.84971">
        <ele>522.2</ele>
        <time>2024-03-31T22:28:31.463Z</time>
      </trkpt>
      <trkpt lat="48.37501" lon="6.8498">
        <ele>522.8</ele>
        <time>2024-03-31T22:28:33.757Z</time>
      </trkpt>
      <trkpt lat="48.37502" lon="6.84984">
        <ele>523.4</ele>
        <time>2024-03-31T22:28:36.052Z</time>
      </trkpt>
      <trkpt lat="48.37502" lon="6.84989">
        <ele>523.6</ele>
        <time>2024-03-31T22:28:38.348Z</time>
      </trkpt>
      <trkpt lat="48.37503" lon="6.84996">
        <ele>524.6</ele>
        <time>2024-03-31T22:28:40.645Z</time>
      </trkpt>
      <trkpt lat="48.37502" lon="6.85009">
        <ele>525.6</ele>
        <time>2024-03-31T22:28:42.944Z</time>
      </trkpt>
      <trkpt lat="48.37502" lon="6.85015">
        <ele>525.8</ele>
        <time>2024-03-31T22:28:45.244Z</time>
      </trkpt>
      <trkpt lat="48.37501" lon="6.85025">
        <ele>526.6</ele>
        <time>2024-03-31T22:28:47.546Z</time>
      </trkpt>
      <trkpt lat="48.375" lon="6.85046">
        <ele>527.4</ele>
        <time>2024-03-31T22:28:49.851Z</time>
      </trkpt>
      <trkpt lat="48.37503" lon="6.85054">
        <ele>527.8</ele>
        <time>2024-03-31T22:28:52.158Z</time>
      </trkpt>
      <trkpt lat="48.37504" lon="6.85067">
        <ele>528.4</ele>
        <time>2024-03-31T22:28:54.467Z</time>
      </trkpt>
      <trkpt lat="48.37499" lon="6.85076">
        <ele>529.4</ele>
        <time>2024-03-31T22:28:56.778Z</time>
      </trkpt>
      <trkpt lat="48.37497" lon="6.85084">
        <ele>530.2</ele>
        <time>2024-03-31T22:28:59.091Z</time>
      </trkpt>
      <trkpt lat="48.37499" lon="6.8509">
        <ele>530.4</ele>
        <time>2024-03-31T22:29:01.405Z</time>
      </trkpt>
      <trkpt lat="48.37504" lon="6.85115">
        <ele>531.8</ele>
        <time>2024-03-31T22:29:03.723Z</time>
      </trkpt>
      <trkpt lat="48.37506" lon="6.85124">
        <ele>532.4</ele>
        <time>2024-03-31T22:29:06.043Z</time>
      </trkpt>
      <trkpt lat="48.37508" lon="6.85136">
        <ele>533.6</ele>
        <time>2024-03-31T22:29:08.365Z</time>
      </trkpt>
      <trkpt lat="48.37512" lon="6.85154">
        <ele>534.8</ele>
        <time>2024-03-31T22:29:10.690Z</time>
      </trkpt>
      <trkpt lat="48.37518" lon="6.85179">
        <ele>535.8</ele>
        <time>2024-03-31T22:29:13.019Z</time>
      </trkpt>
      <trkpt lat="48.37516" lon="6.85219">
        <ele>536.2</ele>
        <time>2024-03-31T22:29:15.355Z</time>
      </trkpt>
      <trkpt lat="48.37516" lon="6.85222">
        <ele>536.2</ele>
        <time>2024-03-31T22:29:17.692Z</time>
      </trkpt>
      <trkpt lat="48.37511" lon="6.8524">
        <ele>536.4</ele>
        <time>2024-03-31T22:29:20.032Z</time>
      </trkpt>
      <trkpt lat="48.37513" lon="6.85271">
        <ele>536.4</ele>
        <time>2024-03-31T22:29:22.377Z</time>
      </trkpt>
      <trkpt lat="48.37523" lon="6.85308">
        <ele>535.4</ele>
        <time>2024-03-31T22:29:24.729Z</time>
      </trkpt>
      <trkpt lat="48.37526" lon="6.85316">
        <ele>535.4</ele>
        <time>2024-03-31T22:29:27.083Z</time>
      </trkpt>
      <trkpt lat="48.37531" lon="6.85339">
        <ele>535.2</ele>
        <time>2024-03-31T22:29:29.441Z</time>
      </trkpt>
      <trkpt lat="48.37531" lon="6.85354">
        <ele>535</ele>
        <time>2024-03-31T22:29:31.801Z</time>
      </trkpt>
      <trkpt lat="48.37531" lon="6.85361">
        <ele>534.8</ele>
        <time>2024-03-31T22:29:34.163Z</time>
      </trkpt>
      <trkpt lat="48.37529" lon="6.85371">
        <ele>534.2</ele>
        <time>2024-03-31T22:29:36.526Z</time>
      </trkpt>
      <trkpt lat="48.37528" lon="6.85377">
        <ele>533.6</ele>
        <time>2024-03-31T22:29:38.890Z</time>
      </trkpt>
      <trkpt lat="48.37525" lon="6.85391">
        <ele>532.8</ele>
        <time>2024-03-31T22:29:41.257Z</time>
      </trkpt>
      <trkpt lat="48.37521" lon="6.85412">
        <ele>531</ele>
        <time>2024-03-31T22:29:43.628Z</time>
      </trkpt>
      <trkpt lat="48.37522" lon="6.85436">
        <ele>530</ele>
        <time>2024-03-31T22:29:46.003Z</time>
      </trkpt>
      <trkpt lat="48.37526" lon="6.85468">
        <ele>528.6</ele>
        <time>2024-03-31T22:29:48.383Z</time>
      </trkpt>
      <trkpt lat="48.37526" lon="6.85481">
        <ele>528.2</ele>
        <time>2024-03-31T22:29:50.765Z</time>
      </trkpt>
      <trkpt lat="48.37527" lon="6.85492">
        <ele>527.8</ele>
        <time>2024-03-31T22:29:53.149Z</time>
      </trkpt>
      <trkpt lat="48.3753" lon="6.85509">
        <ele>526.2</ele>
        <time>2024-03-31T22:29:55.536Z</time>
      </trkpt>
      <trkpt lat="48.37534" lon="6.85527">
        <ele>525.6</ele>
        <time>2024-03-31T22:29:57.926Z</time>
      </trkpt>
      <trkpt lat="48.3754" lon="6.85543">
        <ele>525.2</ele>
        <time>2024-03-31T22:30:00.319Z</time>
      </trkpt>
      <trkpt lat="48.37543" lon="6.85551">
        <ele>525</ele>
        <time>2024-03-31T22:30:02.714Z</time>
      </trkpt>
      <trkpt lat="48.37548" lon="6.85565">
        <ele>524.4</ele>
        <time>2024-03-31T22:30:05.112Z</time>
      </trkpt>
      <trkpt lat="48.3755" lon="6.85578">
        <ele>523.8</ele>
        <time>2024-03-31T22:30:07.512Z</time>
      </trkpt>
      <trkpt lat="48.3755" lon="6.85584">
        <ele>522.8</ele>
        <time>2024-03-31T22:30:09.913Z</time>
      </trkpt>
      <trkpt lat="48.3755" lon="6.85586">
        <ele>522.6</ele>
        <time>2024-03-31T22:30:12.314Z</time>
      </trkpt>
      <trkpt lat="48.37551" lon="6.8559">
        <ele>521.6</ele>
        <time>2024-03-31T22:30:14.716Z</time>
      </trkpt>
      <trkpt lat="48.37553" lon="6.85593">
        <ele>521.2</ele>
        <time>2024-03-31T22:30:17.119Z</time>
      </trkpt>
      <trkpt lat="48.37553" lon="6.85597">
        <ele>520.6</ele>
        <time>2024-03-31T22:30:19.522Z</time>
      </trkpt>
      <trkpt lat="48.37554" lon="6.85602">
        <ele>520.2</ele>
        <time>2024-03-31T22:30:21.926Z</time>
      </trkpt>
      <trkpt lat="48.37557" lon="6.85618">
        <ele>519.4</ele>
        <time>2024-03-31T22:30:24.333Z</time>
      </trkpt>
      <trkpt lat="48.37558" lon="6.85624">
        <ele>519.4</ele>
        <time>2024-03-31T22:30:26.741Z</time>
      </trkpt>
      <trkpt lat="48.37563" lon="6.85639">
        <ele>518.4</ele>
        <time>2024-03-31T22:30:29.152Z</time>
      </trkpt>
      <trkpt lat="48.37566" lon="6.8565">
        <ele>516.8</ele>
        <time>2024-03-31T22:30:31.565Z</time>
      </trkpt>
      <trkpt lat="48.37566" lon="6.85653">
        <ele>515.6</ele>
        <time>2024-03-31T22:30:33.979Z</time>
      </trkpt>
      <trkpt lat="48.37566" lon="6.85657">
        <ele>514.2</ele>
        <time>2024-03-31T22:30:36.393Z</time>
      </trkpt>
      <trkpt lat="48.37566" lon="6.85658">
        <ele>513</ele>
        <time>2024-03-31T22:30:38.807Z</time>
      </trkpt>
      <trkpt lat="48.37567" lon="6.85661">
        <ele>511.4</ele>
        <time>2024-03-31T22:30:41.222Z</time>
      </trkpt>
      <trkpt lat="48.37568" lon="6.85665">
        <ele>510.2</ele>
        <time>2024-03-31T22:30:43.638Z</time>
      </trkpt>
      <trkpt lat="48.37566" lon="6.85674">
        <ele>509.8</ele>
        <time>2024-03-31T22:30:46.055Z</time>
      </trkpt>
      <trkpt lat="48.37566" lon="6.85682">
        <ele>509.2</ele>
        <time>2024-03-31T22:30:48.474Z</time>
      </trkpt>
      <trkpt lat="48.37566" lon="6.85685">
        <ele>508.2</ele>
        <time>2024-03-31T22:30:50.893Z</time>
      </trkpt>
      <trkpt lat="48.37569" lon="6.85694">
        <ele>507.2</ele>
        <time>2024-03-31T22:30:53.314Z</time>
      </trkpt>
      <trkpt lat="48.37571" lon="6.85699">
        <ele>506.6</ele>
        <time>2024-03-31T22:30:55.736Z</time>
      </trkpt>
      <trkpt lat="48.37573" lon="6.85706">
        <ele>506.2</ele>
        <time>2024-03-31T22:30:58.159Z</time>
      </trkpt>
      <trkpt lat="48.37574" lon="6.85708">
        <ele>505.8</ele>
        <time>2024-03-31T22:31:00.582Z</time>
      </trkpt>
      <trkpt lat="48.37574" lon="6.85708">
        <ele>504.8</ele>
        <time>2024-03-31T22:31:03.006Z</time>
      </trkpt>
      <trkpt lat="48.3758" lon="6.8573">
        <ele>499.2</ele>
        <time>2024-03-31T22:31:05.434Z</time>
      </trkpt>
      <trkpt lat="48.3758" lon="6.85736">
        <ele>499.2</ele>
        <time>2024-03-31T22:31:07.862Z</time>
      </trkpt>
      <trkpt lat="48.37581" lon="6.85744">
        <ele>498.2</ele>
        <time>2024-03-31T22:31:10.292Z</time>
      </trkpt>
      <trkpt lat="48.37582" lon="6.85748">
        <ele>497.4</ele>
        <time>2024-03-31T22:31:12.723Z</time>
      </trkpt>
      <trkpt lat="48.37584" lon="6.85756">
        <ele>496.2</ele>
        <time>2024-03-31T22:31:15.155Z</time>
      </trkpt>
      <trkpt lat="48.37585" lon="6.85766">
        <ele>495</ele>
        <time>2024-03-31T22:31:17.589Z</time>
      </trkpt>
      <trkpt lat="48.37586" lon="6.85773">
        <ele>494.2</ele>
        <time>2024-03-31T22:31:20.024Z</time>
      </trkpt>
      <trkpt lat="48.37588" lon="6.85787">
        <ele>493.4</ele>
        <time>2024-03-31T22:31:22.461Z</time>
      </trkpt>
      <trkpt lat="48.37589" lon="6.85793">
        <ele>492.2</ele>
        <time>2024-03-31T22:31:24.899Z</time>
      </trkpt>
      <trkpt lat="48.37595" lon="6.85815">
        <ele>490</ele>
        <time>2024-03-31T22:31:27.341Z</time>
      </trkpt>
      <trkpt lat="48.37599" lon="6.85823">
        <ele>490</ele>
        <time>2024-03-31T22:31:29.785Z</time>
      </trkpt>
      <trkpt lat="48.37604" lon="6.8583">
        <ele>489.8</ele>
        <time>2024-03-31T22:31:32.231Z</time>
      </trkpt>
      <trkpt lat="48.37623" lon="6.85856">
        <ele>489.2</ele>
        <time>2024-03-31T22:31:34.683Z</time>
      </trkpt>
      <trkpt lat="48.37627" lon="6.85861">
        <ele>489</ele>
        <time>2024-03-31T22:31:37.137Z</time>
      </trkpt>
      <trkpt lat="48.37633" lon="6.85873">
        <ele>488.6</ele>
        <time>2024-03-31T22:31:39.593Z</time>
      </trkpt>
      <trkpt lat="48.3764" lon="6.85885">
        <ele>488.2</ele>
        <time>2024-03-31T22:31:42.052Z</time>
      </trkpt>
      <trkpt lat="48.37644" lon="6.85892">
        <ele>488</ele>
        <time>2024-03-31T22:31:44.512Z</time>
      </trkpt>
      <trkpt lat="48.37645" lon="6.85895">
        <ele>487.8</ele>
        <time>2024-03-31T22:31:46.973Z</time>
      </trkpt>
      <trkpt lat="48.37646" lon="6.85898">
        <ele>486.6</ele>
        <time>2024-03-31T22:31:49.435Z</time>
      </trkpt>
      <trkpt lat="48.37649" lon="6.85902">
        <ele>486</ele>
        <time>2024-03-31T22:31:51.898Z</time>
      </trkpt>
      <trkpt lat="48.3765" lon="6.85903">
        <ele>485.4</ele>
        <time>2024-03-31T22:31:54.361Z</time>
      </trkpt>
      <trkpt lat="48.37651" lon="6.85905">
        <ele>485.4</ele>
        <time>2024-03-31T22:31:56.824Z</time>
      </trkpt>
      <trkpt lat="48.37651" lon="6.85909">
        <ele>485.2</ele>
        <time>2024-03-31T22:31:59.288Z</time>
      </trkpt>
      <trkpt lat="48.37651" lon="6.85911">
        <ele>484.8</ele>
        <time>2024-03-31T22:32:01.752Z</time>
      </trkpt>
      <trkpt lat="48.37653" lon="6.85914">
        <ele>484.4</ele>
        <time>2024-03-31T22:32:04.217Z</time>
      </trkpt>
      <trkpt lat="48.37654" lon="6.85914">
        <ele>484.4</ele>
        <time>2024-03-31T22:32:06.682Z</time>
      </trkpt>
      <trkpt lat="48.37656" lon="6.85914">
        <ele>484.2</ele>
        <time>2024-03-31T22:32:09.148Z</time>
      </trkpt>
      <trkpt lat="48.37665" lon="6.8592">
        <ele>483.8</ele>
        <time>2024-03-31T22:32:11.616Z</time>
      </trkpt>
      <trkpt lat="48.37669" lon="6.85923">
        <ele>483.8</ele>
        <time>2024-03-31T22:32:14.085Z</time>
      </trkpt>
      <trkpt lat="48.3768" lon="6.85934">
        <ele>484.6</ele>
        <time>2024-03-31T22:32:16.558Z</time>
      </trkpt>
      <trkpt lat="48.37682" lon="6.85937">
        <ele>485</ele>
        <time>2024-03-31T22:32:19.032Z</time>
      </trkpt>
      <trkpt lat="48.37684" lon="6.85946">
        <ele>485.6</ele>
        <time>2024-03-31T22:32:21.507Z</time>
      </trkpt>
      <trkpt lat="48.37685" lon="6.85951">
        <ele>485.8</ele>
        <time>2024-03-31T22:32:23.983Z</time>
      </trkpt>
      <trkpt lat="48.37689" lon="6.85973">
        <ele>486.4</ele>
        <time>2024-03-31T22:32:26.463Z</time>
      </trkpt>
      <trkpt lat="48.37695" lon="6.85989">
        <ele>486.8</ele>
        <time>2024-03-31T22:32:28.946Z</time>
      </trkpt>
      <trkpt lat="48.37698" lon="6.85999">
        <ele>487.6</ele>
        <time>2024-03-31T22:32:31.431Z</time>
      </trkpt>
      <trkpt lat="48.37698" lon="6.86005">
        <ele>488</ele>
        <time>2024-03-31T22:32:33.917Z</time>
      </trkpt>
      <trkpt lat="48.37697" lon="6.86026">
        <ele>488.6</ele>
        <time>2024-03-31T22:32:36.407Z</time>
      </trkpt>
      <trkpt lat="48.37698" lon="6.86041">
        <ele>489</ele>
        <time>2024-03-31T22:32:38.899Z</time>
      </trkpt>
      <trkpt lat="48.377" lon="6.86061">
        <ele>489.4</ele>
        <time>2024-03-31T22:32:41.394Z</time>
      </trkpt>
      <trkpt lat="48.37701" lon="6.86071">
        <ele>489.8</ele>
        <time>2024-03-31T22:32:43.891Z</time>
      </trkpt>
      <trkpt lat="48.37701" lon="6.86076">
        <ele>490.2</ele>
        <time>2024-03-31T22:32:46.389Z</time>
      </trkpt>
      <trkpt lat="48.37702" lon="6.86083">
        <ele>490.6</ele>
        <time>2024-03-31T22:32:48.888Z</time>
      </trkpt>
      <trkpt lat="48.37705" lon="6.86094">
        <ele>491.2</ele>
        <time>2024-03-31T22:32:51.389Z</time>
      </trkpt>
      <trkpt lat="48.37703" lon="6.86105">
        <ele>491.8</ele>
        <time>2024-03-31T22:32:53.892Z</time>
      </trkpt>
      <trkpt lat="48.37701" lon="6.8611">
        <ele>492.2</ele>
        <time>2024-03-31T22:32:56.396Z</time>
      </trkpt>
      <trkpt lat="48.37691" lon="6.86133">
        <ele>493.4</ele>
        <time>2024-03-31T22:32:58.905Z</time>
      </trkpt>
      <trkpt lat="48.37685" lon="6.86162">
        <ele>493.8</ele>
        <time>2024-03-31T22:33:01.419Z</time>
      </trkpt>
      <trkpt lat="48.37682" lon="6.86171">
        <ele>494.4</ele>
        <time>2024-03-31T22:33:03.935Z</time>
      </trkpt>
      <trkpt lat="48.3768" lon="6.86173">
        <ele>494.6</ele>
        <time>2024-03-31T22:33:06.451Z</time>
      </trkpt>
      <trkpt lat="48.37679" lon="6.86174">
        <ele>495.2</ele>
        <time>2024-03-31T22:33:08.968Z</time>
      </trkpt>
      <trkpt lat="48.37678" lon="6.86176">
        <ele>495.2</ele>
        <time>2024-03-31T22:33:11.485Z</time>
      </trkpt>
      <trkpt lat="48.37677" lon="6.86177">
        <ele>495.6</ele>
        <time>2024-03-31T22:33:14.002Z</time>
      </trkpt>
      <trkpt lat="48.37676" lon="6.8618">
        <ele>496</ele>
        <time>2024-03-31T22:33:16.520Z</time>
      </trkpt>
      <trkpt lat="48.37675" lon="6.86183">
        <ele>496</ele>
        <time>2024-03-31T22:33:19.039Z</time>
      </trkpt>
      <trkpt lat="48.37665" lon="6.86198">
        <ele>496.4</ele>
        <time>2024-03-31T22:33:21.561Z</time>
      </trkpt>
      <trkpt lat="48.37662" lon="6.86204">
        <ele>496.4</ele>
        <time>2024-03-31T22:33:24.084Z</time>
      </trkpt>
      <trkpt lat="48.37661" lon="6.8621">
        <ele>496.4</ele>
        <time>2024-03-31T22:33:26.608Z</time>
      </trkpt>
      <trkpt lat="48.37661" lon="6.86212">
        <ele>496.4</ele>
        <time>2024-03-31T22:33:29.133Z</time>
      </trkpt>
      <trkpt lat="48.3766" lon="6.86214">
        <ele>496.6</ele>
        <time>2024-03-31T22:33:31.658Z</time>
      </trkpt>
      <trkpt lat="48.37659" lon="6.86237">
        <ele>497.4</ele>
        <time>2024-03-31T22:33:34.187Z</time>
      </trkpt>
      <trkpt lat="48.37659" lon="6.8624">
        <ele>497.4</ele>
        <time>2024-03-31T22:33:36.716Z</time>
      </trkpt>
      <trkpt lat="48.37657" lon="6.86242">
        <ele>497.6</ele>
        <time>2024-03-31T22:33:39.246Z</time>
      </trkpt>
      <trkpt lat="48.37657" lon="6.86242">
        <ele>497.8</ele>
        <time>2024-03-31T22:33:41.776Z</time>
      </trkpt>
      <trkpt lat="48.37652" lon="6.86263">
        <ele>499.4</ele>
        <time>2024-03-31T22:33:44.310Z</time>
      </trkpt>
      <trkpt lat="48.37651" lon="6.86268">
        <ele>499.4</ele>
        <time>2024-03-31T22:33:46.845Z</time>
      </trkpt>
      <trkpt lat="48.37648" lon="6.86278">
        <ele>499.4</ele>
        <time>2024-03-31T22:33:49.382Z</time>
      </trkpt>
      <trkpt lat="48.37646" lon="6.86281">
        <ele>499.4</ele>
        <time>2024-03-31T22:33:51.919Z</time>
      </trkpt>
      <trkpt lat="48.37643" lon="6.86285">
        <ele>499.6</ele>
        <time>2024-03-31T22:33:54.457Z</time>
      </trkpt>
      <trkpt lat="48.37642" lon="6.86286">
        <ele>499.8</ele>
        <time>2024-03-31T22:33:56.995Z</time>
      </trkpt>
      <trkpt lat="48.37651" lon="6.86281">
        <ele>500.2</ele>
        <time>2024-03-31T22:33:59.536Z</time>
      </trkpt>
      <trkpt lat="48.37659" lon="6.8626">
        <ele>500.2</ele>
        <time>2024-03-31T22:34:02.081Z</time>
      </trkpt>
      <trkpt lat="48.3766" lon="6.86256">
        <ele>500.2</ele>
        <time>2024-03-31T22:34:04.627Z</time>
      </trkpt>
      <trkpt lat="48.3766" lon="6.86256">
        <ele>499.6</ele>
        <time>2024-03-31T22:34:07.173Z</time>
      </trkpt>
      <trkpt lat="48.37661" lon="6.86256">
        <ele>499.4</ele>
        <time>2024-03-31T22:34:09.719Z</time>
      </trkpt>
      <trkpt lat="48.37662" lon="6.86256">
        <ele>499.4</ele>
        <time>2024-03-31T22:34:12.265Z</time>
      </trkpt>
      <trkpt lat="48.37663" lon="6.86255">
        <ele>499.2</ele>
        <time>2024-03-31T22:34:14.812Z</time>
      </trkpt>
      <trkpt lat="48.37663" lon="6.86251">
        <ele>499.2</ele>
        <time>2024-03-31T22:34:17.359Z</time>
      </trkpt>
      <trkpt lat="48.37662" lon="6.86248">
        <ele>498.8</ele>
        <time>2024-03-31T22:34:19.907Z</time>
      </trkpt>
      <trkpt lat="48.37661" lon="6.86237">
        <ele>498.4</ele>
        <time>2024-03-31T22:34:22.457Z</time>
      </trkpt>
      <trkpt lat="48.37662" lon="6.86235">
        <ele>498.2</ele>
        <time>2024-03-31T22:34:25.007Z</time>
      </trkpt>
      <trkpt lat="48.37662" lon="6.86233">
        <ele>498</ele>
        <time>2024-03-31T22:34:27.557Z</time>
      </trkpt>
      <trkpt lat="48.37663" lon="6.86224">
        <ele>497.2</ele>
        <time>2024-03-31T22:34:30.109Z</time>
      </trkpt>
      <trkpt lat="48.37664" lon="6.86221">
        <ele>496.8</ele>
        <time>2024-03-31T22:34:32.661Z</time>
      </trkpt>
      <trkpt lat="48.37669" lon="6.86212">
        <ele>496.2</ele>
        <time>2024-03-31T22:34:35.216Z</time>
      </trkpt>
      <trkpt lat="48.37672" lon="6.86208">
        <ele>496.2</ele>
        <time>2024-03-31T22:34:37.771Z</time>
      </trkpt>
      <trkpt lat="48.37679" lon="6.86197">
        <ele>496</ele>
        <time>2024-03-31T22:34:40.329Z</time>
      </trkpt>
      <trkpt lat="48.37685" lon="6.8619">
        <ele>495.8</ele>
        <time>2024-03-31T22:34:42.889Z</time>
      </trkpt>
      <trkpt lat="48.37693" lon="6.86166">
        <ele>495.6</ele>
        <time>2024-03-31T22:34:45.454Z</time>
      </trkpt>
      <trkpt lat="48.37698" lon="6.86137">
        <ele>494.6</ele>
        <time>2024-03-31T22:34:48.024Z</time>
      </trkpt>
      <trkpt lat="48.37699" lon="6.86129">
        <ele>494.4</ele>
        <time>2024-03-31T22:34:50.595Z</time>
      </trkpt>
      <trkpt lat="48.37706" lon="6.8611">
        <ele>493.8</ele>
        <time>2024-03-31T22:34:53.170Z</time>
      </trkpt>
      <trkpt lat="48.3771" lon="6.86095">
        <ele>493.6</ele>
        <time>2024-03-31T22:34:55.748Z</time>
      </trkpt>
      <trkpt lat="48.37708" lon="6.86087">
        <ele>493.6</ele>
        <time>2024-03-31T22:34:58.327Z</time>
      </trkpt>
      <trkpt lat="48.37705" lon="6.86078">
        <ele>493.6</ele>
        <time>2024-03-31T22:35:00.908Z</time>
      </trkpt>
      <trkpt lat="48.377" lon="6.86064">
        <ele>493.4</ele>
        <time>2024-03-31T22:35:03.491Z</time>
      </trkpt>
      <trkpt lat="48.377" lon="6.86059">
        <ele>493.4</ele>
        <time>2024-03-31T22:35:06.075Z</time>
      </trkpt>
      <trkpt lat="48.37702" lon="6.86039">
        <ele>492.8</ele>
        <time>2024-03-31T22:35:08.663Z</time>
      </trkpt>
      <trkpt lat="48.37702" lon="6.86023">
        <ele>491.6</ele>
        <time>2024-03-31T22:35:11.253Z</time>
      </trkpt>
      <trkpt lat="48.37701" lon="6.86016">
        <ele>491.2</ele>
        <time>2024-03-31T22:35:13.845Z</time>
      </trkpt>
      <trkpt lat="48.377" lon="6.85988">
        <ele>490.2</ele>
        <time>2024-03-31T22:35:16.441Z</time>
      </trkpt>
      <trkpt lat="48.37701" lon="6.85979">
        <ele>489.4</ele>
        <time>2024-03-31T22:35:19.039Z</time>
      </trkpt>
      <trkpt lat="48.37698" lon="6.85961">
        <ele>489.2</ele>
        <time>2024-03-31T22:35:21.640Z</time>
      </trkpt>
      <trkpt lat="48.37696" lon="6.85952">
        <ele>489</ele>
        <time>2024-03-31T22:35:24.243Z</time>
      </trkpt>
      <trkpt lat="48.37696" lon="6.85944">
        <ele>488.8</ele>
        <time>2024-03-31T22:35:26.847Z</time>
      </trkpt>
      <trkpt lat="48.37694" lon="6.85937">
        <ele>487.8</ele>
        <time>2024-03-31T22:35:29.452Z</time>
      </trkpt>
      <trkpt lat="48.37691" lon="6.85932">
        <ele>487.6</ele>
        <time>2024-03-31T22:35:32.058Z</time>
      </trkpt>
      <trkpt lat="48.37681" lon="6.85927">
        <ele>486.8</ele>
        <time>2024-03-31T22:35:34.667Z</time>
      </trkpt>
      <trkpt lat="48.37679" lon="6.85926">
        <ele>486.6</ele>
        <time>2024-03-31T22:35:37.276Z</time>
      </trkpt>
      <trkpt lat="48.37665" lon="6.85921">
        <ele>485.4</ele>
        <time>2024-03-31T22:35:39.889Z</time>
      </trkpt>
      <trkpt lat="48.37659" lon="6.85918">
        <ele>485</ele>
        <time>2024-03-31T22:35:42.504Z</time>
      </trkpt>
      <trkpt lat="48.37657" lon="6.85912">
        <ele>484.4</ele>
        <time>2024-03-31T22:35:45.120Z</time>
      </trkpt>
      <trkpt lat="48.37655" lon="6.8591">
        <ele>484</ele>
        <time>2024-03-31T22:35:47.736Z</time>
      </trkpt>
      <trkpt lat="48.37654" lon="6.85904">
        <ele>483.8</ele>
        <time>2024-03-31T22:35:50.354Z</time>
      </trkpt>
      <trkpt lat="48.37653" lon="6.85902">
        <ele>483.8</ele>
        <time>2024-03-31T22:35:52.972Z</time>
      </trkpt>
      <trkpt lat="48.37655" lon="6.85902">
        <ele>483.4</ele>
        <time>2024-03-31T22:35:55.591Z</time>
      </trkpt>
      <trkpt lat="48.37658" lon="6.85903">
        <ele>483.2</ele>
        <time>2024-03-31T22:35:58.210Z</time>
      </trkpt>
      <trkpt lat="48.37665" lon="6.85898">
        <ele>483.2</ele>
        <time>2024-03-31T22:36:00.831Z</time>
      </trkpt>
      <trkpt lat="48.3767" lon="6.85892">
        <ele>482.6</ele>
        <time>2024-03-31T22:36:03.454Z</time>
      </trkpt>
      <trkpt lat="48.3767" lon="6.85889">
        <ele>482</ele>
        <time>2024-03-31T22:36:06.077Z</time>
      </trkpt>
      <trkpt lat="48.37671" lon="6.85881">
        <ele>481.2</ele>
        <time>2024-03-31T22:36:08.702Z</time>
      </trkpt>
      <trkpt lat="48.37673" lon="6.85871">
        <ele>480.2</ele>
        <time>2024-03-31T22:36:11.329Z</time>
      </trkpt>
      <trkpt lat="48.37669" lon="6.85851">
        <ele>478.4</ele>
        <time>2024-03-31T22:36:13.959Z</time>
      </trkpt>
      <trkpt lat="48.37667" lon="6.85835">
        <ele>477.4</ele>
        <time>2024-03-31T22:36:16.592Z</time>
      </trkpt>
      <trkpt lat="48.37666" lon="6.85821">
        <ele>476.4</ele>
        <time>2024-03-31T22:36:19.227Z</time>
      </trkpt>
      <trkpt lat="48.37666" lon="6.85815">
        <ele>476.4</ele>
        <time>2024-03-31T22:36:21.863Z</time>
      </trkpt>
      <trkpt lat="48.37665" lon="6.858">
        <ele>474.6</ele>
        <time>2024-03-31T22:36:24.502Z</time>
      </trkpt>
      <trkpt lat="48.37665" lon="6.85796">
        <ele>474.2</ele>
        <time>2024-03-31T22:36:27.141Z</time>
      </trkpt>
      <trkpt lat="48.37665" lon="6.85785">
        <ele>472.8</ele>
        <time>2024-03-31T22:36:29.782Z</time>
      </trkpt>
      <trkpt lat="48.37661" lon="6.85771">
        <ele>472.2</ele>
        <time>2024-03-31T22:36:32.426Z</time>
      </trkpt>
      <trkpt lat="48.37661" lon="6.85764">
        <ele>472</ele>
        <time>2024-03-31T22:36:35.071Z</time>
      </trkpt>
      <trkpt lat="48.37662" lon="6.85756">
        <ele>471.8</ele>
        <time>2024-03-31T22:36:37.718Z</time>
      </trkpt>
      <trkpt lat="48.37662" lon="6.85746">
        <ele>471.8</ele>
        <time>2024-03-31T22:36:40.366Z</time>
      </trkpt>
      <trkpt lat="48.37662" lon="6.85725">
        <ele>471</ele>
        <time>2024-03-31T22:36:43.018Z</time>
      </trkpt>
      <trkpt lat="48.37663" lon="6.85716">
        <ele>470.6</ele>
        <time>2024-03-31T22:36:45.671Z</time>
      </trkpt>
      <trkpt lat="48.37668" lon="6.85699">
        <ele>470.2</ele>
        <time>2024-03-31T22:36:48.327Z</time>
      </trkpt>
      <trkpt lat="48.37672" lon="6.85691">
        <ele>470</ele>
        <time>2024-03-31T22:36:50.985Z</time>
      </trkpt>
      <trkpt lat="48.37676" lon="6.85685">
        <ele>469.6</ele>
        <time>2024-03-31T22:36:53.644Z</time>
      </trkpt>
      <trkpt lat="48.37679" lon="6.85679">
        <ele>469.2</ele>
        <time>2024-03-31T22:36:56.305Z</time>
      </trkpt>
      <trkpt lat="48.3768" lon="6.85675">
        <ele>468.8</ele>
        <time>2024-03-31T22:36:58.966Z</time>
      </trkpt>
      <trkpt lat="48.37683" lon="6.85671">
        <ele>468.2</ele>
        <time>2024-03-31T22:37:01.629Z</time>
      </trkpt>
      <trkpt lat="48.37693" lon="6.85658">
        <ele>466.2</ele>
        <time>2024-03-31T22:37:04.295Z</time>
      </trkpt>
      <trkpt lat="48.37695" lon="6.85656">
        <ele>466.2</ele>
        <time>2024-03-31T22:37:06.962Z</time>
      </trkpt>
      <trkpt lat="48.37696" lon="6.85654">
        <ele>465.2</ele>
        <time>2024-03-31T22:37:09.629Z</time>
      </trkpt>
      <trkpt lat="48.377" lon="6.8565">
        <ele>464</ele>
        <time>2024-03-31T22:37:12.297Z</time>
      </trkpt>
      <trkpt lat="48.37704" lon="6.85647">
        <ele>463</ele>
        <time>2024-03-31T22:37:14.966Z</time>
      </trkpt>
      <trkpt lat="48.37719" lon="6.85632">
        <ele>460.4</ele>
        <time>2024-03-31T22:37:17.640Z</time>
      </trkpt>
      <trkpt lat="48.37729" lon="6.85621">
        <ele>459.6</ele>
        <time>2024-03-31T22:37:20.317Z</time>
      </trkpt>
      <trkpt lat="48.37733" lon="6.85618">
        <ele>459</ele>
        <time>2024-03-31T22:37:22.995Z</time>
      </trkpt>
      <trkpt lat="48.37734" lon="6.85613">
        <ele>458</ele>
        <time>2024-03-31T22:37:25.674Z</time>
      </trkpt>
      <trkpt lat="48.37735" lon="6.85612">
        <ele>457.4</ele>
        <time>2024-03-31T22:37:28.353Z</time>
      </trkpt>
      <trkpt lat="48.37735" lon="6.85609">
        <ele>457</ele>
        <time>2024-03-31T22:37:31.033Z</time>
      </trkpt>
      <trkpt lat="48.37737" lon="6.85606">
        <ele>456.6</ele>
        <time>2024-03-31T22:37:33.713Z</time>
      </trkpt>
      <trkpt lat="48.37742" lon="6.856">
        <ele>455.8</ele>
        <time>2024-03-31T22:37:36.395Z</time>
      </trkpt>
      <trkpt lat="48.37747" lon="6.85591">
        <ele>454.8</ele>
        <time>2024-03-31T22:37:39.079Z</time>
      </trkpt>
      <trkpt lat="48.37751" lon="6.85588">
        <ele>454.2</ele>
        <time>2024-03-31T22:37:41.764Z</time>
      </trkpt>
      <trkpt lat="48.37751" lon="6.85587">
        <ele>453.6</ele>
        <time>2024-03-31T22:37:44.449Z</time>
      </trkpt>
      <trkpt lat="48.3776" lon="6.8558">
        <ele>451.8</ele>
        <time>2024-03-31T22:37:47.137Z</time>
      </trkpt>
      <trkpt lat="48.37763" lon="6.85578">
        <ele>451.4</ele>
        <time>2024-03-31T22:37:49.826Z</time>
      </trkpt>
      <trkpt lat="48.37766" lon="6.85578">
        <ele>450.8</ele>
        <time>2024-03-31T22:37:52.515Z</time>
      </trkpt>
      <trkpt lat="48.37769" lon="6.85577">
        <ele>450.2</ele>
        <time>2024-03-31T22:37:55.205Z</time>
      </trkpt>
      <trkpt lat="48.3777" lon="6.85576">
        <ele>449.6</ele>
        <time>2024-03-31T22:37:57.895Z</time>
      </trkpt>
      <trkpt lat="48.3777" lon="6.85576">
        <ele>448.8</ele>
        <time>2024-03-31T22:38:00.586Z</time>
      </trkpt>
      <trkpt lat="48.37786" lon="6.85567">
        <ele>447.6</ele>
        <time>2024-03-31T22:38:03.281Z</time>
      </trkpt>
      <trkpt lat="48.37789" lon="6.85563">
        <ele>447.4</ele>
        <time>2024-03-31T22:38:05.977Z</time>
      </trkpt>
      <trkpt lat="48.378" lon="6.85555">
        <ele>446.4</ele>
        <time>2024-03-31T22:38:08.676Z</time>
      </trkpt>
      <trkpt lat="48.37812" lon="6.85538">
        <ele>444.4</ele>
        <time>2024-03-31T22:38:11.379Z</time>
      </trkpt>
      <trkpt lat="48.37815" lon="6.85535">
        <ele>444.2</ele>
        <time>2024-03-31T22:38:14.083Z</time>
      </trkpt>
      <trkpt lat="48.37819" lon="6.85529">
        <ele>443.4</ele>
        <time>2024-03-31T22:38:16.788Z</time>
      </trkpt>
      <trkpt lat="48.37826" lon="6.85518">
        <ele>442.4</ele>
        <time>2024-03-31T22:38:19.496Z</time>
      </trkpt>
      <trkpt lat="48.37828" lon="6.85513">
        <ele>442.2</ele>
        <time>2024-03-31T22:38:22.205Z</time>
      </trkpt>
      <trkpt lat="48.3783" lon="6.85503">
        <ele>441.8</ele>
        <time>2024-03-31T22:38:24.916Z</time>
      </trkpt>
      <trkpt lat="48.37826" lon="6.85495">
        <ele>441.2</ele>
        <time>2024-03-31T22:38:27.629Z</time>
      </trkpt>
      <trkpt lat="48.37825" lon="6.85491">
        <ele>440.6</ele>
        <time>2024-03-31T22:38:30.342Z</time>
      </trkpt>
      <trkpt lat="48.37825" lon="6.85484">
        <ele>439.6</ele>
        <time>2024-03-31T22:38:33.056Z</time>
      </trkpt>
      <trkpt lat="48.37824" lon="6.85481">
        <ele>439.4</ele>
        <time>2024-03-31T22:38:35.771Z</time>
      </trkpt>
      <trkpt lat="48.37824" lon="6.85479">
        <ele>438.4</ele>
        <time>2024-03-31T22:38:38.486Z</time>
      </trkpt>
      <trkpt lat="48.37824" lon="6.85479">
        <ele>438.2</ele>
        <time>2024-03-31T22:38:41.201Z</time>
      </trkpt>
      <trkpt lat="48.37829" lon="6.85467">
        <ele>437.4</ele>
        <time>2024-03-31T22:38:43.919Z</time>
      </trkpt>
      <trkpt lat="48.37836" lon="6.85457">
        <ele>437</ele>
        <time>2024-03-31T22:38:46.639Z</time>
      </trkpt>
      <trkpt lat="48.37842" lon="6.8545">
        <ele>436.6</ele>
        <time>2024-03-31T22:38:49.361Z</time>
      </trkpt>
      <trkpt lat="48.37854" lon="6.85434">
        <ele>436.2</ele>
        <time>2024-03-31T22:38:52.087Z</time>
      </trkpt>
      <trkpt lat="48.3786" lon="6.85427">
        <ele>435.6</ele>
        <time>2024-03-31T22:38:54.815Z</time>
      </trkpt>
      <trkpt lat="48.37868" lon="6.85419">
        <ele>434.4</ele>
        <time>2024-03-31T22:38:57.546Z</time>
      </trkpt>
      <trkpt lat="48.37871" lon="6.85417">
        <ele>432.8</ele>
        <time>2024-03-31T22:39:00.278Z</time>
      </trkpt>
      <trkpt lat="48.37881" lon="6.85414">
        <ele>431.4</ele>
        <time>2024-03-31T22:39:03.012Z</time>
      </trkpt>
      <trkpt lat="48.37892" lon="6.85412">
        <ele>430.6</ele>
        <time>2024-03-31T22:39:05.749Z</time>
      </trkpt>
      <trkpt lat="48.37903" lon="6.85411">
        <ele>430.4</ele>
        <time>2024-03-31T22:39:08.489Z</time>
      </trkpt>
      <trkpt lat="48.37916" lon="6.85412">
        <ele>429.4</ele>
        <time>2024-03-31T22:39:11.232Z</time>
      </trkpt>
      <trkpt lat="48.37923" lon="6.85413">
        <ele>428.6</ele>
        <time>2024-03-31T22:39:13.977Z</time>
      </trkpt>
      <trkpt lat="48.3793" lon="6.85414">
        <ele>428.4</ele>
        <time>2024-03-31T22:39:16.724Z</time>
      </trkpt>
      <trkpt lat="48.37937" lon="6.85416">
        <ele>428</ele>
        <time>2024-03-31T22:39:19.472Z</time>
      </trkpt>
      <trkpt lat="48.37954" lon="6.85417">
        <ele>426.8</ele>
        <time>2024-03-31T22:39:22.225Z</time>
      </trkpt>
      <trkpt lat="48.37961" lon="6.85418">
        <ele>426.2</ele>
        <time>2024-03-31T22:39:24.980Z</time>
      </trkpt>
      <trkpt lat="48.37969" lon="6.8542">
        <ele>425.2</ele>
        <time>2024-03-31T22:39:27.736Z</time>
      </trkpt>
      <trkpt lat="48.37977" lon="6.85424">
        <ele>424.8</ele>
        <time>2024-03-31T22:39:30.495Z</time>
      </trkpt>
      <trkpt lat="48.37984" lon="6.85427">
        <ele>424</ele>
        <time>2024-03-31T22:39:33.256Z</time>
      </trkpt>
      <trkpt lat="48.38001" lon="6.85434">
        <ele>422.8</ele>
        <time>2024-03-31T22:39:36.021Z</time>
      </trkpt>
      <trkpt lat="48.38011" lon="6.85437">
        <ele>421.4</ele>
        <time>2024-03-31T22:39:38.789Z</time>
      </trkpt>
      <trkpt lat="48.38029" lon="6.85441">
        <ele>419.8</ele>
        <time>2024-03-31T22:39:41.561Z</time>
      </trkpt>
      <trkpt lat="48.38045" lon="6.85439">
        <ele>417.8</ele>
        <time>2024-03-31T22:39:44.337Z</time>
      </trkpt>
      <trkpt lat="48.38052" lon="6.85441">
        <ele>417</ele>
        <time>2024-03-31T22:39:47.115Z</time>
      </trkpt>
      <trkpt lat="48.38059" lon="6.85444">
        <ele>416</ele>
        <time>2024-03-31T22:39:49.895Z</time>
      </trkpt>
      <trkpt lat="48.38074" lon="6.85451">
        <ele>414.8</ele>
        <time>2024-03-31T22:39:52.679Z</time>
      </trkpt>
      <trkpt lat="48.38083" lon="6.85458">
        <ele>413.4</ele>
        <time>2024-03-31T22:39:55.466Z</time>
      </trkpt>
      <trkpt lat="48.38087" lon="6.85458">
        <ele>412</ele>
        <time>2024-03-31T22:39:58.254Z</time>
      </trkpt>
      <trkpt lat="48.3809" lon="6.85458">
        <ele>411.4</ele>
        <time>2024-03-31T22:40:01.042Z</time>
      </trkpt>
      <trkpt lat="48.38095" lon="6.85457">
        <ele>410.2</ele>
        <time>2024-03-31T22:40:03.832Z</time>
      </trkpt>
      <trkpt lat="48.381" lon="6.85456">
        <ele>409.8</ele>
        <time>2024-03-31T22:40:06.623Z</time>
      </trkpt>
      <trkpt lat="48.38106" lon="6.85457">
        <ele>408.8</ele>
        <time>2024-03-31T22:40:09.415Z</time>
      </trkpt>
      <trkpt lat="48.38119" lon="6.85455">
        <ele>407.8</ele>
        <time>2024-03-31T22:40:12.211Z</time>
      </trkpt>
      <trkpt lat="48.38124" lon="6.85455">
        <ele>407.6</ele>
        <time>2024-03-31T22:40:15.008Z</time>
      </trkpt>
      <trkpt lat="48.38129" lon="6.85454">
        <ele>406.6</ele>
        <time>2024-03-31T22:40:17.806Z</time>
      </trkpt>
      <trkpt lat="48.38136" lon="6.85453">
        <ele>405.4</ele>
        <time>2024-03-31T22:40:20.606Z</time>
      </trkpt>
      <trkpt lat="48.38138" lon="6.85452">
        <ele>404.6</ele>
        <time>2024-03-31T22:40:23.407Z</time>
      </trkpt>
      <trkpt lat="48.3814" lon="6.85453">
        <ele>404.2</ele>
        <time>2024-03-31T22:40:26.208Z</time>
      </trkpt>
      <trkpt lat="48.38147" lon="6.85456">
        <ele>402.8</ele>
        <time>2024-03-31T22:40:29.011Z</time>
      </trkpt>
      <trkpt lat="48.38157" lon="6.85456">
        <ele>402</ele>
        <time>2024-03-31T22:40:31.817Z</time>
      </trkpt>
      <trkpt lat="48.38162" lon="6.85455">
        <ele>401.4</ele>
        <time>2024-03-31T22:40:34.624Z</time>
      </trkpt>
      <trkpt lat="48.38176" lon="6.85456">
        <ele>400</ele>
        <time>2024-03-31T22:40:37.434Z</time>
      </trkpt>
      <trkpt lat="48.38195" lon="6.85456">
        <ele>398.6</ele>
        <time>2024-03-31T22:40:40.249Z</time>
      </trkpt>
      <trkpt lat="48.38199" lon="6.85457">
        <ele>398.4</ele>
        <time>2024-03-31T22:40:43.065Z</time>
      </trkpt>
      <trkpt lat="48.38205" lon="6.85456">
        <ele>397.6</ele>
        <time>2024-03-31T22:40:45.883Z</time>
      </trkpt>
      <trkpt lat="48.38215" lon="6.8546">
        <ele>396.2</ele>
        <time>2024-03-31T22:40:48.703Z</time>
      </trkpt>
      <trkpt lat="48.38218" lon="6.85458">
        <ele>395.6</ele>
        <time>2024-03-31T22:40:51.524Z</time>
      </trkpt>
      <trkpt lat="48.38222" lon="6.85458">
        <ele>394.4</ele>
        <time>2024-03-31T22:40:54.346Z</time>
      </trkpt>
      <trkpt lat="48.38226" lon="6.85458">
        <ele>393.8</ele>
        <time>2024-03-31T22:40:57.169Z</time>
      </trkpt>
      <trkpt lat="48.3823" lon="6.85458">
        <ele>392.8</ele>
        <time>2024-03-31T22:40:59.993Z</time>
      </trkpt>
      <trkpt lat="48.38234" lon="6.85458">
        <ele>392.4</ele>
        <time>2024-03-31T22:41:02.818Z</time>
      </trkpt>
      <trkpt lat="48.38237" lon="6.85457">
        <ele>391.8</ele>
        <time>2024-03-31T22:41:05.644Z</time>
      </trkpt>
      <trkpt lat="48.38243" lon="6.85459">
        <ele>390.6</ele>
        <time>2024-03-31T22:41:08.471Z</time>
      </trkpt>
      <trkpt lat="48.3825" lon="6.85461">
        <ele>389.4</ele>
        <time>2024-03-31T22:41:11.300Z</time>
      </trkpt>
      <trkpt lat="48.38255" lon="6.85462">
        <ele>389</ele>
        <time>2024-03-31T22:41:14.131Z</time>
      </trkpt>
      <trkpt lat="48.3826" lon="6.85464">
        <ele>387.8</ele>
        <time>2024-03-31T22:41:16.963Z</time>
      </trkpt>
      <trkpt lat="48.38268" lon="6.85464">
        <ele>386.6</ele>
        <time>2024-03-31T22:41:19.797Z</time>
      </trkpt>
      <trkpt lat="48.38274" lon="6.8546">
        <ele>386.2</ele>
        <time>2024-03-31T22:41:22.633Z</time>
      </trkpt>
      <trkpt lat="48.38279" lon="6.85459">
        <ele>385.6</ele>
        <time>2024-03-31T22:41:25.470Z</time>
      </trkpt>
      <trkpt lat="48.38288" lon="6.85457">
        <ele>384.6</ele>
        <time>2024-03-31T22:41:28.309Z</time>
      </trkpt>
      <trkpt lat="48.38295" lon="6.85456">
        <ele>383.4</ele>
        <time>2024-03-31T22:41:31.150Z</time>
      </trkpt>
      <trkpt lat="48.38299" lon="6.85453">
        <ele>383</ele>
        <time>2024-03-31T22:41:33.992Z</time>
      </trkpt>
      <trkpt lat="48.38302" lon="6.85452">
        <ele>382.2</ele>
        <time>2024-03-31T22:41:36.835Z</time>
      </trkpt>
      <trkpt lat="48.38315" lon="6.85442">
        <ele>380.8</ele>
        <time>2024-03-31T22:41:39.682Z</time>
      </trkpt>
      <trkpt lat="48.3832" lon="6.85438">
        <ele>380.4</ele>
        <time>2024-03-31T22:41:42.530Z</time>
      </trkpt>
      <trkpt lat="48.3833" lon="6.85427">
        <ele>379.6</ele>
        <time>2024-03-31T22:41:45.381Z</time>
      </trkpt>
      <trkpt lat="48.38334" lon="6.85423">
        <ele>379.4</ele>
        <time>2024-03-31T22:41:48.234Z</time>
      </trkpt>
      <trkpt lat="48.38346" lon="6.85411">
        <ele>378.6</ele>
        <time>2024-03-31T22:41:51.090Z</time>
      </trkpt>
      <trkpt lat="48.38348" lon="6.85406">
        <ele>378</ele>
        <time>2024-03-31T22:41:53.947Z</time>
      </trkpt>
      <trkpt lat="48.38352" lon="6.85401">
        <ele>377</ele>
        <time>2024-03-31T22:41:56.805Z</time>
      </trkpt>
      <trkpt lat="48.38358" lon="6.85391">
        <ele>375.8</ele>
        <time>2024-03-31T22:41:59.666Z</time>
      </trkpt>
      <trkpt lat="48.38359" lon="6.85385">
        <ele>375</ele>
        <time>2024-03-31T22:42:02.528Z</time>
      </trkpt>
      <trkpt lat="48.38362" lon="6.8538">
        <ele>374.6</ele>
        <time>2024-03-31T22:42:05.391Z</time>
      </trkpt>
      <trkpt lat="48.38364" lon="6.85376">
        <ele>373.8</ele>
        <time>2024-03-31T22:42:08.255Z</time>
      </trkpt>
      <trkpt lat="48.38369" lon="6.8537">
        <ele>373</ele>
        <time>2024-03-31T22:42:11.120Z</time>
      </trkpt>
      <trkpt lat="48.38373" lon="6.85364">
        <ele>372.4</ele>
        <time>2024-03-31T22:42:13.987Z</time>
      </trkpt>
      <trkpt lat="48.38377" lon="6.85359">
        <ele>371.6</ele>
        <time>2024-03-31T22:42:16.855Z</time>
      </trkpt>
      <trkpt lat="48.3838" lon="6.85354">
        <ele>370.8</ele>
        <time>2024-03-31T22:42:19.724Z</time>
      </trkpt>
      <trkpt lat="48.3838" lon="6.8535">
        <ele>370.4</ele>
        <time>2024-03-31T22:42:22.594Z</time>
      </trkpt>
      <trkpt lat="48.38382" lon="6.85346">
        <ele>369.6</ele>
        <time>2024-03-31T22:42:25.465Z</time>
      </trkpt>
      <trkpt lat="48.38384" lon="6.85342">
        <ele>369.2</ele>
        <time>2024-03-31T22:42:28.337Z</time>
      </trkpt>
      <trkpt lat="48.38385" lon="6.85326">
        <ele>368</ele>
        <time>2024-03-31T22:42:31.211Z</time>
      </trkpt>
      <trkpt lat="48.38393" lon="6.85305">
        <ele>366.8</ele>
        <time>2024-03-31T22:42:34.089Z</time>
      </trkpt>
      <trkpt lat="48.38398" lon="6.85289">
        <ele>365.6</ele>
        <time>2024-03-31T22:42:36.970Z</time>
      </trkpt>
      <trkpt lat="48.38399" lon="6.85285">
        <ele>364.4</ele>
        <time>2024-03-31T22:42:39.852Z</time>
      </trkpt>
      <trkpt lat="48.384" lon="6.85281">
        <ele>363.2</ele>
        <time>2024-03-31T22:42:42.735Z</time>
      </trkpt>
      <trkpt lat="48.38409" lon="6.85244">
        <ele>361.8</ele>
        <time>2024-03-31T22:42:45.625Z</time>
      </trkpt>
      <trkpt lat="48.38412" lon="6.85235">
        <ele>361.6</ele>
        <time>2024-03-31T22:42:48.516Z</time>
      </trkpt>
      <trkpt lat="48.38415" lon="6.85226">
        <ele>361.6</ele>
        <time>2024-03-31T22:42:51.409Z</time>
      </trkpt>
      <trkpt lat="48.38418" lon="6.85218">
        <ele>360.8</ele>
        <time>2024-03-31T22:42:54.303Z</time>
      </trkpt>
      <trkpt lat="48.38422" lon="6.85212">
        <ele>360.6</ele>
        <time>2024-03-31T22:42:57.199Z</time>
      </trkpt>
      <trkpt lat="48.38426" lon="6.85208">
        <ele>359.8</ele>
        <time>2024-03-31T22:43:00.096Z</time>
      </trkpt>
      <trkpt lat="48.38429" lon="6.85205">
        <ele>359.4</ele>
        <time>2024-03-31T22:43:02.994Z</time>
      </trkpt>
      <trkpt lat="48.38431" lon="6.85202">
        <ele>358.2</ele>
        <time>2024-03-31T22:43:05.893Z</time>
      </trkpt>
      <trkpt lat="48.38432" lon="6.85201">
        <ele>356.6</ele>
        <time>2024-03-31T22:43:08.792Z</time>
      </trkpt>
      <trkpt lat="48.38434" lon="6.85202">
        <ele>355.6</ele>
        <time>2024-03-31T22:43:11.692Z</time>
      </trkpt>
      <trkpt lat="48.38436" lon="6.85201">
        <ele>353.8</ele>
        <time>2024-03-31T22:43:14.592Z</time>
      </trkpt>
      <trkpt lat="48.38438" lon="6.85201">
        <ele>353.4</ele>
        <time>2024-03-31T22:43:17.493Z</time>
      </trkpt>
      <trkpt lat="48.38442" lon="6.85203">
        <ele>352.6</ele>
        <time>2024-03-31T22:43:20.395Z</time>
      </trkpt>
      <trkpt lat="48.38446" lon="6.85204">
        <ele>352.2</ele>
        <time>2024-03-31T22:43:23.298Z</time>
      </trkpt>
      <trkpt lat="48.38449" lon="6.85204">
        <ele>351.4</ele>
        <time>2024-03-31T22:43:26.201Z</time>
      </trkpt>
      <trkpt lat="48.38451" lon="6.85209">
        <ele>349</ele>
        <time>2024-03-31T22:43:29.105Z</time>
      </trkpt>
      <trkpt lat="48.38451" lon="6.85211">
        <ele>348.4</ele>
        <time>2024-03-31T22:43:32.010Z</time>
      </trkpt>
      <trkpt lat="48.38451" lon="6.85213">
        <ele>347</ele>
        <time>2024-03-31T22:43:34.915Z</time>
      </trkpt>
      <trkpt lat="48.38451" lon="6.85229">
        <ele>345.2</ele>
        <time>2024-03-31T22:43:37.823Z</time>
      </trkpt>
      <trkpt lat="48.38451" lon="6.85235">
        <ele>345</ele>
        <time>2024-03-31T22:43:40.732Z</time>
      </trkpt>
      <trkpt lat="48.38452" lon="6.85243">
        <ele>344.2</ele>
        <time>2024-03-31T22:43:43.642Z</time>
      </trkpt>
      <trkpt lat="48.38453" lon="6.85244">
        <ele>343</ele>
        <time>2024-03-31T22:43:46.552Z</time>
      </trkpt>
      <trkpt lat="48.38456" lon="6.85263">
        <ele>340.4</ele>
        <time>2024-03-31T22:43:49.466Z</time>
      </trkpt>
      <trkpt lat="48.38456" lon="6.85269">
        <ele>340.4</ele>
        <time>2024-03-31T22:43:52.381Z</time>
      </trkpt>
      <trkpt lat="48.38452" lon="6.85296">
        <ele>340.2</ele>
        <time>2024-03-31T22:43:55.300Z</time>
      </trkpt>
      <trkpt lat="48.38451" lon="6.85309">
        <ele>339.2</ele>
        <time>2024-03-31T22:43:58.222Z</time>
      </trkpt>
      <trkpt lat="48.38451" lon="6.85321">
        <ele>338.4</ele>
        <time>2024-03-31T22:44:01.146Z</time>
      </trkpt>
      <trkpt lat="48.38452" lon="6.85327">
        <ele>338.2</ele>
        <time>2024-03-31T22:44:04.071Z</time>
      </trkpt>
      <trkpt lat="48.38458" lon="6.85336">
        <ele>337.6</ele>
        <time>2024-03-31T22:44:06.998Z</time>
      </trkpt>
      <trkpt lat="48.38461" lon="6.85341">
        <ele>336.8</ele>
        <time>2024-03-31T22:44:09.926Z</time>
      </trkpt>
      <trkpt lat="48.38464" lon="6.85348">
        <ele>336.4</ele>
        <time>2024-03-31T22:44:12.855Z</time>
      </trkpt>
      <trkpt lat="48.38472" lon="6.85364">
        <ele>335.6</ele>
        <time>2024-03-31T22:44:15.788Z</time>
      </trkpt>
      <trkpt lat="48.38479" lon="6.85378">
        <ele>334.2</ele>
        <time>2024-03-31T22:44:18.724Z</time>
      </trkpt>
      <trkpt lat="48.38482" lon="6.85388">
        <ele>332.2</ele>
        <time>2024-03-31T22:44:21.662Z</time>
      </trkpt>
      <trkpt lat="48.38482" lon="6.85394">
        <ele>331.2</ele>
        <time>2024-03-31T22:44:24.601Z</time>
      </trkpt>
      <trkpt lat="48.38479" lon="6.85399">
        <ele>329.8</ele>
        <time>2024-03-31T22:44:27.541Z</time>
      </trkpt>
      <trkpt lat="48.38479" lon="6.85401">
        <ele>329.6</ele>
        <time>2024-03-31T22:44:30.481Z</time>
      </trkpt>
      <trkpt lat="48.38481" lon="6.85407">
        <ele>329.2</ele>
        <time>2024-03-31T22:44:33.422Z</time>
      </trkpt>
      <trkpt lat="48.38486" lon="6.8541">
        <ele>329</ele>
        <time>2024-03-31T22:44:36.364Z</time>
      </trkpt>
      <trkpt lat="48.38498" lon="6.85409">
        <ele>328.6</ele>
        <time>2024-03-31T22:44:39.310Z</time>
      </trkpt>
      <trkpt lat="48.38502" lon="6.85409">
        <ele>328.8</ele>
        <time>2024-03-31T22:44:42.257Z</time>
      </trkpt>
      <trkpt lat="48.38502" lon="6.85411">
        <ele>328.8</ele>
        <time>2024-03-31T22:44:45.204Z</time>
      </trkpt>
      <trkpt lat="48.38505" lon="6.85416">
        <ele>328.8</ele>
        <time>2024-03-31T22:44:48.152Z</time>
      </trkpt>
      <trkpt lat="48.38511" lon="6.85428">
        <ele>329.2</ele>
        <time>2024-03-31T22:44:51.103Z</time>
      </trkpt>
      <trkpt lat="48.38513" lon="6.8543">
        <ele>329.8</ele>
        <time>2024-03-31T22:44:54.054Z</time>
      </trkpt>
      <trkpt lat="48.38514" lon="6.85432">
        <ele>329.8</ele>
        <time>2024-03-31T22:44:57.006Z</time>
      </trkpt>
      <trkpt lat="48.38519" lon="6.85436">
        <ele>331.2</ele>
        <time>2024-03-31T22:44:59.959Z</time>
      </trkpt>
      <trkpt lat="48.38525" lon="6.85441">
        <ele>332.4</ele>
        <time>2024-03-31T22:45:02.914Z</time>
      </trkpt>
      <trkpt lat="48.38527" lon="6.85444">
        <ele>332.8</ele>
        <time>2024-03-31T22:45:05.869Z</time>
      </trkpt>
      <trkpt lat="48.38532" lon="6.85451">
        <ele>333.6</ele>
        <time>2024-03-31T22:45:08.826Z</time>
      </trkpt>
      <trkpt lat="48.38537" lon="6.85455">
        <ele>334.4</ele>
        <time>2024-03-31T22:45:11.785Z</time>
      </trkpt>
      <trkpt lat="48.38539" lon="6.85455">
        <ele>334.6</ele>
        <time>2024-03-31T22:45:14.744Z</time>
      </trkpt>
      <trkpt lat="48.38547" lon="6.8546">
        <ele>335.2</ele>
        <time>2024-03-31T22:45:17.705Z</time>
      </trkpt>
      <trkpt lat="48.38551" lon="6.85465">
        <ele>335.4</ele>
        <time>2024-03-31T22:45:20.667Z</time>
      </trkpt>
      <trkpt lat="48.38553" lon="6.85467">
        <ele>335.8</ele>
        <time>2024-03-31T22:45:23.630Z</time>
      </trkpt>
      <trkpt lat="48.38563" lon="6.85475">
        <ele>336.8</ele>
        <time>2024-03-31T22:45:26.596Z</time>
      </trkpt>
      <trkpt lat="48.38565" lon="6.85476">
        <ele>337</ele>
        <time>2024-03-31T22:45:29.563Z</time>
      </trkpt>
      <trkpt lat="48.38579" lon="6.85484">
        <ele>338</ele>
        <time>2024-03-31T22:45:32.533Z</time>
      </trkpt>
      <trkpt lat="48.38597" lon="6.85492">
        <ele>339</ele>
        <time>2024-03-31T22:45:35.508Z</time>
      </trkpt>
      <trkpt lat="48.38601" lon="6.85492">
        <ele>339.4</ele>
        <time>2024-03-31T22:45:38.484Z</time>
      </trkpt>
      <trkpt lat="48.38607" lon="6.8549">
        <ele>339.8</ele>
        <time>2024-03-31T22:45:41.462Z</time>
      </trkpt>
      <trkpt lat="48.38615" lon="6.85483">
        <ele>340.4</ele>
        <time>2024-03-31T22:45:44.442Z</time>
      </trkpt>
      <trkpt lat="48.38618" lon="6.85484">
        <ele>341</ele>
        <time>2024-03-31T22:45:47.423Z</time>
      </trkpt>
      <trkpt lat="48.38624" lon="6.85485">
        <ele>341.8</ele>
        <time>2024-03-31T22:45:50.406Z</time>
      </trkpt>
      <trkpt lat="48.38632" lon="6.85487">
        <ele>342.2</ele>
        <time>2024-03-31T22:45:53.390Z</time>
      </trkpt>
      <trkpt lat="48.38638" lon="6.85488">
        <ele>342.8</ele>
        <time>2024-03-31T22:45:56.376Z</time>
      </trkpt>
      <trkpt lat="48.38647" lon="6.85486">
        <ele>344</ele>
        <time>2024-03-31T22:45:59.364Z</time>
      </trkpt>
      <trkpt lat="48.38665" lon="6.85486">
        <ele>345</ele>
        <time>2024-03-31T22:46:02.357Z</time>
      </trkpt>
      <trkpt lat="48.38674" lon="6.85486">
        <ele>345.6</ele>
        <time>2024-03-31T22:46:05.352Z</time>
      </trkpt>
      <trkpt lat="48.38681" lon="6.85485">
        <ele>346.2</ele>
        <time>2024-03-31T22:46:08.349Z</time>
      </trkpt>
      <trkpt lat="48.38691" lon="6.85479">
        <ele>347.4</ele>
        <time>2024-03-31T22:46:11.349Z</time>
      </trkpt>
      <trkpt lat="48.38695" lon="6.85481">
        <ele>347.6</ele>
        <time>2024-03-31T22:46:14.350Z</time>
      </trkpt>
      <trkpt lat="48.38711" lon="6.85482">
        <ele>348.2</ele>
        <time>2024-03-31T22:46:17.355Z</time>
      </trkpt>
      <trkpt lat="48.38724" lon="6.85478">
        <ele>348.6</ele>
        <time>2024-03-31T22:46:20.363Z</time>
      </trkpt>
      <trkpt lat="48.38734" lon="6.85477">
        <ele>349.2</ele>
        <time>2024-03-31T22:46:23.374Z</time>
      </trkpt>
      <trkpt lat="48.38742" lon="6.85478">
        <ele>349.6</ele>
        <time>2024-03-31T22:46:26.387Z</time>
      </trkpt>
      <trkpt lat="48.38751" lon="6.8548">
        <ele>349.8</ele>
        <time>2024-03-31T22:46:29.402Z</time>
      </trkpt>
      <trkpt lat="48.38767" lon="6.8547">
        <ele>350</ele>
        <time>2024-03-31T22:46:32.421Z</time>
      </trkpt>
      <trkpt lat="48.38769" lon="6.85464">
        <ele>350.2</ele>
        <time>2024-03-31T22:46:35.442Z</time>
      </trkpt>
      <trkpt lat="48.38769" lon="6.85456">
        <ele>350.2</ele>
        <time>2024-03-31T22:46:38.464Z</time>
      </trkpt>
      <trkpt lat="48.3877" lon="6.85435">
        <ele>350.8</ele>
        <time>2024-03-31T22:46:41.490Z</time>
      </trkpt>
      <trkpt lat="48.38775" lon="6.85411">
        <ele>351.8</ele>
        <time>2024-03-31T22:46:44.520Z</time>
      </trkpt>
      <trkpt lat="48.38781" lon="6.8539">
        <ele>353.4</ele>
        <time>2024-03-31T22:46:47.554Z</time>
      </trkpt>
      <trkpt lat="48.38783" lon="6.85378">
        <ele>354</ele>
        <time>2024-03-31T22:46:50.590Z</time>
      </trkpt>
      <trkpt lat="48.38782" lon="6.85372">
        <ele>354.6</ele>
        <time>2024-03-31T22:46:53.627Z</time>
      </trkpt>
      <trkpt lat="48.38778" lon="6.85349">
        <ele>356</ele>
        <time>2024-03-31T22:46:56.668Z</time>
      </trkpt>
      <trkpt lat="48.3878" lon="6.85343">
        <ele>356.4</ele>
        <time>2024-03-31T22:46:59.710Z</time>
      </trkpt>
      <trkpt lat="48.38785" lon="6.85329">
        <ele>357.2</ele>
        <time>2024-03-31T22:47:02.755Z</time>
      </trkpt>
      <trkpt lat="48.38788" lon="6.8531">
        <ele>358.4</ele>
        <time>2024-03-31T22:47:05.803Z</time>
      </trkpt>
      <trkpt lat="48.38787" lon="6.85303">
        <ele>358.6</ele>
        <time>2024-03-31T22:47:08.852Z</time>
      </trkpt>
      <trkpt lat="48.38788" lon="6.85289">
        <ele>359.6</ele>
        <time>2024-03-31T22:47:11.903Z</time>
      </trkpt>
      <trkpt lat="48.38785" lon="6.85283">
        <ele>360</ele>
        <time>2024-03-31T22:47:14.956Z</time>
      </trkpt>
      <trkpt lat="48.38779" lon="6.85267">
        <ele>360.6</ele>
        <time>2024-03-31T22:47:18.012Z</time>
      </trkpt>
      <trkpt lat="48.38781" lon="6.85251">
        <ele>361.8</ele>
        <time>2024-03-31T22:47:21.071Z</time>
      </trkpt>
      <trkpt lat="48.38782" lon="6.85242">
        <ele>363</ele>
        <time>2024-03-31T22:47:24.131Z</time>
      </trkpt>
      <trkpt lat="48.38784" lon="6.85237">
        <ele>363.2</ele>
        <time>2024-03-31T22:47:27.192Z</time>
      </trkpt>
      <trkpt lat="48.38786" lon="6.85236">
        <ele>364</ele>
        <time>2024-03-31T22:47:30.254Z</time>
      </trkpt>
      <trkpt lat="48.38787" lon="6.85233">
        <ele>364.4</ele>
        <time>2024-03-31T22:47:33.316Z</time>
      </trkpt>
      <trkpt lat="48.38784" lon="6.85222">
        <ele>365.8</ele>
        <time>2024-03-31T22:47:36.380Z</time>
      </trkpt>
      <trkpt lat="48.38783" lon="6.85214">
        <ele>366.4</ele>
        <time>2024-03-31T22:47:39.446Z</time>
      </trkpt>
      <trkpt lat="48.38783" lon="6.8521">
        <ele>367</ele>
        <time>2024-03-31T22:47:42.512Z</time>
      </trkpt>
      <trkpt lat="48.38784" lon="6.85203">
        <ele>367.8</ele>
        <time>2024-03-31T22:47:45.580Z</time>
      </trkpt>
      <trkpt lat="48.38785" lon="6.852">
        <ele>368</ele>
        <time>2024-03-31T22:47:48.648Z</time>
      </trkpt>
      <trkpt lat="48.38785" lon="6.85195">
        <ele>368</ele>
        <time>2024-03-31T22:47:51.717Z</time>
      </trkpt>
      <trkpt lat="48.38785" lon="6.85191">
        <ele>368.2</ele>
        <time>2024-03-31T22:47:54.786Z</time>
      </trkpt>
      <trkpt lat="48.38783" lon="6.85182">
        <ele>369.2</ele>
        <time>2024-03-31T22:47:57.857Z</time>
      </trkpt>
      <trkpt lat="48.38783" lon="6.85175">
        <ele>369.8</ele>
        <time>2024-03-31T22:48:00.929Z</time>
      </trkpt>
      <trkpt lat="48.38783" lon="6.8517">
        <ele>370.6</ele>
        <time>2024-03-31T22:48:04.002Z</time>
      </trkpt>
      <trkpt lat="48.38785" lon="6.85164">
        <ele>371</ele>
        <time>2024-03-31T22:48:07.076Z</time>
      </trkpt>
      <trkpt lat="48.38786" lon="6.85162">
        <ele>371.2</ele>
        <time>2024-03-31T22:48:10.151Z</time>
      </trkpt>
      <trkpt lat="48.38808" lon="6.85107">
        <ele>376.2</ele>
        <time>2024-03-31T22:48:13.237Z</time>
      </trkpt>
      <trkpt lat="48.38813" lon="6.85099">
        <ele>377.2</ele>
        <time>2024-03-31T22:48:16.324Z</time>
      </trkpt>
      <trkpt lat="48.38815" lon="6.85097">
        <ele>377.6</ele>
        <time>2024-03-31T22:48:19.412Z</time>
      </trkpt>
      <trkpt lat="48.38816" lon="6.85096">
        <ele>378</ele>
        <time>2024-03-31T22:48:22.500Z</time>
      </trkpt>
      <trkpt lat="48.38818" lon="6.85095">
        <ele>378.2</ele>
        <time>2024-03-31T22:48:25.589Z</time>
      </trkpt>
      <trkpt lat="48.38819" lon="6.85094">
        <ele>378.4</ele>
        <time>2024-03-31T22:48:28.678Z</time>
      </trkpt>
      <trkpt lat="48.38823" lon="6.85092">
        <ele>379</ele>
        <time>2024-03-31T22:48:31.768Z</time>
      </trkpt>
      <trkpt lat="48.38825" lon="6.85091">
        <ele>379.4</ele>
        <time>2024-03-31T22:48:34.859Z</time>
      </trkpt>
      <trkpt lat="48.38835" lon="6.85086">
        <ele>380.4</ele>
        <time>2024-03-31T22:48:37.952Z</time>
      </trkpt>
      <trkpt lat="48.38839" lon="6.85085">
        <ele>380.8</ele>
        <time>2024-03-31T22:48:41.046Z</time>
      </trkpt>
      <trkpt lat="48.38846" lon="6.85081">
        <ele>381.6</ele>
        <time>2024-03-31T22:48:44.142Z</time>
      </trkpt>
      <trkpt lat="48.38851" lon="6.85078">
        <ele>382</ele>
        <time>2024-03-31T22:48:47.240Z</time>
      </trkpt>
      <trkpt lat="48.38855" lon="6.85078">
        <ele>382.8</ele>
        <time>2024-03-31T22:48:50.339Z</time>
      </trkpt>
      <trkpt lat="48.38857" lon="6.85077">
        <ele>383</ele>
        <time>2024-03-31T22:48:53.438Z</time>
      </trkpt>
      <trkpt lat="48.38861" lon="6.85074">
        <ele>383.8</ele>
        <time>2024-03-31T22:48:56.538Z</time>
      </trkpt>
      <trkpt lat="48.38867" lon="6.85069">
        <ele>384</ele>
        <time>2024-03-31T22:48:59.640Z</time>
      </trkpt>
      <trkpt lat="48.38878" lon="6.85068">
        <ele>385</ele>
        <time>2024-03-31T22:49:02.745Z</time>
      </trkpt>
      <trkpt lat="48.38884" lon="6.85067">
        <ele>385.4</ele>
        <time>2024-03-31T22:49:05.851Z</time>
      </trkpt>
      <trkpt lat="48.38891" lon="6.85065">
        <ele>386</ele>
        <time>2024-03-31T22:49:08.959Z</time>
      </trkpt>
      <trkpt lat="48.38905" lon="6.85061">
        <ele>386.8</ele>
        <time>2024-03-31T22:49:12.071Z</time>
      </trkpt>
      <trkpt lat="48.38912" lon="6.85055">
        <ele>387.4</ele>
        <time>2024-03-31T22:49:15.185Z</time>
      </trkpt>
      <trkpt lat="48.38918" lon="6.85054">
        <ele>388.8</ele>
        <time>2024-03-31T22:49:18.301Z</time>
      </trkpt>
      <trkpt lat="48.38919" lon="6.85054">
        <ele>389.2</ele>
        <time>2024-03-31T22:49:21.417Z</time>
      </trkpt>
      <trkpt lat="48.38921" lon="6.85052">
        <ele>389.6</ele>
        <time>2024-03-31T22:49:24.534Z</time>
      </trkpt>
      <trkpt lat="48.38932" lon="6.85031">
        <ele>391</ele>
        <time>2024-03-31T22:49:27.655Z</time>
      </trkpt>
      <trkpt lat="48.38933" lon="6.85028">
        <ele>391</ele>
        <time>2024-03-31T22:49:30.777Z</time>
      </trkpt>
      <trkpt lat="48.38935" lon="6.85021">
        <ele>391.8</ele>
        <time>2024-03-31T22:49:33.900Z</time>
      </trkpt>
      <trkpt lat="48.38936" lon="6.8502">
        <ele>392</ele>
        <time>2024-03-31T22:49:37.023Z</time>
      </trkpt>
      <trkpt lat="48.38937" lon="6.85019">
        <ele>392.2</ele>
        <time>2024-03-31T22:49:40.146Z</time>
      </trkpt>
      <trkpt lat="48.38939" lon="6.85016">
        <ele>392.6</ele>
        <time>2024-03-31T22:49:43.270Z</time>
      </trkpt>
      <trkpt lat="48.3894" lon="6.85014">
        <ele>393.2</ele>
        <time>2024-03-31T22:49:46.394Z</time>
      </trkpt>
      <trkpt lat="48.38943" lon="6.8501">
        <ele>394.2</ele>
        <time>2024-03-31T22:49:49.520Z</time>
      </trkpt>
      <trkpt lat="48.38947" lon="6.85009">
        <ele>394.8</ele>
        <time>2024-03-31T22:49:52.647Z</time>
      </trkpt>
      <trkpt lat="48.38948" lon="6.85007">
        <ele>395.4</ele>
        <time>2024-03-31T22:49:55.774Z</time>
      </trkpt>
      <trkpt lat="48.3895" lon="6.85006">
        <ele>395.6</ele>
        <time>2024-03-31T22:49:58.902Z</time>
      </trkpt>
      <trkpt lat="48.38952" lon="6.85005">
        <ele>396</ele>
        <time>2024-03-31T22:50:02.030Z</time>
      </trkpt>
      <trkpt lat="48.38957" lon="6.85004">
        <ele>396.4</ele>
        <time>2024-03-31T22:50:05.159Z</time>
      </trkpt>
      <trkpt lat="48.38961" lon="6.85002">
        <ele>396.6</ele>
        <time>2024-03-31T22:50:08.289Z</time>
      </trkpt>
      <trkpt lat="48.38963" lon="6.85002">
        <ele>397</ele>
        <time>2024-03-31T22:50:11.420Z</time>
      </trkpt>
      <trkpt lat="48.38968" lon="6.84999">
        <ele>397.4</ele>
        <time>2024-03-31T22:50:14.552Z</time>
      </trkpt>
      <trkpt lat="48.38974" lon="6.84997">
        <ele>397.6</ele>
        <time>2024-03-31T22:50:17.686Z</time>
      </trkpt>
      <trkpt lat="48.38979" lon="6.84994">
        <ele>398.2</ele>
        <time>2024-03-31T22:50:20.821Z</time>
      </trkpt>
      <trkpt lat="48.38981" lon="6.84992">
        <ele>398.4</ele>
        <time>2024-03-31T22:50:23.957Z</time>
      </trkpt>
      <trkpt lat="48.38982" lon="6.84991">
        <ele>398.8</ele>
        <time>2024-03-31T22:50:27.093Z</time>
      </trkpt>
      <trkpt lat="48.38985" lon="6.8499">
        <ele>399.2</ele>
        <time>2024-03-31T22:50:30.230Z</time>
      </trkpt>
      <trkpt lat="48.38988" lon="6.8499">
        <ele>399.8</ele>
        <time>2024-03-31T22:50:33.368Z</time>
      </trkpt>
      <trkpt lat="48.38997" lon="6.84984">
        <ele>400.4</ele>
        <time>2024-03-31T22:50:36.508Z</time>
      </trkpt>
      <trkpt lat="48.39001" lon="6.8498">
        <ele>400.4</ele>
        <time>2024-03-31T22:50:39.650Z</time>
      </trkpt>
      <trkpt lat="48.39005" lon="6.84978">
        <ele>400.6</ele>
        <time>2024-03-31T22:50:42.792Z</time>
      </trkpt>
      <trkpt lat="48.39007" lon="6.84979">
        <ele>401</ele>
        <time>2024-03-31T22:50:45.935Z</time>
      </trkpt>
      <trkpt lat="48.3901" lon="6.84979">
        <ele>401.2</ele>
        <time>2024-03-31T22:50:49.079Z</time>
      </trkpt>
      <trkpt lat="48.39012" lon="6.8498">
        <ele>401.4</ele>
        <time>2024-03-31T22:50:52.223Z</time>
      </trkpt>
      <trkpt lat="48.3902" lon="6.84981">
        <ele>402.2</ele>
        <time>2024-03-31T22:50:55.369Z</time>
      </trkpt>
      <trkpt lat="48.39024" lon="6.84979">
        <ele>402.4</ele>
        <time>2024-03-31T22:50:58.517Z</time>
      </trkpt>
      <trkpt lat="48.39028" lon="6.84978">
        <ele>403.4</ele>
        <time>2024-03-31T22:51:01.666Z</time>
      </trkpt>
      <trkpt lat="48.39036" lon="6.84977">
        <ele>404.4</ele>
        <time>2024-03-31T22:51:04.817Z</time>
      </trkpt>
      <trkpt lat="48.39039" lon="6.84977">
        <ele>404.6</ele>
        <time>2024-03-31T22:51:07.968Z</time>
      </trkpt>
      <trkpt lat="48.39048" lon="6.84969">
        <ele>405.8</ele>
        <time>2024-03-31T22:51:11.122Z</time>
      </trkpt>
      <trkpt lat="48.39049" lon="6.84967">
        <ele>406</ele>
        <time>2024-03-31T22:51:14.276Z</time>
      </trkpt>
      <trkpt lat="48.39059" lon="6.84962">
        <ele>407</ele>
        <time>2024-03-31T22:51:17.433Z</time>
      </trkpt>
      <trkpt lat="48.39064" lon="6.84959">
        <ele>407.4</ele>
        <time>2024-03-31T22:51:20.591Z</time>
      </trkpt>
      <trkpt lat="48.39067" lon="6.84954">
        <ele>408.2</ele>
        <time>2024-03-31T22:51:23.750Z</time>
      </trkpt>
      <trkpt lat="48.39069" lon="6.84953">
        <ele>408.6</ele>
        <time>2024-03-31T22:51:26.910Z</time>
      </trkpt>
      <trkpt lat="48.39072" lon="6.84952">
        <ele>409</ele>
        <time>2024-03-31T22:51:30.071Z</time>
      </trkpt>
      <trkpt lat="48.39073" lon="6.84951">
        <ele>409.4</ele>
        <time>2024-03-31T22:51:33.232Z</time>
      </trkpt>
      <trkpt lat="48.3908" lon="6.84945">
        <ele>410.2</ele>
        <time>2024-03-31T22:51:36.395Z</time>
      </trkpt>
      <trkpt lat="48.39083" lon="6.84942">
        <ele>410.4</ele>
        <time>2024-03-31T22:51:39.559Z</time>
      </trkpt>
      <trkpt lat="48.39085" lon="6.84939">
        <ele>411.2</ele>
        <time>2024-03-31T22:51:42.724Z</time>
      </trkpt>
      <trkpt lat="48.39088" lon="6.84939">
        <ele>411.4</ele>
        <time>2024-03-31T22:51:45.890Z</time>
      </trkpt>
      <trkpt lat="48.39088" lon="6.84939">
        <ele>411.8</ele>
        <time>2024-03-31T22:51:49.056Z</time>
      </trkpt>
      <trkpt lat="48.39063" lon="6.84929">
        <ele>415</ele>
        <time>2024-03-31T22:51:52.228Z</time>
      </trkpt>
      <trkpt lat="48.39059" lon="6.84927">
        <ele>415.8</ele>
        <time>2024-03-31T22:51:55.401Z</time>
      </trkpt>
      <trkpt lat="48.39055" lon="6.84928">
        <ele>416</ele>
        <time>2024-03-31T22:51:58.575Z</time>
      </trkpt>
      <trkpt lat="48.39047" lon="6.84928">
        <ele>417</ele>
        <time>2024-03-31T22:52:01.751Z</time>
      </trkpt>
      <trkpt lat="48.39045" lon="6.84928">
        <ele>417.2</ele>
        <time>2024-03-31T22:52:04.928Z</time>
      </trkpt>
      <trkpt lat="48.39042" lon="6.84926">
        <ele>417.4</ele>
        <time>2024-03-31T22:52:08.106Z</time>
      </trkpt>
      <trkpt lat="48.39029" lon="6.84921">
        <ele>418</ele>
        <time>2024-03-31T22:52:11.287Z</time>
      </trkpt>
      <trkpt lat="48.39027" lon="6.84922">
        <ele>418.6</ele>
        <time>2024-03-31T22:52:14.469Z</time>
      </trkpt>
      <trkpt lat="48.3902" lon="6.84922">
        <ele>419.8</ele>
        <time>2024-03-31T22:52:17.652Z</time>
      </trkpt>
      <trkpt lat="48.39011" lon="6.84921">
        <ele>420.8</ele>
        <time>2024-03-31T22:52:20.838Z</time>
      </trkpt>
      <trkpt lat="48.39009" lon="6.8492">
        <ele>421</ele>
        <time>2024-03-31T22:52:24.024Z</time>
      </trkpt>
      <trkpt lat="48.39007" lon="6.8492">
        <ele>421</ele>
        <time>2024-03-31T22:52:27.211Z</time>
      </trkpt>
      <trkpt lat="48.38991" lon="6.84918">
        <ele>422</ele>
        <time>2024-03-31T22:52:30.402Z</time>
      </trkpt>
      <trkpt lat="48.38981" lon="6.8492">
        <ele>422.8</ele>
        <time>2024-03-31T22:52:33.595Z</time>
      </trkpt>
      <trkpt lat="48.38976" lon="6.8492">
        <ele>423.2</ele>
        <time>2024-03-31T22:52:36.790Z</time>
      </trkpt>
      <trkpt lat="48.38975" lon="6.84922">
        <ele>423.8</ele>
        <time>2024-03-31T22:52:39.985Z</time>
      </trkpt>
      <trkpt lat="48.38949" lon="6.8492">
        <ele>427</ele>
        <time>2024-03-31T22:52:43.187Z</time>
      </trkpt>
      <trkpt lat="48.38939" lon="6.84921">
        <ele>427.6</ele>
        <time>2024-03-31T22:52:46.391Z</time>
      </trkpt>
      <trkpt lat="48.38937" lon="6.84921">
        <ele>427.8</ele>
        <time>2024-03-31T22:52:49.596Z</time>
      </trkpt>
      <trkpt lat="48.38932" lon="6.84921">
        <ele>428.2</ele>
        <time>2024-03-31T22:52:52.802Z</time>
      </trkpt>
      <trkpt lat="48.38929" lon="6.8492">
        <ele>428.4</ele>
        <time>2024-03-31T22:52:56.009Z</time>
      </trkpt>
      <trkpt lat="48.38924" lon="6.8492">
        <ele>429</ele>
        <time>2024-03-31T22:52:59.217Z</time>
      </trkpt>
      <trkpt lat="48.3892" lon="6.84919">
        <ele>429.2</ele>
        <time>2024-03-31T22:53:02.426Z</time>
      </trkpt>
      <trkpt lat="48.38918" lon="6.84918">
        <ele>429.6</ele>
        <time>2024-03-31T22:53:05.636Z</time>
      </trkpt>
      <trkpt lat="48.38914" lon="6.84918">
        <ele>430</ele>
        <time>2024-03-31T22:53:08.847Z</time>
      </trkpt>
      <trkpt lat="48.38904" lon="6.84917">
        <ele>431</ele>
        <time>2024-03-31T22:53:12.060Z</time>
      </trkpt>
      <trkpt lat="48.38901" lon="6.84915">
        <ele>431.8</ele>
        <time>2024-03-31T22:53:15.274Z</time>
      </trkpt>
      <trkpt lat="48.38895" lon="6.84912">
        <ele>432</ele>
        <time>2024-03-31T22:53:18.490Z</time>
      </trkpt>
      <trkpt lat="48.38885" lon="6.84904">
        <ele>432.8</ele>
        <time>2024-03-31T22:53:21.709Z</time>
      </trkpt>
      <trkpt lat="48.38881" lon="6.84903">
        <ele>433.2</ele>
        <time>2024-03-31T22:53:24.928Z</time>
      </trkpt>
      <trkpt lat="48.38878" lon="6.84898">
        <ele>433.8</ele>
        <time>2024-03-31T22:53:28.149Z</time>
      </trkpt>
      <trkpt lat="48.38871" lon="6.84893">
        <ele>434.4</ele>
        <time>2024-03-31T22:53:31.372Z</time>
      </trkpt>
      <trkpt lat="48.3887" lon="6.84891">
        <ele>434.6</ele>
        <time>2024-03-31T22:53:34.595Z</time>
      </trkpt>
      <trkpt lat="48.38862" lon="6.8489">
        <ele>435.4</ele>
        <time>2024-03-31T22:53:37.820Z</time>
      </trkpt>
      <trkpt lat="48.3886" lon="6.84886">
        <ele>435.8</ele>
        <time>2024-03-31T22:53:41.046Z</time>
      </trkpt>
      <trkpt lat="48.38849" lon="6.84863">
        <ele>437</ele>
        <time>2024-03-31T22:53:44.277Z</time>
      </trkpt>
      <trkpt lat="48.38846" lon="6.84861">
        <ele>437.4</ele>
        <time>2024-03-31T22:53:47.508Z</time>
      </trkpt>
      <trkpt lat="48.38843" lon="6.84858">
        <ele>438.2</ele>
        <time>2024-03-31T22:53:50.740Z</time>
      </trkpt>
      <trkpt lat="48.38838" lon="6.84852">
        <ele>439</ele>
        <time>2024-03-31T22:53:53.974Z</time>
      </trkpt>
      <trkpt lat="48.38836" lon="6.84848">
        <ele>439.2</ele>
        <time>2024-03-31T22:53:57.209Z</time>
      </trkpt>
      <trkpt lat="48.38834" lon="6.84842">
        <ele>439.6</ele>
        <time>2024-03-31T22:54:00.445Z</time>
      </trkpt>
      <trkpt lat="48.38831" lon="6.84837">
        <ele>440.4</ele>
        <time>2024-03-31T22:54:03.682Z</time>
      </trkpt>
      <trkpt lat="48.38829" lon="6.84835">
        <ele>440.8</ele>
        <time>2024-03-31T22:54:06.920Z</time>
      </trkpt>
      <trkpt lat="48.38824" lon="6.84821">
        <ele>441.8</ele>
        <time>2024-03-31T22:54:10.160Z</time>
      </trkpt>
      <trkpt lat="48.38821" lon="6.84808">
        <ele>443</ele>
        <time>2024-03-31T22:54:13.403Z</time>
      </trkpt>
      <trkpt lat="48.38818" lon="6.8479">
        <ele>444</ele>
        <time>2024-03-31T22:54:16.649Z</time>
      </trkpt>
      <trkpt lat="48.38814" lon="6.84781">
        <ele>444.4</ele>
        <time>2024-03-31T22:54:19.897Z</time>
      </trkpt>
      <trkpt lat="48.38808" lon="6.8477">
        <ele>445.2</ele>
        <time>2024-03-31T22:54:23.147Z</time>
      </trkpt>
      <trkpt lat="48.38802" lon="6.84762">
        <ele>445.8</ele>
        <time>2024-03-31T22:54:26.399Z</time>
      </trkpt>
      <trkpt lat="48.38801" lon="6.84758">
        <ele>446.2</ele>
        <time>2024-03-31T22:54:29.652Z</time>
      </trkpt>
      <trkpt lat="48.38797" lon="6.84745">
        <ele>447</ele>
        <time>2024-03-31T22:54:32.907Z</time>
      </trkpt>
      <trkpt lat="48.38795" lon="6.84741">
        <ele>447.4</ele>
        <time>2024-03-31T22:54:36.163Z</time>
      </trkpt>
      <trkpt lat="48.38793" lon="6.84727">
        <ele>448.8</ele>
        <time>2024-03-31T22:54:39.421Z</time>
      </trkpt>
      <trkpt lat="48.38793" lon="6.84725">
        <ele>449.2</ele>
        <time>2024-03-31T22:54:42.680Z</time>
      </trkpt>
      <trkpt lat="48.38792" lon="6.8472">
        <ele>449.8</ele>
        <time>2024-03-31T22:54:45.940Z</time>
      </trkpt>
      <trkpt lat="48.38791" lon="6.84716">
        <ele>450.2</ele>
        <time>2024-03-31T22:54:49.200Z</time>
      </trkpt>
      <trkpt lat="48.3879" lon="6.84709">
        <ele>450.8</ele>
        <time>2024-03-31T22:54:52.462Z</time>
      </trkpt>
      <trkpt lat="48.38785" lon="6.84696">
        <ele>451.8</ele>
        <time>2024-03-31T22:54:55.726Z</time>
      </trkpt>
      <trkpt lat="48.38783" lon="6.84685">
        <ele>452.4</ele>
        <time>2024-03-31T22:54:58.992Z</time>
      </trkpt>
      <trkpt lat="48.38782" lon="6.84675">
        <ele>453</ele>
        <time>2024-03-31T22:55:02.260Z</time>
      </trkpt>
      <trkpt lat="48.3878" lon="6.84667">
        <ele>454.6</ele>
        <time>2024-03-31T22:55:05.529Z</time>
      </trkpt>
      <trkpt lat="48.3878" lon="6.84666">
        <ele>455</ele>
        <time>2024-03-31T22:55:08.799Z</time>
      </trkpt>
      <trkpt lat="48.38779" lon="6.8466">
        <ele>455.6</ele>
        <time>2024-03-31T22:55:12.070Z</time>
      </trkpt>
      <trkpt lat="48.38778" lon="6.84656">
        <ele>455.8</ele>
        <time>2024-03-31T22:55:15.341Z</time>
      </trkpt>
      <trkpt lat="48.38778" lon="6.84652">
        <ele>456.8</ele>
        <time>2024-03-31T22:55:18.613Z</time>
      </trkpt>
      <trkpt lat="48.38779" lon="6.8465">
        <ele>457.6</ele>
        <time>2024-03-31T22:55:21.885Z</time>
      </trkpt>
      <trkpt lat="48.3878" lon="6.84652">
        <ele>458</ele>
        <time>2024-03-31T22:55:25.158Z</time>
      </trkpt>
      <trkpt lat="48.38784" lon="6.84658">
        <ele>458.4</ele>
        <time>2024-03-31T22:55:28.432Z</time>
      </trkpt>
      <trkpt lat="48.38784" lon="6.8466">
        <ele>458.4</ele>
        <time>2024-03-31T22:55:31.706Z</time>
      </trkpt>
      <trkpt lat="48.38782" lon="6.84657">
        <ele>458.4</ele>
        <time>2024-03-31T22:55:34.981Z</time>
      </trkpt>
      <trkpt lat="48.38782" lon="6.84649">
        <ele>458.2</ele>
        <time>2024-03-31T22:55:38.257Z</time>
      </trkpt>
      <trkpt lat="48.3879" lon="6.84663">
        <ele>458.4</ele>
        <time>2024-03-31T22:55:41.537Z</time>
      </trkpt>
      <trkpt lat="48.38793" lon="6.84668">
        <ele>458.4</ele>
        <time>2024-03-31T22:55:44.818Z</time>
      </trkpt>
      <trkpt lat="48.38795" lon="6.84671">
        <ele>458.8</ele>
        <time>2024-03-31T22:55:48.100Z</time>
      </trkpt>
      <trkpt lat="48.38797" lon="6.84676">
        <ele>459</ele>
        <time>2024-03-31T22:55:51.382Z</time>
      </trkpt>
      <trkpt lat="48.38799" lon="6.84677">
        <ele>459.2</ele>
        <time>2024-03-31T22:55:54.665Z</time>
      </trkpt>
      <trkpt lat="48.388" lon="6.8468">
        <ele>459.6</ele>
        <time>2024-03-31T22:55:57.948Z</time>
      </trkpt>
      <trkpt lat="48.38804" lon="6.84687">
        <ele>460.2</ele>
        <time>2024-03-31T22:56:01.233Z</time>
      </trkpt>
      <trkpt lat="48.38807" lon="6.8469">
        <ele>460.8</ele>
        <time>2024-03-31T22:56:04.519Z</time>
      </trkpt>
      <trkpt lat="48.3881" lon="6.84694">
        <ele>461.2</ele>
        <time>2024-03-31T22:56:07.806Z</time>
      </trkpt>
      <trkpt lat="48.38812" lon="6.84696">
        <ele>461.6</ele>
        <time>2024-03-31T22:56:11.094Z</time>
      </trkpt>
      <trkpt lat="48.38816" lon="6.84702">
        <ele>462.2</ele>
        <time>2024-03-31T22:56:14.383Z</time>
      </trkpt>
      <trkpt lat="48.38817" lon="6.84704">
        <ele>462.4</ele>
        <time>2024-03-31T22:56:17.673Z</time>
      </trkpt>
      <trkpt lat="48.38819" lon="6.84707">
        <ele>462.6</ele>
        <time>2024-03-31T22:56:20.963Z</time>
      </trkpt>
      <trkpt lat="48.38826" lon="6.84715">
        <ele>463</ele>
        <time>2024-03-31T22:56:24.255Z</time>
      </trkpt>
      <trkpt lat="48.38828" lon="6.84718">
        <ele>463.2</ele>
        <time>2024-03-31T22:56:27.548Z</time>
      </trkpt>
      <trkpt lat="48.3883" lon="6.84722">
        <ele>463.4</ele>
        <time>2024-03-31T22:56:30.842Z</time>
      </trkpt>
      <trkpt lat="48.38835" lon="6.84726">
        <ele>463.8</ele>
        <time>2024-03-31T22:56:34.137Z</time>
      </trkpt>
      <trkpt lat="48.38841" lon="6.84733">
        <ele>464.6</ele>
        <time>2024-03-31T22:56:37.434Z</time>
      </trkpt>
      <trkpt lat="48.3885" lon="6.84741">
        <ele>465.4</ele>
        <time>2024-03-31T22:56:40.734Z</time>
      </trkpt>
      <trkpt lat="48.38853" lon="6.84745">
        <ele>465.8</ele>
        <time>2024-03-31T22:56:44.035Z</time>
      </trkpt>
      <trkpt lat="48.38863" lon="6.84753">
        <ele>467</ele>
        <time>2024-03-31T22:56:47.339Z</time>
      </trkpt>
      <trkpt lat="48.38867" lon="6.8476">
        <ele>468.2</ele>
        <time>2024-03-31T22:56:50.644Z</time>
      </trkpt>
      <trkpt lat="48.38876" lon="6.84764">
        <ele>469.4</ele>
        <time>2024-03-31T22:56:53.952Z</time>
      </trkpt>
      <trkpt lat="48.38879" lon="6.84766">
        <ele>470</ele>
        <time>2024-03-31T22:56:57.261Z</time>
      </trkpt>
      <trkpt lat="48.38885" lon="6.84767">
        <ele>470.6</ele>
        <time>2024-03-31T22:57:00.571Z</time>
      </trkpt>
      <trkpt lat="48.38894" lon="6.84772">
        <ele>471.8</ele>
        <time>2024-03-31T22:57:03.884Z</time>
      </trkpt>
      <trkpt lat="48.38896" lon="6.84774">
        <ele>471.8</ele>
        <time>2024-03-31T22:57:07.197Z</time>
      </trkpt>
      <trkpt lat="48.38901" lon="6.84778">
        <ele>472.6</ele>
        <time>2024-03-31T22:57:10.512Z</time>
      </trkpt>
      <trkpt lat="48.38904" lon="6.84779">
        <ele>473.2</ele>
        <time>2024-03-31T22:57:13.827Z</time>
      </trkpt>
      <trkpt lat="48.38907" lon="6.8478">
        <ele>473.4</ele>
        <time>2024-03-31T22:57:17.143Z</time>
      </trkpt>
      <trkpt lat="48.38916" lon="6.84782">
        <ele>474.4</ele>
        <time>2024-03-31T22:57:20.462Z</time>
      </trkpt>
      <trkpt lat="48.38928" lon="6.84784">
        <ele>475.6</ele>
        <time>2024-03-31T22:57:23.784Z</time>
      </trkpt>
      <trkpt lat="48.38937" lon="6.84787">
        <ele>476.6</ele>
        <time>2024-03-31T22:57:27.108Z</time>
      </trkpt>
      <trkpt lat="48.38944" lon="6.8479">
        <ele>477.6</ele>
        <time>2024-03-31T22:57:30.434Z</time>
      </trkpt>
      <trkpt lat="48.38947" lon="6.84791">
        <ele>478</ele>
        <time>2024-03-31T22:57:33.761Z</time>
      </trkpt>
      <trkpt lat="48.38956" lon="6.84789">
        <ele>479.2</ele>
        <time>2024-03-31T22:57:37.090Z</time>
      </trkpt>
      <trkpt lat="48.38968" lon="6.84781">
        <ele>480.4</ele>
        <time>2024-03-31T22:57:40.422Z</time>
      </trkpt>
      <trkpt lat="48.38972" lon="6.84778">
        <ele>480.6</ele>
        <time>2024-03-31T22:57:43.755Z</time>
      </trkpt>
      <trkpt lat="48.38982" lon="6.84769">
        <ele>481.8</ele>
        <time>2024-03-31T22:57:47.091Z</time>
      </trkpt>
      <trkpt lat="48.3899" lon="6.84765">
        <ele>482.8</ele>
        <time>2024-03-31T22:57:50.429Z</time>
      </trkpt>
      <trkpt lat="48.38996" lon="6.84757">
        <ele>483.8</ele>
        <time>2024-03-31T22:57:53.770Z</time>
      </trkpt>
      <trkpt lat="48.39005" lon="6.84749">
        <ele>484.6</ele>
        <time>2024-03-31T22:57:57.113Z</time>
      </trkpt>
      <trkpt lat="48.39008" lon="6.84746">
        <ele>485.2</ele>
        <time>2024-03-31T22:58:00.457Z</time>
      </trkpt>
      <trkpt lat="48.39012" lon="6.84744">
        <ele>485.8</ele>
        <time>2024-03-31T22:58:03.802Z</time>
      </trkpt>
      <trkpt lat="48.39014" lon="6.8474">
        <ele>486.2</ele>
        <time>2024-03-31T22:58:07.148Z</time>
      </trkpt>
      <trkpt lat="48.39014" lon="6.84737">
        <ele>486.4</ele>
        <time>2024-03-31T22:58:10.494Z</time>
      </trkpt>
      <trkpt lat="48.39017" lon="6.84733">
        <ele>487.2</ele>
        <time>2024-03-31T22:58:13.841Z</time>
      </trkpt>
      <trkpt lat="48.39017" lon="6.84732">
        <ele>487.8</ele>
        <time>2024-03-31T22:58:17.189Z</time>
      </trkpt>
      <trkpt lat="48.39021" lon="6.84729">
        <ele>488.4</ele>
        <time>2024-03-31T22:58:20.538Z</time>
      </trkpt>
      <trkpt lat="48.39024" lon="6.84727">
        <ele>488.6</ele>
        <time>2024-03-31T22:58:23.888Z</time>
      </trkpt>
      <trkpt lat="48.39027" lon="6.84725">
        <ele>489</ele>
        <time>2024-03-31T22:58:27.238Z</time>
      </trkpt>
      <trkpt lat="48.39036" lon="6.84718">
        <ele>489.6</ele>
        <time>2024-03-31T22:58:30.591Z</time>
      </trkpt>
      <trkpt lat="48.3904" lon="6.84708">
        <ele>490</ele>
        <time>2024-03-31T22:58:33.946Z</time>
      </trkpt>
      <trkpt lat="48.39046" lon="6.84702">
        <ele>490.6</ele>
        <time>2024-03-31T22:58:37.303Z</time>
      </trkpt>
      <trkpt lat="48.39047" lon="6.84701">
        <ele>490.8</ele>
        <time>2024-03-31T22:58:40.660Z</time>
      </trkpt>
      <trkpt lat="48.39053" lon="6.84695">
        <ele>491.2</ele>
        <time>2024-03-31T22:58:44.019Z</time>
      </trkpt>
      <trkpt lat="48.39058" lon="6.84681">
        <ele>492.4</ele>
        <time>2024-03-31T22:58:47.381Z</time>
      </trkpt>
      <trkpt lat="48.39059" lon="6.8468">
        <ele>492.8</ele>
        <time>2024-03-31T22:58:50.743Z</time>
      </trkpt>
      <trkpt lat="48.39061" lon="6.8468">
        <ele>493.4</ele>
        <time>2024-03-31T22:58:54.105Z</time>
      </trkpt>
      <trkpt lat="48.39061" lon="6.84679">
        <ele>493.6</ele>
        <time>2024-03-31T22:58:57.468Z</time>
      </trkpt>
      <trkpt lat="48.39062" lon="6.84673">
        <ele>494</ele>
        <time>2024-03-31T22:59:00.832Z</time>
      </trkpt>
      <trkpt lat="48.39065" lon="6.84666">
        <ele>494.4</ele>
        <time>2024-03-31T22:59:04.197Z</time>
      </trkpt>
      <trkpt lat="48.39067" lon="6.84659">
        <ele>495</ele>
        <time>2024-03-31T22:59:07.563Z</time>
      </trkpt>
      <trkpt lat="48.39068" lon="6.84655">
        <ele>495</ele>
        <time>2024-03-31T22:59:10.930Z</time>
      </trkpt>
      <trkpt lat="48.39068" lon="6.84651">
        <ele>495.2</ele>
        <time>2024-03-31T22:59:14.298Z</time>
      </trkpt>
      <trkpt lat="48.3907" lon="6.84644">
        <ele>496.2</ele>
        <time>2024-03-31T22:59:17.667Z</time>
      </trkpt>
      <trkpt lat="48.39074" lon="6.84636">
        <ele>496.8</ele>
        <time>2024-03-31T22:59:21.038Z</time>
      </trkpt>
      <trkpt lat="48.39075" lon="6.84628">
        <ele>497.2</ele>
        <time>2024-03-31T22:59:24.410Z</time>
      </trkpt>
      <trkpt lat="48.39076" lon="6.84626">
        <ele>497.6</ele>
        <time>2024-03-31T22:59:27.782Z</time>
      </trkpt>
      <trkpt lat="48.3908" lon="6.84613">
        <ele>498.6</ele>
        <time>2024-03-31T22:59:31.157Z</time>
      </trkpt>
      <trkpt lat="48.39079" lon="6.84609">
        <ele>498.8</ele>
        <time>2024-03-31T22:59:34.532Z</time>
      </trkpt>
      <trkpt lat="48.39078" lon="6.84601">
        <ele>499.2</ele>
        <time>2024-03-31T22:59:37.909Z</time>
      </trkpt>
      <trkpt lat="48.39079" lon="6.84595">
        <ele>499.6</ele>
        <time>2024-03-31T22:59:41.287Z</time>
      </trkpt>
      <trkpt lat="48.3908" lon="6.84592">
        <ele>499.8</ele>
        <time>2024-03-31T22:59:44.665Z</time>
      </trkpt>
      <trkpt lat="48.39082" lon="6.84579">
        <ele>500.8</ele>
        <time>2024-03-31T22:59:48.046Z</time>
      </trkpt>
      <trkpt lat="48.39076" lon="6.84567">
        <ele>501.8</ele>
        <time>2024-03-31T22:59:51.429Z</time>
      </trkpt>
      <trkpt lat="48.39077" lon="6.84554">
        <ele>503</ele>
        <time>2024-03-31T22:59:54.814Z</time>
      </trkpt>
      <trkpt lat="48.39078" lon="6.84543">
        <ele>503.6</ele>
        <time>2024-03-31T22:59:58.201Z</time>
      </trkpt>
      <trkpt lat="48.39077" lon="6.84532">
        <ele>504</ele>
        <time>2024-03-31T23:00:01.590Z</time>
      </trkpt>
      <trkpt lat="48.39075" lon="6.84526">
        <ele>504.2</ele>
        <time>2024-03-31T23:00:04.980Z</time>
      </trkpt>
      <trkpt lat="48.39075" lon="6.8452">
        <ele>504.6</ele>
        <time>2024-03-31T23:00:08.371Z</time>
      </trkpt>
      <trkpt lat="48.39076" lon="6.84511">
        <ele>505.2</ele>
        <time>2024-03-31T23:00:11.764Z</time>
      </trkpt>
      <trkpt lat="48.39079" lon="6.84505">
        <ele>505.6</ele>
        <time>2024-03-31T23:00:15.158Z</time>
      </trkpt>
      <trkpt lat="48.39079" lon="6.84499">
        <ele>506</ele>
        <time>2024-03-31T23:00:18.553Z</time>
      </trkpt>
      <trkpt lat="48.39076" lon="6.84487">
        <ele>506.6</ele>
        <time>2024-03-31T23:00:21.950Z</time>
      </trkpt>
      <trkpt lat="48.3907" lon="6.84481">
        <ele>507.4</ele>
        <time>2024-03-31T23:00:25.349Z</time>
      </trkpt>
      <trkpt lat="48.39067" lon="6.84475">
        <ele>507.8</ele>
        <time>2024-03-31T23:00:28.749Z</time>
      </trkpt>
      <trkpt lat="48.39065" lon="6.84466">
        <ele>508.6</ele>
        <time>2024-03-31T23:00:32.151Z</time>
      </trkpt>
      <trkpt lat="48.39067" lon="6.84462">
        <ele>509.6</ele>
        <time>2024-03-31T23:00:35.554Z</time>
      </trkpt>
      <trkpt lat="48.39069" lon="6.84459">
        <ele>509.8</ele>
        <time>2024-03-31T23:00:38.957Z</time>
      </trkpt>
      <trkpt lat="48.39073" lon="6.84451">
        <ele>510.6</ele>
        <time>2024-03-31T23:00:42.362Z</time>
      </trkpt>
      <trkpt lat="48.39073" lon="6.84446">
        <ele>511.2</ele>
        <time>2024-03-31T23:00:45.768Z</time>
      </trkpt>
      <trkpt lat="48.39073" lon="6.84437">
        <ele>511.8</ele>
        <time>2024-03-31T23:00:49.176Z</time>
      </trkpt>
      <trkpt lat="48.39074" lon="6.84427">
        <ele>512.8</ele>
        <time>2024-03-31T23:00:52.585Z</time>
      </trkpt>
      <trkpt lat="48.39075" lon="6.84422">
        <ele>513</ele>
        <time>2024-03-31T23:00:55.995Z</time>
      </trkpt>
      <trkpt lat="48.39077" lon="6.84414">
        <ele>513.2</ele>
        <time>2024-03-31T23:00:59.407Z</time>
      </trkpt>
      <trkpt lat="48.3908" lon="6.84406">
        <ele>513.8</ele>
        <time>2024-03-31T23:01:02.820Z</time>
      </trkpt>
      <trkpt lat="48.3908" lon="6.84403">
        <ele>514.2</ele>
        <time>2024-03-31T23:01:06.234Z</time>
      </trkpt>
      <trkpt lat="48.39081" lon="6.844">
        <ele>514.4</ele>
        <time>2024-03-31T23:01:09.648Z</time>
      </trkpt>
      <trkpt lat="48.39086" lon="6.84388">
        <ele>515.4</ele>
        <time>2024-03-31T23:01:13.065Z</time>
      </trkpt>
      <trkpt lat="48.39085" lon="6.84379">
        <ele>515.8</ele>
        <time>2024-03-31T23:01:16.483Z</time>
      </trkpt>
      <trkpt lat="48.39085" lon="6.84374">
        <ele>516.4</ele>
        <time>2024-03-31T23:01:19.902Z</time>
      </trkpt>
      <trkpt lat="48.39087" lon="6.84366">
        <ele>517.6</ele>
        <time>2024-03-31T23:01:23.323Z</time>
      </trkpt>
      <trkpt lat="48.3909" lon="6.84359">
        <ele>518</ele>
        <time>2024-03-31T23:01:26.745Z</time>
      </trkpt>
      <trkpt lat="48.39094" lon="6.84347">
        <ele>519</ele>
        <time>2024-03-31T23:01:30.169Z</time>
      </trkpt>
      <trkpt lat="48.39098" lon="6.84343">
        <ele>519.4</ele>
        <time>2024-03-31T23:01:33.594Z</time>
      </trkpt>
      <trkpt lat="48.39103" lon="6.84335">
        <ele>520.6</ele>
        <time>2024-03-31T23:01:37.021Z</time>
      </trkpt>
      <trkpt lat="48.39105" lon="6.84333">
        <ele>520.8</ele>
        <time>2024-03-31T23:01:40.449Z</time>
      </trkpt>
      <trkpt lat="48.3911" lon="6.84329">
        <ele>522</ele>
        <time>2024-03-31T23:01:43.878Z</time>
      </trkpt>
      <trkpt lat="48.39113" lon="6.84327">
        <ele>522.6</ele>
        <time>2024-03-31T23:01:47.308Z</time>
      </trkpt>
      <trkpt lat="48.39117" lon="6.84325">
        <ele>523</ele>
        <time>2024-03-31T23:01:50.739Z</time>
      </trkpt>
      <trkpt lat="48.39118" lon="6.84324">
        <ele>523.4</ele>
        <time>2024-03-31T23:01:54.170Z</time>
      </trkpt>
      <trkpt lat="48.39128" lon="6.84312">
        <ele>525.4</ele>
        <time>2024-03-31T23:01:57.605Z</time>
      </trkpt>
      <trkpt lat="48.39129" lon="6.8431">
        <ele>525.8</ele>
        <time>2024-03-31T23:02:01.040Z</time>
      </trkpt>
      <trkpt lat="48.39131" lon="6.84308">
        <ele>526</ele>
        <time>2024-03-31T23:02:04.476Z</time>
      </trkpt>
      <trkpt lat="48.39133" lon="6.84306">
        <ele>526.8</ele>
        <time>2024-03-31T23:02:07.912Z</time>
      </trkpt>
      <trkpt lat="48.3914" lon="6.84298">
        <ele>527.6</ele>
        <time>2024-03-31T23:02:11.351Z</time>
      </trkpt>
      <trkpt lat="48.39144" lon="6.84295">
        <ele>528</ele>
        <time>2024-03-31T23:02:14.791Z</time>
      </trkpt>
      <trkpt lat="48.3915" lon="6.8429">
        <ele>528.6</ele>
        <time>2024-03-31T23:02:18.233Z</time>
      </trkpt>
      <trkpt lat="48.39153" lon="6.8429">
        <ele>528.8</ele>
        <time>2024-03-31T23:02:21.675Z</time>
      </trkpt>
      <trkpt lat="48.39158" lon="6.84288">
        <ele>529</ele>
        <time>2024-03-31T23:02:25.119Z</time>
      </trkpt>
      <trkpt lat="48.39162" lon="6.84284">
        <ele>529.6</ele>
        <time>2024-03-31T23:02:28.564Z</time>
      </trkpt>
      <trkpt lat="48.39165" lon="6.84283">
        <ele>529.8</ele>
        <time>2024-03-31T23:02:32.010Z</time>
      </trkpt>
      <trkpt lat="48.39169" lon="6.84282">
        <ele>530.6</ele>
        <time>2024-03-31T23:02:35.457Z</time>
      </trkpt>
      <trkpt lat="48.39172" lon="6.84282">
        <ele>531</ele>
        <time>2024-03-31T23:02:38.904Z</time>
      </trkpt>
      <trkpt lat="48.39176" lon="6.8428">
        <ele>531.2</ele>
        <time>2024-03-31T23:02:42.352Z</time>
      </trkpt>
      <trkpt lat="48.3918" lon="6.84278">
        <ele>531.4</ele>
        <time>2024-03-31T23:02:45.801Z</time>
      </trkpt>
      <trkpt lat="48.39186" lon="6.84275">
        <ele>531.6</ele>
        <time>2024-03-31T23:02:49.252Z</time>
      </trkpt>
      <trkpt lat="48.39189" lon="6.84273">
        <ele>531.8</ele>
        <time>2024-03-31T23:02:52.704Z</time>
      </trkpt>
      <trkpt lat="48.39204" lon="6.84264">
        <ele>532.4</ele>
        <time>2024-03-31T23:02:56.160Z</time>
      </trkpt>
      <trkpt lat="48.39207" lon="6.84264">
        <ele>532.6</ele>
        <time>2024-03-31T23:02:59.617Z</time>
      </trkpt>
      <trkpt lat="48.39215" lon="6.8426">
        <ele>533.2</ele>
        <time>2024-03-31T23:03:03.076Z</time>
      </trkpt>
      <trkpt lat="48.39222" lon="6.84256">
        <ele>534.6</ele>
        <time>2024-03-31T23:03:06.537Z</time>
      </trkpt>
      <trkpt lat="48.39226" lon="6.84251">
        <ele>535</ele>
        <time>2024-03-31T23:03:09.999Z</time>
      </trkpt>
      <trkpt lat="48.3923" lon="6.8425">
        <ele>535.6</ele>
        <time>2024-03-31T23:03:13.462Z</time>
      </trkpt>
      <trkpt lat="48.39233" lon="6.84247">
        <ele>535.8</ele>
        <time>2024-03-31T23:03:16.926Z</time>
      </trkpt>
      <trkpt lat="48.39234" lon="6.84245">
        <ele>536.2</ele>
        <time>2024-03-31T23:03:20.391Z</time>
      </trkpt>
      <trkpt lat="48.39238" lon="6.84241">
        <ele>536.8</ele>
        <time>2024-03-31T23:03:23.857Z</time>
      </trkpt>
      <trkpt lat="48.39245" lon="6.84235">
        <ele>538.2</ele>
        <time>2024-03-31T23:03:27.325Z</time>
      </trkpt>
      <trkpt lat="48.39248" lon="6.84232">
        <ele>538.4</ele>
        <time>2024-03-31T23:03:30.794Z</time>
      </trkpt>
      <trkpt lat="48.39251" lon="6.8423">
        <ele>538.6</ele>
        <time>2024-03-31T23:03:34.264Z</time>
      </trkpt>
      <trkpt lat="48.39252" lon="6.84225">
        <ele>539.4</ele>
        <time>2024-03-31T23:03:37.735Z</time>
      </trkpt>
      <trkpt lat="48.39253" lon="6.84222">
        <ele>539.8</ele>
        <time>2024-03-31T23:03:41.206Z</time>
      </trkpt>
      <trkpt lat="48.39255" lon="6.84216">
        <ele>540.4</ele>
        <time>2024-03-31T23:03:44.678Z</time>
      </trkpt>
      <trkpt lat="48.39256" lon="6.84212">
        <ele>540.6</ele>
        <time>2024-03-31T23:03:48.151Z</time>
      </trkpt>
      <trkpt lat="48.39256" lon="6.8421">
        <ele>540.8</ele>
        <time>2024-03-31T23:03:51.624Z</time>
      </trkpt>
      <trkpt lat="48.3926" lon="6.84198">
        <ele>541.6</ele>
        <time>2024-03-31T23:03:55.100Z</time>
      </trkpt>
      <trkpt lat="48.39261" lon="6.84193">
        <ele>542.2</ele>
        <time>2024-03-31T23:03:58.576Z</time>
      </trkpt>
      <trkpt lat="48.39262" lon="6.8419">
        <ele>542.6</ele>
        <time>2024-03-31T23:04:02.053Z</time>
      </trkpt>
      <trkpt lat="48.39266" lon="6.84181">
        <ele>543.6</ele>
        <time>2024-03-31T23:04:05.532Z</time>
      </trkpt>
      <trkpt lat="48.39267" lon="6.84175">
        <ele>544.2</ele>
        <time>2024-03-31T23:04:09.012Z</time>
      </trkpt>
      <trkpt lat="48.39268" lon="6.84169">
        <ele>544.8</ele>
        <time>2024-03-31T23:04:12.493Z</time>
      </trkpt>
      <trkpt lat="48.39269" lon="6.8416">
        <ele>546</ele>
        <time>2024-03-31T23:04:15.975Z</time>
      </trkpt>
      <trkpt lat="48.3927" lon="6.84151">
        <ele>547.4</ele>
        <time>2024-03-31T23:04:19.459Z</time>
      </trkpt>
      <trkpt lat="48.39269" lon="6.8414">
        <ele>548.2</ele>
        <time>2024-03-31T23:04:22.945Z</time>
      </trkpt>
      <trkpt lat="48.39266" lon="6.84132">
        <ele>548.4</ele>
        <time>2024-03-31T23:04:26.432Z</time>
      </trkpt>
      <trkpt lat="48.39258" lon="6.8412">
        <ele>549.4</ele>
        <time>2024-03-31T23:04:29.922Z</time>
      </trkpt>
      <trkpt lat="48.39254" lon="6.84112">
        <ele>550.2</ele>
        <time>2024-03-31T23:04:33.414Z</time>
      </trkpt>
      <trkpt lat="48.39252" lon="6.84107">
        <ele>550.4</ele>
        <time>2024-03-31T23:04:36.907Z</time>
      </trkpt>
      <trkpt lat="48.39246" lon="6.84093">
        <ele>551.2</ele>
        <time>2024-03-31T23:04:40.403Z</time>
      </trkpt>
      <trkpt lat="48.39244" lon="6.84089">
        <ele>551.8</ele>
        <time>2024-03-31T23:04:43.900Z</time>
      </trkpt>
      <trkpt lat="48.39241" lon="6.84084">
        <ele>552.4</ele>
        <time>2024-03-31T23:04:47.398Z</time>
      </trkpt>
      <trkpt lat="48.3924" lon="6.84081">
        <ele>553</ele>
        <time>2024-03-31T23:04:50.896Z</time>
      </trkpt>
      <trkpt lat="48.39238" lon="6.84075">
        <ele>553.8</ele>
        <time>2024-03-31T23:04:54.395Z</time>
      </trkpt>
      <trkpt lat="48.39237" lon="6.84072">
        <ele>554</ele>
        <time>2024-03-31T23:04:57.895Z</time>
      </trkpt>
      <trkpt lat="48.39229" lon="6.84062">
        <ele>555.2</ele>
        <time>2024-03-31T23:05:01.398Z</time>
      </trkpt>
      <trkpt lat="48.39229" lon="6.84059">
        <ele>555.4</ele>
        <time>2024-03-31T23:05:04.901Z</time>
      </trkpt>
      <trkpt lat="48.39225" lon="6.84054">
        <ele>556.4</ele>
        <time>2024-03-31T23:05:08.405Z</time>
      </trkpt>
      <trkpt lat="48.39221" lon="6.84052">
        <ele>557</ele>
        <time>2024-03-31T23:05:11.910Z</time>
      </trkpt>
      <trkpt lat="48.39218" lon="6.84049">
        <ele>557.6</ele>
        <time>2024-03-31T23:05:15.416Z</time>
      </trkpt>
      <trkpt lat="48.39211" lon="6.84043">
        <ele>558.8</ele>
        <time>2024-03-31T23:05:18.924Z</time>
      </trkpt>
      <trkpt lat="48.39209" lon="6.84042">
        <ele>558.8</ele>
        <time>2024-03-31T23:05:22.433Z</time>
      </trkpt>
      <trkpt lat="48.39204" lon="6.84036">
        <ele>560</ele>
        <time>2024-03-31T23:05:25.944Z</time>
      </trkpt>
      <trkpt lat="48.39203" lon="6.84034">
        <ele>560.2</ele>
        <time>2024-03-31T23:05:29.455Z</time>
      </trkpt>
      <trkpt lat="48.39199" lon="6.8403">
        <ele>561.2</ele>
        <time>2024-03-31T23:05:32.967Z</time>
      </trkpt>
      <trkpt lat="48.39193" lon="6.84024">
        <ele>562.2</ele>
        <time>2024-03-31T23:05:36.481Z</time>
      </trkpt>
      <trkpt lat="48.39192" lon="6.84022">
        <ele>562.6</ele>
        <time>2024-03-31T23:05:39.995Z</time>
      </trkpt>
      <trkpt lat="48.39188" lon="6.84018">
        <ele>563.4</ele>
        <time>2024-03-31T23:05:43.511Z</time>
      </trkpt>
      <trkpt lat="48.3918" lon="6.84012">
        <ele>564.6</ele>
        <time>2024-03-31T23:05:47.029Z</time>
      </trkpt>
      <trkpt lat="48.39175" lon="6.84006">
        <ele>565.6</ele>
        <time>2024-03-31T23:05:50.549Z</time>
      </trkpt>
      <trkpt lat="48.39171" lon="6.84">
        <ele>567</ele>
        <time>2024-03-31T23:05:54.070Z</time>
      </trkpt>
      <trkpt lat="48.39169" lon="6.83999">
        <ele>567.6</ele>
        <time>2024-03-31T23:05:57.592Z</time>
      </trkpt>
      <trkpt lat="48.39164" lon="6.83998">
        <ele>568</ele>
        <time>2024-03-31T23:06:01.115Z</time>
      </trkpt>
      <trkpt lat="48.3916" lon="6.83995">
        <ele>569.2</ele>
        <time>2024-03-31T23:06:04.639Z</time>
      </trkpt>
      <trkpt lat="48.39155" lon="6.83989">
        <ele>570.6</ele>
        <time>2024-03-31T23:06:08.164Z</time>
      </trkpt>
      <trkpt lat="48.3915" lon="6.83984">
        <ele>571.6</ele>
        <time>2024-03-31T23:06:11.691Z</time>
      </trkpt>
      <trkpt lat="48.39145" lon="6.8398">
        <ele>572.8</ele>
        <time>2024-03-31T23:06:15.219Z</time>
      </trkpt>
      <trkpt lat="48.39137" lon="6.83972">
        <ele>573.8</ele>
        <time>2024-03-31T23:06:18.750Z</time>
      </trkpt>
      <trkpt lat="48.39133" lon="6.8397">
        <ele>575</ele>
        <time>2024-03-31T23:06:22.282Z</time>
      </trkpt>
      <trkpt lat="48.39128" lon="6.83966">
        <ele>575.6</ele>
        <time>2024-03-31T23:06:25.816Z</time>
      </trkpt>
      <trkpt lat="48.3912" lon="6.83959">
        <ele>576.2</ele>
        <time>2024-03-31T23:06:29.352Z</time>
      </trkpt>
      <trkpt lat="48.3911" lon="6.83952">
        <ele>577.6</ele>
        <time>2024-03-31T23:06:32.891Z</time>
      </trkpt>
      <trkpt lat="48.39097" lon="6.8394">
        <ele>579.2</ele>
        <time>2024-03-31T23:06:36.433Z</time>
      </trkpt>
      <trkpt lat="48.39094" lon="6.83938">
        <ele>579.6</ele>
        <time>2024-03-31T23:06:39.976Z</time>
      </trkpt>
      <trkpt lat="48.39091" lon="6.83934">
        <ele>579.8</ele>
        <time>2024-03-31T23:06:43.520Z</time>
      </trkpt>
      <trkpt lat="48.39087" lon="6.83926">
        <ele>580.4</ele>
        <time>2024-03-31T23:06:47.066Z</time>
      </trkpt>
      <trkpt lat="48.39082" lon="6.83921">
        <ele>580.8</ele>
        <time>2024-03-31T23:06:50.613Z</time>
      </trkpt>
      <trkpt lat="48.39079" lon="6.83915">
        <ele>581.4</ele>
        <time>2024-03-31T23:06:54.162Z</time>
      </trkpt>
      <trkpt lat="48.39075" lon="6.83908">
        <ele>582.4</ele>
        <time>2024-03-31T23:06:57.712Z</time>
      </trkpt>
      <trkpt lat="48.39066" lon="6.83897">
        <ele>583.4</ele>
        <time>2024-03-31T23:07:01.265Z</time>
      </trkpt>
      <trkpt lat="48.39062" lon="6.83894">
        <ele>584.8</ele>
        <time>2024-03-31T23:07:04.819Z</time>
      </trkpt>
      <trkpt lat="48.39057" lon="6.8389">
        <ele>586</ele>
        <time>2024-03-31T23:07:08.375Z</time>
      </trkpt>
      <trkpt lat="48.39049" lon="6.83883">
        <ele>587</ele>
        <time>2024-03-31T23:07:11.933Z</time>
      </trkpt>
      <trkpt lat="48.39034" lon="6.83868">
        <ele>588.2</ele>
        <time>2024-03-31T23:07:15.496Z</time>
      </trkpt>
      <trkpt lat="48.39027" lon="6.83861">
        <ele>588.6</ele>
        <time>2024-03-31T23:07:19.061Z</time>
      </trkpt>
      <trkpt lat="48.39018" lon="6.83849">
        <ele>589.4</ele>
        <time>2024-03-31T23:07:22.629Z</time>
      </trkpt>
      <trkpt lat="48.39009" lon="6.83837">
        <ele>589.6</ele>
        <time>2024-03-31T23:07:26.200Z</time>
      </trkpt>
      <trkpt lat="48.39002" lon="6.83825">
        <ele>590.2</ele>
        <time>2024-03-31T23:07:29.774Z</time>
      </trkpt>
      <trkpt lat="48.38996" lon="6.83812">
        <ele>590.4</ele>
        <time>2024-03-31T23:07:33.350Z</time>
      </trkpt>
      <trkpt lat="48.38987" lon="6.83795">
        <ele>590.6</ele>
        <time>2024-03-31T23:07:36.930Z</time>
      </trkpt>
      <trkpt lat="48.38978" lon="6.83759">
        <ele>590.2</ele>
        <time>2024-03-31T23:07:40.517Z</time>
      </trkpt>
      <trkpt lat="48.38972" lon="6.8374">
        <ele>589.6</ele>
        <time>2024-03-31T23:07:44.107Z</time>
      </trkpt>
      <trkpt lat="48.3897" lon="6.83736">
        <ele>589.6</ele>
        <time>2024-03-31T23:07:47.698Z</time>
      </trkpt>
      <trkpt lat="48.38968" lon="6.83731">
        <ele>589.4</ele>
        <time>2024-03-31T23:07:51.290Z</time>
      </trkpt>
      <trkpt lat="48.38949" lon="6.83699">
        <ele>589</ele>
        <time>2024-03-31T23:07:54.889Z</time>
      </trkpt>
      <trkpt lat="48.38923" lon="6.83664">
        <ele>588.8</ele>
        <time>2024-03-31T23:07:58.497Z</time>
      </trkpt>
      <trkpt lat="48.38915" lon="6.83653">
        <ele>588.6</ele>
        <time>2024-03-31T23:08:02.108Z</time>
      </trkpt>
      <trkpt lat="48.38906" lon="6.83638">
        <ele>588.6</ele>
        <time>2024-03-31T23:08:05.722Z</time>
      </trkpt>
      <trkpt lat="48.38891" lon="6.83615">
        <ele>588.6</ele>
        <time>2024-03-31T23:08:09.342Z</time>
      </trkpt>
      <trkpt lat="48.38881" lon="6.83594">
        <ele>588.6</ele>
        <time>2024-03-31T23:08:12.966Z</time>
      </trkpt>
      <trkpt lat="48.38872" lon="6.83579">
        <ele>588.6</ele>
        <time>2024-03-31T23:08:16.594Z</time>
      </trkpt>
      <trkpt lat="48.38868" lon="6.83573">
        <ele>588.4</ele>
        <time>2024-03-31T23:08:20.223Z</time>
      </trkpt>
      <trkpt lat="48.38865" lon="6.83566">
        <ele>588.2</ele>
        <time>2024-03-31T23:08:23.853Z</time>
      </trkpt>
      <trkpt lat="48.38859" lon="6.83557">
        <ele>587.8</ele>
        <time>2024-03-31T23:08:27.486Z</time>
      </trkpt>
      <trkpt lat="48.38849" lon="6.83545">
        <ele>587.4</ele>
        <time>2024-03-31T23:08:31.122Z</time>
      </trkpt>
      <trkpt lat="48.38833" lon="6.83528">
        <ele>587</ele>
        <time>2024-03-31T23:08:34.763Z</time>
      </trkpt>
      <trkpt lat="48.38827" lon="6.83524">
        <ele>586.8</ele>
        <time>2024-03-31T23:08:38.406Z</time>
      </trkpt>
      <trkpt lat="48.38823" lon="6.83519">
        <ele>586.6</ele>
        <time>2024-03-31T23:08:42.050Z</time>
      </trkpt>
      <trkpt lat="48.38811" lon="6.83509">
        <ele>586.2</ele>
        <time>2024-03-31T23:08:45.697Z</time>
      </trkpt>
      <trkpt lat="48.38802" lon="6.835">
        <ele>586.2</ele>
        <time>2024-03-31T23:08:49.347Z</time>
      </trkpt>
      <trkpt lat="48.38788" lon="6.83478">
        <ele>586</ele>
        <time>2024-03-31T23:08:53.002Z</time>
      </trkpt>
      <trkpt lat="48.38778" lon="6.83462">
        <ele>585.8</ele>
        <time>2024-03-31T23:08:56.661Z</time>
      </trkpt>
      <trkpt lat="48.38769" lon="6.83446">
        <ele>585.2</ele>
        <time>2024-03-31T23:09:00.324Z</time>
      </trkpt>
      <trkpt lat="48.38759" lon="6.8343">
        <ele>584.8</ele>
        <time>2024-03-31T23:09:03.990Z</time>
      </trkpt>
      <trkpt lat="48.38753" lon="6.83423">
        <ele>584.6</ele>
        <time>2024-03-31T23:09:07.658Z</time>
      </trkpt>
      <trkpt lat="48.38748" lon="6.83417">
        <ele>584.2</ele>
        <time>2024-03-31T23:09:11.328Z</time>
      </trkpt>
      <trkpt lat="48.38734" lon="6.83398">
        <ele>583.6</ele>
        <time>2024-03-31T23:09:15.003Z</time>
      </trkpt>
      <trkpt lat="48.38729" lon="6.83393">
        <ele>583.4</ele>
        <time>2024-03-31T23:09:18.679Z</time>
      </trkpt>
      <trkpt lat="48.38715" lon="6.83378">
        <ele>583.2</ele>
        <time>2024-03-31T23:09:22.360Z</time>
      </trkpt>
      <trkpt lat="48.38695" lon="6.83358">
        <ele>583.2</ele>
        <time>2024-03-31T23:09:26.046Z</time>
      </trkpt>
      <trkpt lat="48.38685" lon="6.83344">
        <ele>583.2</ele>
        <time>2024-03-31T23:09:29.736Z</time>
      </trkpt>
      <trkpt lat="48.38679" lon="6.83335">
        <ele>583.2</ele>
        <time>2024-03-31T23:09:33.428Z</time>
      </trkpt>
      <trkpt lat="48.3867" lon="6.83311">
        <ele>583.2</ele>
        <time>2024-03-31T23:09:37.125Z</time>
      </trkpt>
      <trkpt lat="48.38656" lon="6.83269">
        <ele>583.2</ele>
        <time>2024-03-31T23:09:40.830Z</time>
      </trkpt>
      <trkpt lat="48.38653" lon="6.8326">
        <ele>583.2</ele>
        <time>2024-03-31T23:09:44.536Z</time>
      </trkpt>
      <trkpt lat="48.3865" lon="6.83252">
        <ele>583</ele>
        <time>2024-03-31T23:09:48.244Z</time>
      </trkpt>
      <trkpt lat="48.38628" lon="6.83215">
        <ele>582</ele>
        <time>2024-03-31T23:09:51.961Z</time>
      </trkpt>
      <trkpt lat="48.38622" lon="6.83198">
        <ele>581.6</ele>
        <time>2024-03-31T23:09:55.681Z</time>
      </trkpt>
      <trkpt lat="48.38619" lon="6.83182">
        <ele>580.8</ele>
        <time>2024-03-31T23:09:59.404Z</time>
      </trkpt>
      <trkpt lat="48.38614" lon="6.83167">
        <ele>580.4</ele>
        <time>2024-03-31T23:10:03.129Z</time>
      </trkpt>
      <trkpt lat="48.38606" lon="6.83153">
        <ele>580</ele>
        <time>2024-03-31T23:10:06.858Z</time>
      </trkpt>
      <trkpt lat="48.38598" lon="6.83141">
        <ele>579.8</ele>
        <time>2024-03-31T23:10:10.589Z</time>
      </trkpt>
      <trkpt lat="48.38596" lon="6.83134">
        <ele>579.6</ele>
        <time>2024-03-31T23:10:14.322Z</time>
      </trkpt>
      <trkpt lat="48.38594" lon="6.83127">
        <ele>579.6</ele>
        <time>2024-03-31T23:10:18.056Z</time>
      </trkpt>
      <trkpt lat="48.38585" lon="6.83114">
        <ele>579.2</ele>
        <time>2024-03-31T23:10:21.793Z</time>
      </trkpt>
      <trkpt lat="48.3858" lon="6.83107">
        <ele>579</ele>
        <time>2024-03-31T23:10:25.532Z</time>
      </trkpt>
      <trkpt lat="48.38571" lon="6.83095">
        <ele>579</ele>
        <time>2024-03-31T23:10:29.274Z</time>
      </trkpt>
      <trkpt lat="48.38566" lon="6.83089">
        <ele>578.8</ele>
        <time>2024-03-31T23:10:33.018Z</time>
      </trkpt>
      <trkpt lat="48.38559" lon="6.83075">
        <ele>578.8</ele>
        <time>2024-03-31T23:10:36.765Z</time>
      </trkpt>
      <trkpt lat="48.38555" lon="6.83068">
        <ele>578.6</ele>
        <time>2024-03-31T23:10:40.513Z</time>
      </trkpt>
      <trkpt lat="48.38553" lon="6.8306">
        <ele>578.2</ele>
        <time>2024-03-31T23:10:44.263Z</time>
      </trkpt>
      <trkpt lat="48.38551" lon="6.83052">
        <ele>578.2</ele>
        <time>2024-03-31T23:10:48.014Z</time>
      </trkpt>
      <trkpt lat="48.38547" lon="6.83044">
        <ele>577.8</ele>
        <time>2024-03-31T23:10:51.767Z</time>
      </trkpt>
      <trkpt lat="48.38543" lon="6.83035">
        <ele>577.6</ele>
        <time>2024-03-31T23:10:55.521Z</time>
      </trkpt>
      <trkpt lat="48.38538" lon="6.83027">
        <ele>577.4</ele>
        <time>2024-03-31T23:10:59.277Z</time>
      </trkpt>
      <trkpt lat="48.38531" lon="6.83018">
        <ele>577.2</ele>
        <time>2024-03-31T23:11:03.036Z</time>
      </trkpt>
      <trkpt lat="48.38527" lon="6.83009">
        <ele>576.6</ele>
        <time>2024-03-31T23:11:06.796Z</time>
      </trkpt>
      <trkpt lat="48.38519" lon="6.82983">
        <ele>576</ele>
        <time>2024-03-31T23:11:10.561Z</time>
      </trkpt>
      <trkpt lat="48.38511" lon="6.82965">
        <ele>575.2</ele>
        <time>2024-03-31T23:11:14.330Z</time>
      </trkpt>
      <trkpt lat="48.38507" lon="6.82945">
        <ele>574.8</ele>
        <time>2024-03-31T23:11:18.103Z</time>
      </trkpt>
      <trkpt lat="48.38502" lon="6.82916">
        <ele>574.2</ele>
        <time>2024-03-31T23:11:21.881Z</time>
      </trkpt>
      <trkpt lat="48.38498" lon="6.82898">
        <ele>573.8</ele>
        <time>2024-03-31T23:11:25.662Z</time>
      </trkpt>
      <trkpt lat="48.38496" lon="6.82889">
        <ele>573.2</ele>
        <time>2024-03-31T23:11:29.445Z</time>
      </trkpt>
      <trkpt lat="48.38492" lon="6.82878">
        <ele>572.8</ele>
        <time>2024-03-31T23:11:33.230Z</time>
      </trkpt>
      <trkpt lat="48.38488" lon="6.82864">
        <ele>572.2</ele>
        <time>2024-03-31T23:11:37.017Z</time>
      </trkpt>
      <trkpt lat="48.38486" lon="6.82856">
        <ele>572</ele>
        <time>2024-03-31T23:11:40.806Z</time>
      </trkpt>
      <trkpt lat="48.38483" lon="6.82847">
        <ele>571.6</ele>
        <time>2024-03-31T23:11:44.596Z</time>
      </trkpt>
      <trkpt lat="48.38477" lon="6.82818">
        <ele>571.2</ele>
        <time>2024-03-31T23:11:48.391Z</time>
      </trkpt>
      <trkpt lat="48.38475" lon="6.8281">
        <ele>571</ele>
        <time>2024-03-31T23:11:52.188Z</time>
      </trkpt>
      <trkpt lat="48.38475" lon="6.82802">
        <ele>570.8</ele>
        <time>2024-03-31T23:11:55.986Z</time>
      </trkpt>
      <trkpt lat="48.38475" lon="6.82793">
        <ele>570.6</ele>
        <time>2024-03-31T23:11:59.786Z</time>
      </trkpt>
      <trkpt lat="48.38473" lon="6.82786">
        <ele>570.6</ele>
        <time>2024-03-31T23:12:03.587Z</time>
      </trkpt>
      <trkpt lat="48.38468" lon="6.82772">
        <ele>570.2</ele>
        <time>2024-03-31T23:12:07.391Z</time>
      </trkpt>
      <trkpt lat="48.38466" lon="6.82764">
        <ele>570</ele>
        <time>2024-03-31T23:12:11.196Z</time>
      </trkpt>
      <trkpt lat="48.38461" lon="6.82745">
        <ele>569.6</ele>
        <time>2024-03-31T23:12:15.005Z</time>
      </trkpt>
      <trkpt lat="48.38456" lon="6.82727">
        <ele>569.2</ele>
        <time>2024-03-31T23:12:18.817Z</time>
      </trkpt>
      <trkpt lat="48.38455" lon="6.82718">
        <ele>568.8</ele>
        <time>2024-03-31T23:12:22.631Z</time>
      </trkpt>
      <trkpt lat="48.38451" lon="6.82688">
        <ele>567.8</ele>
        <time>2024-03-31T23:12:26.450Z</time>
      </trkpt>
      <trkpt lat="48.38451" lon="6.82678">
        <ele>567.6</ele>
        <time>2024-03-31T23:12:30.270Z</time>
      </trkpt>
      <trkpt lat="48.3845" lon="6.82668">
        <ele>567.2</ele>
        <time>2024-03-31T23:12:34.092Z</time>
      </trkpt>
      <trkpt lat="48.38445" lon="6.82653">
        <ele>566.4</ele>
        <time>2024-03-31T23:12:37.917Z</time>
      </trkpt>
      <trkpt lat="48.38442" lon="6.82646">
        <ele>566.4</ele>
        <time>2024-03-31T23:12:41.743Z</time>
      </trkpt>
      <trkpt lat="48.38438" lon="6.82634">
        <ele>565.2</ele>
        <time>2024-03-31T23:12:45.572Z</time>
      </trkpt>
      <trkpt lat="48.38438" lon="6.82631">
        <ele>564.2</ele>
        <time>2024-03-31T23:12:49.401Z</time>
      </trkpt>
      <trkpt lat="48.38438" lon="6.82628">
        <ele>563.8</ele>
        <time>2024-03-31T23:12:53.231Z</time>
      </trkpt>
      <trkpt lat="48.38444" lon="6.82619">
        <ele>562.6</ele>
        <time>2024-03-31T23:12:57.063Z</time>
      </trkpt>
      <trkpt lat="48.3845" lon="6.82603">
        <ele>561.8</ele>
        <time>2024-03-31T23:13:00.898Z</time>
      </trkpt>
      <trkpt lat="48.38452" lon="6.82595">
        <ele>561.2</ele>
        <time>2024-03-31T23:13:04.734Z</time>
      </trkpt>
      <trkpt lat="48.38457" lon="6.82576">
        <ele>560.2</ele>
        <time>2024-03-31T23:13:08.574Z</time>
      </trkpt>
      <trkpt lat="48.38459" lon="6.82568">
        <ele>560</ele>
        <time>2024-03-31T23:13:12.415Z</time>
      </trkpt>
      <trkpt lat="48.38459" lon="6.82564">
        <ele>560.2</ele>
        <time>2024-03-31T23:13:16.257Z</time>
      </trkpt>
      <trkpt lat="48.38458" lon="6.82543">
        <ele>560.4</ele>
        <time>2024-03-31T23:13:20.102Z</time>
      </trkpt>
      <trkpt lat="48.38457" lon="6.82528">
        <ele>560.2</ele>
        <time>2024-03-31T23:13:23.950Z</time>
      </trkpt>
      <trkpt lat="48.38456" lon="6.82524">
        <ele>560.2</ele>
        <time>2024-03-31T23:13:27.799Z</time>
      </trkpt>
      <trkpt lat="48.38447" lon="6.82498">
        <ele>560</ele>
        <time>2024-03-31T23:13:31.653Z</time>
      </trkpt>
      <trkpt lat="48.38447" lon="6.82495">
        <ele>559.8</ele>
        <time>2024-03-31T23:13:35.507Z</time>
      </trkpt>
      <trkpt lat="48.38447" lon="6.82495">
        <ele>559.8</ele>
        <time>2024-03-31T23:13:39.361Z</time>
      </trkpt>
      <trkpt lat="48.38446" lon="6.82498">
        <ele>559.6</ele>
        <time>2024-03-31T23:13:43.216Z</time>
      </trkpt>
      <trkpt lat="48.3845" lon="6.82511">
        <ele>559.4</ele>
        <time>2024-03-31T23:13:47.073Z</time>
      </trkpt>
      <trkpt lat="48.38452" lon="6.82522">
        <ele>559.6</ele>
        <time>2024-03-31T23:13:50.932Z</time>
      </trkpt>
      <trkpt lat="48.38451" lon="6.82526">
        <ele>559.6</ele>
        <time>2024-03-31T23:13:54.792Z</time>
      </trkpt>
      <trkpt lat="48.38442" lon="6.82527">
        <ele>559.4</ele>
        <time>2024-03-31T23:13:58.654Z</time>
      </trkpt>
      <trkpt lat="48.38441" lon="6.8253">
        <ele>559.2</ele>
        <time>2024-03-31T23:14:02.517Z</time>
      </trkpt>
      <trkpt lat="48.38438" lon="6.82534">
        <ele>558.6</ele>
        <time>2024-03-31T23:14:06.381Z</time>
      </trkpt>
      <trkpt lat="48.38438" lon="6.82537">
        <ele>558.4</ele>
        <time>2024-03-31T23:14:10.245Z</time>
      </trkpt>
      <trkpt lat="48.38436" lon="6.82539">
        <ele>558.2</ele>
        <time>2024-03-31T23:14:14.110Z</time>
      </trkpt>
      <trkpt lat="48.38431" lon="6.82544">
        <ele>557.4</ele>
        <time>2024-03-31T23:14:17.976Z</time>
      </trkpt>
      <trkpt lat="48.38429" lon="6.82543">
        <ele>556.8</ele>
        <time>2024-03-31T23:14:21.843Z</time>
      </trkpt>
      <trkpt lat="48.38429" lon="6.82542">
        <ele>556</ele>
        <time>2024-03-31T23:14:25.710Z</time>
      </trkpt>
      <trkpt lat="48.38419" lon="6.82554">
        <ele>552.4</ele>
        <time>2024-03-31T23:14:29.580Z</time>
      </trkpt>
      <trkpt lat="48.38415" lon="6.82558">
        <ele>551.8</ele>
        <time>2024-03-31T23:14:33.451Z</time>
      </trkpt>
      <trkpt lat="48.38414" lon="6.82558">
        <ele>551</ele>
        <time>2024-03-31T23:14:37.323Z</time>
      </trkpt>
      <trkpt lat="48.38412" lon="6.82559">
        <ele>550.8</ele>
        <time>2024-03-31T23:14:41.195Z</time>
      </trkpt>
      <trkpt lat="48.38411" lon="6.8256">
        <ele>550.4</ele>
        <time>2024-03-31T23:14:45.068Z</time>
      </trkpt>
      <trkpt lat="48.3841" lon="6.82562">
        <ele>550.4</ele>
        <time>2024-03-31T23:14:48.941Z</time>
      </trkpt>
      <trkpt lat="48.38409" lon="6.82563">
        <ele>550.4</ele>
        <time>2024-03-31T23:14:52.814Z</time>
      </trkpt>
      <trkpt lat="48.38407" lon="6.82565">
        <ele>550.2</ele>
        <time>2024-03-31T23:14:56.688Z</time>
      </trkpt>
      <trkpt lat="48.38402" lon="6.82571">
        <ele>550.6</ele>
        <time>2024-03-31T23:15:00.563Z</time>
      </trkpt>
      <trkpt lat="48.38398" lon="6.82579">
        <ele>551.2</ele>
        <time>2024-03-31T23:15:04.440Z</time>
      </trkpt>
      <trkpt lat="48.38397" lon="6.82582">
        <ele>551.4</ele>
        <time>2024-03-31T23:15:08.318Z</time>
      </trkpt>
      <trkpt lat="48.38394" lon="6.82584">
        <ele>552</ele>
        <time>2024-03-31T23:15:12.197Z</time>
      </trkpt>
      <trkpt lat="48.3839" lon="6.82589">
        <ele>552.6</ele>
        <time>2024-03-31T23:15:16.077Z</time>
      </trkpt>
      <trkpt lat="48.38388" lon="6.8259">
        <ele>552.8</ele>
        <time>2024-03-31T23:15:19.957Z</time>
      </trkpt>
      <trkpt lat="48.38387" lon="6.8259">
        <ele>552.8</ele>
        <time>2024-03-31T23:15:23.838Z</time>
      </trkpt>
      <trkpt lat="48.38383" lon="6.82591">
        <ele>553</ele>
        <time>2024-03-31T23:15:27.720Z</time>
      </trkpt>
      <trkpt lat="48.38381" lon="6.8259">
        <ele>553</ele>
        <time>2024-03-31T23:15:31.602Z</time>
      </trkpt>
      <trkpt lat="48.3838" lon="6.8259">
        <ele>553</ele>
        <time>2024-03-31T23:15:35.485Z</time>
      </trkpt>
      <trkpt lat="48.38378" lon="6.8259">
        <ele>553</ele>
        <time>2024-03-31T23:15:39.368Z</time>
      </trkpt>
      <trkpt lat="48.38373" lon="6.82589">
        <ele>553</ele>
        <time>2024-03-31T23:15:43.252Z</time>
      </trkpt>
      <trkpt lat="48.38358" lon="6.8259">
        <ele>552.2</ele>
        <time>2024-03-31T23:15:47.140Z</time>
      </trkpt>
      <trkpt lat="48.38339" lon="6.82594">
        <ele>551.4</ele>
        <time>2024-03-31T23:15:51.033Z</time>
      </trkpt>
      <trkpt lat="48.3833" lon="6.82601">
        <ele>550.2</ele>
        <time>2024-03-31T23:15:54.929Z</time>
      </trkpt>
      <trkpt lat="48.38327" lon="6.82604">
        <ele>549.8</ele>
        <time>2024-03-31T23:15:58.825Z</time>
      </trkpt>
      <trkpt lat="48.38324" lon="6.82609">
        <ele>549.2</ele>
        <time>2024-03-31T23:16:02.723Z</time>
      </trkpt>
      <trkpt lat="48.38317" lon="6.82623">
        <ele>548.2</ele>
        <time>2024-03-31T23:16:06.624Z</time>
      </trkpt>
      <trkpt lat="48.38315" lon="6.82626">
        <ele>548</ele>
        <time>2024-03-31T23:16:10.525Z</time>
      </trkpt>
      <trkpt lat="48.38309" lon="6.82641">
        <ele>547.4</ele>
        <time>2024-03-31T23:16:14.429Z</time>
      </trkpt>
      <trkpt lat="48.38304" lon="6.82657">
        <ele>546.8</ele>
        <time>2024-03-31T23:16:18.336Z</time>
      </trkpt>
      <trkpt lat="48.38298" lon="6.8268">
        <ele>545.6</ele>
        <time>2024-03-31T23:16:22.248Z</time>
      </trkpt>
      <trkpt lat="48.38292" lon="6.82698">
        <ele>544.8</ele>
        <time>2024-03-31T23:16:26.163Z</time>
      </trkpt>
      <trkpt lat="48.38288" lon="6.82705">
        <ele>544</ele>
        <time>2024-03-31T23:16:30.079Z</time>
      </trkpt>
      <trkpt lat="48.38285" lon="6.82712">
        <ele>543.8</ele>
        <time>2024-03-31T23:16:33.997Z</time>
      </trkpt>
      <trkpt lat="48.38281" lon="6.82719">
        <ele>543.6</ele>
        <time>2024-03-31T23:16:37.916Z</time>
      </trkpt>
      <trkpt lat="48.38276" lon="6.82726">
        <ele>542.8</ele>
        <time>2024-03-31T23:16:41.837Z</time>
      </trkpt>
      <trkpt lat="48.3827" lon="6.82735">
        <ele>541.6</ele>
        <time>2024-03-31T23:16:45.760Z</time>
      </trkpt>
      <trkpt lat="48.38264" lon="6.82743">
        <ele>540.8</ele>
        <time>2024-03-31T23:16:49.685Z</time>
      </trkpt>
      <trkpt lat="48.38257" lon="6.82748">
        <ele>540.6</ele>
        <time>2024-03-31T23:16:53.612Z</time>
      </trkpt>
      <trkpt lat="48.38251" lon="6.8276">
        <ele>540.4</ele>
        <time>2024-03-31T23:16:57.542Z</time>
      </trkpt>
      <trkpt lat="48.38249" lon="6.82769">
        <ele>540.2</ele>
        <time>2024-03-31T23:17:01.473Z</time>
      </trkpt>
      <trkpt lat="48.38247" lon="6.82777">
        <ele>540</ele>
        <time>2024-03-31T23:17:05.406Z</time>
      </trkpt>
      <trkpt lat="48.38242" lon="6.8279">
        <ele>539.6</ele>
        <time>2024-03-31T23:17:09.341Z</time>
      </trkpt>
      <trkpt lat="48.38239" lon="6.82796">
        <ele>539.4</ele>
        <time>2024-03-31T23:17:13.278Z</time>
      </trkpt>
      <trkpt lat="48.38232" lon="6.82814">
        <ele>538.8</ele>
        <time>2024-03-31T23:17:17.218Z</time>
      </trkpt>
      <trkpt lat="48.3822" lon="6.82851">
        <ele>538.6</ele>
        <time>2024-03-31T23:17:21.165Z</time>
      </trkpt>
      <trkpt lat="48.38218" lon="6.82857">
        <ele>538.2</ele>
        <time>2024-03-31T23:17:25.113Z</time>
      </trkpt>
      <trkpt lat="48.38213" lon="6.82873">
        <ele>537.8</ele>
        <time>2024-03-31T23:17:29.064Z</time>
      </trkpt>
      <trkpt lat="48.38211" lon="6.8288">
        <ele>537</ele>
        <time>2024-03-31T23:17:33.017Z</time>
      </trkpt>
      <trkpt lat="48.38208" lon="6.82894">
        <ele>535.8</ele>
        <time>2024-03-31T23:17:36.972Z</time>
      </trkpt>
      <trkpt lat="48.38205" lon="6.82906">
        <ele>535.6</ele>
        <time>2024-03-31T23:17:40.929Z</time>
      </trkpt>
      <trkpt lat="48.38204" lon="6.82913">
        <ele>535.6</ele>
        <time>2024-03-31T23:17:44.888Z</time>
      </trkpt>
      <trkpt lat="48.38199" lon="6.82929">
        <ele>535</ele>
        <time>2024-03-31T23:17:48.850Z</time>
      </trkpt>
      <trkpt lat="48.38197" lon="6.82937">
        <ele>534.6</ele>
        <time>2024-03-31T23:17:52.813Z</time>
      </trkpt>
      <trkpt lat="48.38194" lon="6.8295">
        <ele>534.2</ele>
        <time>2024-03-31T23:17:56.778Z</time>
      </trkpt>
      <trkpt lat="48.38193" lon="6.82957">
        <ele>534</ele>
        <time>2024-03-31T23:18:00.744Z</time>
      </trkpt>
      <trkpt lat="48.38192" lon="6.82967">
        <ele>533.8</ele>
        <time>2024-03-31T23:18:04.712Z</time>
      </trkpt>
      <trkpt lat="48.38189" lon="6.82972">
        <ele>533.6</ele>
        <time>2024-03-31T23:18:08.681Z</time>
      </trkpt>
      <trkpt lat="48.38188" lon="6.82978">
        <ele>533.6</ele>
        <time>2024-03-31T23:18:12.651Z</time>
      </trkpt>
      <trkpt lat="48.38187" lon="6.82983">
        <ele>533.6</ele>
        <time>2024-03-31T23:18:16.622Z</time>
      </trkpt>
      <trkpt lat="48.38185" lon="6.82991">
        <ele>533.4</ele>
        <time>2024-03-31T23:18:20.595Z</time>
      </trkpt>
      <trkpt lat="48.38182" lon="6.83001">
        <ele>533.4</ele>
        <time>2024-03-31T23:18:24.570Z</time>
      </trkpt>
      <trkpt lat="48.3817" lon="6.83026">
        <ele>532.8</ele>
        <time>2024-03-31T23:18:28.550Z</time>
      </trkpt>
      <trkpt lat="48.38167" lon="6.8303">
        <ele>532.8</ele>
        <time>2024-03-31T23:18:32.531Z</time>
      </trkpt>
      <trkpt lat="48.38163" lon="6.83035">
        <ele>532.6</ele>
        <time>2024-03-31T23:18:36.513Z</time>
      </trkpt>
      <trkpt lat="48.38159" lon="6.83041">
        <ele>532.6</ele>
        <time>2024-03-31T23:18:40.497Z</time>
      </trkpt>
      <trkpt lat="48.38153" lon="6.83047">
        <ele>532.4</ele>
        <time>2024-03-31T23:18:44.482Z</time>
      </trkpt>
      <trkpt lat="48.38138" lon="6.83059">
        <ele>532</ele>
        <time>2024-03-31T23:18:48.472Z</time>
      </trkpt>
      <trkpt lat="48.38115" lon="6.83058">
        <ele>531.6</ele>
        <time>2024-03-31T23:18:52.468Z</time>
      </trkpt>
      <trkpt lat="48.38112" lon="6.8306">
        <ele>531.6</ele>
        <time>2024-03-31T23:18:56.464Z</time>
      </trkpt>
      <trkpt lat="48.38108" lon="6.83059">
        <ele>531.4</ele>
        <time>2024-03-31T23:19:00.461Z</time>
      </trkpt>
      <trkpt lat="48.38098" lon="6.83059">
        <ele>531</ele>
        <time>2024-03-31T23:19:04.461Z</time>
      </trkpt>
      <trkpt lat="48.38097" lon="6.83057">
        <ele>531</ele>
        <time>2024-03-31T23:19:08.461Z</time>
      </trkpt>
      <trkpt lat="48.38094" lon="6.83052">
        <ele>531</ele>
        <time>2024-03-31T23:19:12.462Z</time>
      </trkpt>
      <trkpt lat="48.3809" lon="6.83049">
        <ele>531</ele>
        <time>2024-03-31T23:19:16.465Z</time>
      </trkpt>
      <trkpt lat="48.38083" lon="6.83043">
        <ele>531</ele>
        <time>2024-03-31T23:19:20.470Z</time>
      </trkpt>
      <trkpt lat="48.38066" lon="6.83036">
        <ele>531</ele>
        <time>2024-03-31T23:19:24.479Z</time>
      </trkpt>
      <trkpt lat="48.38049" lon="6.83016">
        <ele>531</ele>
        <time>2024-03-31T23:19:28.493Z</time>
      </trkpt>
      <trkpt lat="48.38028" lon="6.82985">
        <ele>531</ele>
        <time>2024-03-31T23:19:32.515Z</time>
      </trkpt>
      <trkpt lat="48.38023" lon="6.82981">
        <ele>531</ele>
        <time>2024-03-31T23:19:36.538Z</time>
      </trkpt>
      <trkpt lat="48.38018" lon="6.82965">
        <ele>530.8</ele>
        <time>2024-03-31T23:19:40.564Z</time>
      </trkpt>
      <trkpt lat="48.38015" lon="6.82959">
        <ele>530.8</ele>
        <time>2024-03-31T23:19:44.592Z</time>
      </trkpt>
      <trkpt lat="48.38011" lon="6.82947">
        <ele>530.2</ele>
        <time>2024-03-31T23:19:48.622Z</time>
      </trkpt>
      <trkpt lat="48.38009" lon="6.82941">
        <ele>529.4</ele>
        <time>2024-03-31T23:19:52.653Z</time>
      </trkpt>
      <trkpt lat="48.38005" lon="6.82929">
        <ele>529</ele>
        <time>2024-03-31T23:19:56.686Z</time>
      </trkpt>
      <trkpt lat="48.38" lon="6.82917">
        <ele>528.8</ele>
        <time>2024-03-31T23:20:00.722Z</time>
      </trkpt>
      <trkpt lat="48.37995" lon="6.82903">
        <ele>528.8</ele>
        <time>2024-03-31T23:20:04.761Z</time>
      </trkpt>
      <trkpt lat="48.37992" lon="6.82895">
        <ele>528.6</ele>
        <time>2024-03-31T23:20:08.801Z</time>
      </trkpt>
      <trkpt lat="48.3799" lon="6.82889">
        <ele>528.6</ele>
        <time>2024-03-31T23:20:12.842Z</time>
      </trkpt>
      <trkpt lat="48.37984" lon="6.82872">
        <ele>528.4</ele>
        <time>2024-03-31T23:20:16.886Z</time>
      </trkpt>
      <trkpt lat="48.37981" lon="6.82865">
        <ele>528.4</ele>
        <time>2024-03-31T23:20:20.932Z</time>
      </trkpt>
      <trkpt lat="48.37978" lon="6.82859">
        <ele>528.2</ele>
        <time>2024-03-31T23:20:24.979Z</time>
      </trkpt>
      <trkpt lat="48.37973" lon="6.82845">
        <ele>528</ele>
        <time>2024-03-31T23:20:29.029Z</time>
      </trkpt>
      <trkpt lat="48.37968" lon="6.82833">
        <ele>527.8</ele>
        <time>2024-03-31T23:20:33.081Z</time>
      </trkpt>
      <trkpt lat="48.37951" lon="6.82816">
        <ele>527.6</ele>
        <time>2024-03-31T23:20:37.138Z</time>
      </trkpt>
      <trkpt lat="48.3794" lon="6.82803">
        <ele>527.6</ele>
        <time>2024-03-31T23:20:41.199Z</time>
      </trkpt>
      <trkpt lat="48.3793" lon="6.82795">
        <ele>527.4</ele>
        <time>2024-03-31T23:20:45.263Z</time>
      </trkpt>
      <trkpt lat="48.37918" lon="6.82792">
        <ele>527.4</ele>
        <time>2024-03-31T23:20:49.330Z</time>
      </trkpt>
      <trkpt lat="48.37905" lon="6.82783">
        <ele>527</ele>
        <time>2024-03-31T23:20:53.400Z</time>
      </trkpt>
      <trkpt lat="48.379" lon="6.82778">
        <ele>526.8</ele>
        <time>2024-03-31T23:20:57.472Z</time>
      </trkpt>
      <trkpt lat="48.37897" lon="6.82776">
        <ele>526.6</ele>
        <time>2024-03-31T23:21:01.545Z</time>
      </trkpt>
      <trkpt lat="48.37883" lon="6.82758">
        <ele>526.4</ele>
        <time>2024-03-31T23:21:05.623Z</time>
      </trkpt>
      <trkpt lat="48.37882" lon="6.82754">
        <ele>526.4</ele>
        <time>2024-03-31T23:21:09.701Z</time>
      </trkpt>
      <trkpt lat="48.37881" lon="6.82725">
        <ele>526.4</ele>
        <time>2024-03-31T23:21:13.784Z</time>
      </trkpt>
      <trkpt lat="48.37879" lon="6.82715">
        <ele>526.2</ele>
        <time>2024-03-31T23:21:17.869Z</time>
      </trkpt>
      <trkpt lat="48.37874" lon="6.82695">
        <ele>525.6</ele>
        <time>2024-03-31T23:21:21.958Z</time>
      </trkpt>
      <trkpt lat="48.37873" lon="6.82688">
        <ele>525.2</ele>
        <time>2024-03-31T23:21:26.048Z</time>
      </trkpt>
      <trkpt lat="48.37869" lon="6.82673">
        <ele>524.2</ele>
        <time>2024-03-31T23:21:30.141Z</time>
      </trkpt>
      <trkpt lat="48.37863" lon="6.82659">
        <ele>523.2</ele>
        <time>2024-03-31T23:21:34.236Z</time>
      </trkpt>
      <trkpt lat="48.37853" lon="6.82649">
        <ele>522</ele>
        <time>2024-03-31T23:21:38.334Z</time>
      </trkpt>
      <trkpt lat="48.37843" lon="6.8264">
        <ele>521.2</ele>
        <time>2024-03-31T23:21:42.435Z</time>
      </trkpt>
      <trkpt lat="48.37838" lon="6.82626">
        <ele>520.8</ele>
        <time>2024-03-31T23:21:46.539Z</time>
      </trkpt>
      <trkpt lat="48.37837" lon="6.82601">
        <ele>519.8</ele>
        <time>2024-03-31T23:21:50.647Z</time>
      </trkpt>
      <trkpt lat="48.37837" lon="6.82573">
        <ele>518.8</ele>
        <time>2024-03-31T23:21:54.760Z</time>
      </trkpt>
      <trkpt lat="48.37838" lon="6.82565">
        <ele>518.4</ele>
        <time>2024-03-31T23:21:58.875Z</time>
      </trkpt>
      <trkpt lat="48.37838" lon="6.82548">
        <ele>517.6</ele>
        <time>2024-03-31T23:22:02.992Z</time>
      </trkpt>
      <trkpt lat="48.37837" lon="6.8254">
        <ele>517.2</ele>
        <time>2024-03-31T23:22:07.111Z</time>
      </trkpt>
      <trkpt lat="48.37833" lon="6.82526">
        <ele>516.2</ele>
        <time>2024-03-31T23:22:11.232Z</time>
      </trkpt>
      <trkpt lat="48.3783" lon="6.82519">
        <ele>515</ele>
        <time>2024-03-31T23:22:15.355Z</time>
      </trkpt>
      <trkpt lat="48.37818" lon="6.82496">
        <ele>513.8</ele>
        <time>2024-03-31T23:22:19.483Z</time>
      </trkpt>
      <trkpt lat="48.37818" lon="6.82492">
        <ele>513.6</ele>
        <time>2024-03-31T23:22:23.611Z</time>
      </trkpt>
      <trkpt lat="48.37823" lon="6.82482">
        <ele>512.8</ele>
        <time>2024-03-31T23:22:27.742Z</time>
      </trkpt>
      <trkpt lat="48.37825" lon="6.82477">
        <ele>511.8</ele>
        <time>2024-03-31T23:22:31.874Z</time>
      </trkpt>
      <trkpt lat="48.37828" lon="6.8246">
        <ele>510.2</ele>
        <time>2024-03-31T23:22:36.008Z</time>
      </trkpt>
      <trkpt lat="48.37825" lon="6.82451">
        <ele>509.8</ele>
        <time>2024-03-31T23:22:40.144Z</time>
      </trkpt>
      <trkpt lat="48.37824" lon="6.82444">
        <ele>509.2</ele>
        <time>2024-03-31T23:22:44.281Z</time>
      </trkpt>
      <trkpt lat="48.37824" lon="6.82436">
        <ele>509</ele>
        <time>2024-03-31T23:22:48.420Z</time>
      </trkpt>
      <trkpt lat="48.37823" lon="6.82421">
        <ele>507.8</ele>
        <time>2024-03-31T23:22:52.561Z</time>
      </trkpt>
      <trkpt lat="48.37823" lon="6.82416">
        <ele>507.2</ele>
        <time>2024-03-31T23:22:56.703Z</time>
      </trkpt>
      <trkpt lat="48.37823" lon="6.82412">
        <ele>506.6</ele>
        <time>2024-03-31T23:23:00.846Z</time>
      </trkpt>
      <trkpt lat="48.37815" lon="6.82395">
        <ele>505.8</ele>
        <time>2024-03-31T23:23:04.992Z</time>
      </trkpt>
      <trkpt lat="48.3781" lon="6.82387">
        <ele>505.2</ele>
        <time>2024-03-31T23:23:09.140Z</time>
      </trkpt>
      <trkpt lat="48.37808" lon="6.82374">
        <ele>504.4</ele>
        <time>2024-03-31T23:23:13.290Z</time>
      </trkpt>
      <trkpt lat="48.37805" lon="6.82369">
        <ele>504</ele>
        <time>2024-03-31T23:23:17.441Z</time>
      </trkpt>
      <trkpt lat="48.37792" lon="6.82337">
        <ele>503.2</ele>
        <time>2024-03-31T23:23:21.599Z</time>
      </trkpt>
      <trkpt lat="48.3779" lon="6.82331">
        <ele>503</ele>
        <time>2024-03-31T23:23:25.758Z</time>
      </trkpt>
      <trkpt lat="48.37791" lon="6.82309">
        <ele>501.8</ele>
        <time>2024-03-31T23:23:29.921Z</time>
      </trkpt>
      <trkpt lat="48.37794" lon="6.82291">
        <ele>500.6</ele>
        <time>2024-03-31T23:23:34.087Z</time>
      </trkpt>
      <trkpt lat="48.37796" lon="6.8228">
        <ele>500</ele>
        <time>2024-03-31T23:23:38.255Z</time>
      </trkpt>
      <trkpt lat="48.37799" lon="6.82269">
        <ele>499</ele>
        <time>2024-03-31T23:23:42.425Z</time>
      </trkpt>
      <trkpt lat="48.37798" lon="6.82261">
        <ele>498.6</ele>
        <time>2024-03-31T23:23:46.596Z</time>
      </trkpt>
      <trkpt lat="48.37796" lon="6.82252">
        <ele>498</ele>
        <time>2024-03-31T23:23:50.769Z</time>
      </trkpt>
      <trkpt lat="48.37794" lon="6.82245">
        <ele>497.4</ele>
        <time>2024-03-31T23:23:54.943Z</time>
      </trkpt>
      <trkpt lat="48.37792" lon="6.82238">
        <ele>496.8</ele>
        <time>2024-03-31T23:23:59.118Z</time>
      </trkpt>
      <trkpt lat="48.37789" lon="6.82231">
        <ele>496.6</ele>
        <time>2024-03-31T23:24:03.295Z</time>
      </trkpt>
      <trkpt lat="48.37785" lon="6.82217">
        <ele>495.6</ele>
        <time>2024-03-31T23:24:07.474Z</time>
      </trkpt>
      <trkpt lat="48.37783" lon="6.8221">
        <ele>495.2</ele>
        <time>2024-03-31T23:24:11.655Z</time>
      </trkpt>
      <trkpt lat="48.3778" lon="6.82198">
        <ele>494.4</ele>
        <time>2024-03-31T23:24:15.838Z</time>
      </trkpt>
      <trkpt lat="48.37779" lon="6.82194">
        <ele>494.4</ele>
        <time>2024-03-31T23:24:20.021Z</time>
      </trkpt>
      <trkpt lat="48.3778" lon="6.82189">
        <ele>494.2</ele>
        <time>2024-03-31T23:24:24.205Z</time>
      </trkpt>
      <trkpt lat="48.37787" lon="6.82165">
        <ele>493.2</ele>
        <time>2024-03-31T23:24:28.394Z</time>
      </trkpt>
      <trkpt lat="48.37789" lon="6.82158">
        <ele>492.4</ele>
        <time>2024-03-31T23:24:32.584Z</time>
      </trkpt>
      <trkpt lat="48.37791" lon="6.82148">
        <ele>492.2</ele>
        <time>2024-03-31T23:24:36.776Z</time>
      </trkpt>
      <trkpt lat="48.37797" lon="6.82134">
        <ele>490.8</ele>
        <time>2024-03-31T23:24:40.971Z</time>
      </trkpt>
      <trkpt lat="48.37799" lon="6.8213">
        <ele>490.6</ele>
        <time>2024-03-31T23:24:45.167Z</time>
      </trkpt>
      <trkpt lat="48.37801" lon="6.82119">
        <ele>489.8</ele>
        <time>2024-03-31T23:24:49.364Z</time>
      </trkpt>
      <trkpt lat="48.3781" lon="6.82093">
        <ele>488.8</ele>
        <time>2024-03-31T23:24:53.566Z</time>
      </trkpt>
      <trkpt lat="48.37813" lon="6.82086">
        <ele>488.4</ele>
        <time>2024-03-31T23:24:57.770Z</time>
      </trkpt>
      <trkpt lat="48.3782" lon="6.82066">
        <ele>488.2</ele>
        <time>2024-03-31T23:25:01.978Z</time>
      </trkpt>
      <trkpt lat="48.37829" lon="6.82043">
        <ele>487.6</ele>
        <time>2024-03-31T23:25:06.190Z</time>
      </trkpt>
      <trkpt lat="48.37833" lon="6.8203">
        <ele>486.8</ele>
        <time>2024-03-31T23:25:10.405Z</time>
      </trkpt>
      <trkpt lat="48.37834" lon="6.82024">
        <ele>486.4</ele>
        <time>2024-03-31T23:25:14.621Z</time>
      </trkpt>
      <trkpt lat="48.37833" lon="6.82018">
        <ele>486</ele>
        <time>2024-03-31T23:25:18.838Z</time>
      </trkpt>
      <trkpt lat="48.37829" lon="6.82004">
        <ele>485.2</ele>
        <time>2024-03-31T23:25:23.057Z</time>
      </trkpt>
      <trkpt lat="48.37826" lon="6.81994">
        <ele>484.4</ele>
        <time>2024-03-31T23:25:27.278Z</time>
      </trkpt>
      <trkpt lat="48.37826" lon="6.8199">
        <ele>484</ele>
        <time>2024-03-31T23:25:31.500Z</time>
      </trkpt>
      <trkpt lat="48.37825" lon="6.81983">
        <ele>482.8</ele>
        <time>2024-03-31T23:25:35.723Z</time>
      </trkpt>
      <trkpt lat="48.37826" lon="6.81975">
        <ele>481.6</ele>
        <time>2024-03-31T23:25:39.947Z</time>
      </trkpt>
      <trkpt lat="48.37826" lon="6.81962">
        <ele>479.8</ele>
        <time>2024-03-31T23:25:44.174Z</time>
      </trkpt>
      <trkpt lat="48.37826" lon="6.81961">
        <ele>478.8</ele>
        <time>2024-03-31T23:25:48.401Z</time>
      </trkpt>
      <trkpt lat="48.37829" lon="6.8195">
        <ele>476.4</ele>
        <time>2024-03-31T23:25:52.630Z</time>
      </trkpt>
      <trkpt lat="48.37829" lon="6.81949">
        <ele>475.8</ele>
        <time>2024-03-31T23:25:56.859Z</time>
      </trkpt>
      <trkpt lat="48.3783" lon="6.81947">
        <ele>475.4</ele>
        <time>2024-03-31T23:26:01.089Z</time>
      </trkpt>
      <trkpt lat="48.37832" lon="6.81938">
        <ele>474.8</ele>
        <time>2024-03-31T23:26:05.320Z</time>
      </trkpt>
      <trkpt lat="48.37833" lon="6.81921">
        <ele>474.4</ele>
        <time>2024-03-31T23:26:09.554Z</time>
      </trkpt>
      <trkpt lat="48.37836" lon="6.81904">
        <ele>473.2</ele>
        <time>2024-03-31T23:26:13.791Z</time>
      </trkpt>
      <trkpt lat="48.37838" lon="6.81887">
        <ele>471.4</ele>
        <time>2024-03-31T23:26:18.031Z</time>
      </trkpt>
      <trkpt lat="48.37838" lon="6.81878">
        <ele>470.6</ele>
        <time>2024-03-31T23:26:22.273Z</time>
      </trkpt>
      <trkpt lat="48.37838" lon="6.81874">
        <ele>470</ele>
        <time>2024-03-31T23:26:26.515Z</time>
      </trkpt>
      <trkpt lat="48.37836" lon="6.81861">
        <ele>469</ele>
        <time>2024-03-31T23:26:30.760Z</time>
      </trkpt>
      <trkpt lat="48.37833" lon="6.81855">
        <ele>468.4</ele>
        <time>2024-03-31T23:26:35.006Z</time>
      </trkpt>
      <trkpt lat="48.37828" lon="6.81844">
        <ele>467.8</ele>
        <time>2024-03-31T23:26:39.254Z</time>
      </trkpt>
      <trkpt lat="48.37824" lon="6.81836">
        <ele>466.6</ele>
        <time>2024-03-31T23:26:43.504Z</time>
      </trkpt>
      <trkpt lat="48.37822" lon="6.81834">
        <ele>465.8</ele>
        <time>2024-03-31T23:26:47.754Z</time>
      </trkpt>
      <trkpt lat="48.37822" lon="6.81834">
        <ele>464.8</ele>
        <time>2024-03-31T23:26:52.004Z</time>
      </trkpt>
      <trkpt lat="48.37803" lon="6.81818">
        <ele>461.8</ele>
        <time>2024-03-31T23:26:56.260Z</time>
      </trkpt>
      <trkpt lat="48.37802" lon="6.81818">
        <ele>460.2</ele>
        <time>2024-03-31T23:27:00.516Z</time>
      </trkpt>
      <trkpt lat="48.37789" lon="6.81805">
        <ele>457.8</ele>
        <time>2024-03-31T23:27:04.776Z</time>
      </trkpt>
      <trkpt lat="48.37787" lon="6.81805">
        <ele>457.4</ele>
        <time>2024-03-31T23:27:09.036Z</time>
      </trkpt>
      <trkpt lat="48.37781" lon="6.81801">
        <ele>456.8</ele>
        <time>2024-03-31T23:27:13.298Z</time>
      </trkpt>
      <trkpt lat="48.37777" lon="6.818">
        <ele>456.2</ele>
        <time>2024-03-31T23:27:17.561Z</time>
      </trkpt>
      <trkpt lat="48.37776" lon="6.818">
        <ele>455</ele>
        <time>2024-03-31T23:27:21.825Z</time>
      </trkpt>
      <trkpt lat="48.37765" lon="6.818">
        <ele>453.8</ele>
        <time>2024-03-31T23:27:26.091Z</time>
      </trkpt>
      <trkpt lat="48.37756" lon="6.81803">
        <ele>453.4</ele>
        <time>2024-03-31T23:27:30.360Z</time>
      </trkpt>
      <trkpt lat="48.37748" lon="6.81802">
        <ele>452.6</ele>
        <time>2024-03-31T23:27:34.631Z</time>
      </trkpt>
      <trkpt lat="48.37747" lon="6.81805">
        <ele>452.2</ele>
        <time>2024-03-31T23:27:38.902Z</time>
      </trkpt>
      <trkpt lat="48.37739" lon="6.81815">
        <ele>451.6</ele>
        <time>2024-03-31T23:27:43.176Z</time>
      </trkpt>
      <trkpt lat="48.37735" lon="6.8182">
        <ele>450.4</ele>
        <time>2024-03-31T23:27:47.451Z</time>
      </trkpt>
      <trkpt lat="48.37735" lon="6.81821">
        <ele>449.2</ele>
        <time>2024-03-31T23:27:51.726Z</time>
      </trkpt>
      <trkpt lat="48.37735" lon="6.81823">
        <ele>448.8</ele>
        <time>2024-03-31T23:27:56.002Z</time>
      </trkpt>
      <trkpt lat="48.37734" lon="6.81824">
        <ele>448.6</ele>
        <time>2024-03-31T23:28:00.278Z</time>
      </trkpt>
      <trkpt lat="48.37731" lon="6.81827">
        <ele>448.2</ele>
        <time>2024-03-31T23:28:04.555Z</time>
      </trkpt>
      <trkpt lat="48.37729" lon="6.81829">
        <ele>448</ele>
        <time>2024-03-31T23:28:08.833Z</time>
      </trkpt>
      <trkpt lat="48.37723" lon="6.81838">
        <ele>447</ele>
        <time>2024-03-31T23:28:13.113Z</time>
      </trkpt>
      <trkpt lat="48.37717" lon="6.8184">
        <ele>445.6</ele>
        <time>2024-03-31T23:28:17.394Z</time>
      </trkpt>
      <trkpt lat="48.37715" lon="6.81842">
        <ele>445.4</ele>
        <time>2024-03-31T23:28:21.676Z</time>
      </trkpt>
      <trkpt lat="48.37714" lon="6.81846">
        <ele>444.8</ele>
        <time>2024-03-31T23:28:25.959Z</time>
      </trkpt>
      <trkpt lat="48.37711" lon="6.81855">
        <ele>444</ele>
        <time>2024-03-31T23:28:30.243Z</time>
      </trkpt>
      <trkpt lat="48.37704" lon="6.81866">
        <ele>443.2</ele>
        <time>2024-03-31T23:28:34.530Z</time>
      </trkpt>
      <trkpt lat="48.377" lon="6.81873">
        <ele>443</ele>
        <time>2024-03-31T23:28:38.818Z</time>
      </trkpt>
      <trkpt lat="48.3769" lon="6.81889">
        <ele>442.6</ele>
        <time>2024-03-31T23:28:43.110Z</time>
      </trkpt>
      <trkpt lat="48.37684" lon="6.81896">
        <ele>442.4</ele>
        <time>2024-03-31T23:28:47.404Z</time>
      </trkpt>
      <trkpt lat="48.37681" lon="6.819">
        <ele>442.4</ele>
        <time>2024-03-31T23:28:51.699Z</time>
      </trkpt>
      <trkpt lat="48.37667" lon="6.81932">
        <ele>441.8</ele>
        <time>2024-03-31T23:28:56.001Z</time>
      </trkpt>
      <trkpt lat="48.37665" lon="6.81937">
        <ele>441.6</ele>
        <time>2024-03-31T23:29:00.303Z</time>
      </trkpt>
      <trkpt lat="48.37645" lon="6.81963">
        <ele>441</ele>
        <time>2024-03-31T23:29:04.612Z</time>
      </trkpt>
      <trkpt lat="48.37634" lon="6.81979">
        <ele>440.6</ele>
        <time>2024-03-31T23:29:08.925Z</time>
      </trkpt>
      <trkpt lat="48.37621" lon="6.81992">
        <ele>440.2</ele>
        <time>2024-03-31T23:29:13.242Z</time>
      </trkpt>
      <trkpt lat="48.37608" lon="6.81994">
        <ele>440.2</ele>
        <time>2024-03-31T23:29:17.562Z</time>
      </trkpt>
      <trkpt lat="48.37599" lon="6.81992">
        <ele>439.8</ele>
        <time>2024-03-31T23:29:21.885Z</time>
      </trkpt>
      <trkpt lat="48.37591" lon="6.81988">
        <ele>439.6</ele>
        <time>2024-03-31T23:29:26.210Z</time>
      </trkpt>
      <trkpt lat="48.37587" lon="6.81988">
        <ele>439.6</ele>
        <time>2024-03-31T23:29:30.536Z</time>
      </trkpt>
      <trkpt lat="48.37583" lon="6.8199">
        <ele>439.4</ele>
        <time>2024-03-31T23:29:34.863Z</time>
      </trkpt>
      <trkpt lat="48.37568" lon="6.82001">
        <ele>439.2</ele>
        <time>2024-03-31T23:29:39.194Z</time>
      </trkpt>
      <trkpt lat="48.37555" lon="6.82018">
        <ele>439.2</ele>
        <time>2024-03-31T23:29:43.530Z</time>
      </trkpt>
      <trkpt lat="48.37545" lon="6.82037">
        <ele>439.6</ele>
        <time>2024-03-31T23:29:47.870Z</time>
      </trkpt>
      <trkpt lat="48.37537" lon="6.82053">
        <ele>439.4</ele>
        <time>2024-03-31T23:29:52.213Z</time>
      </trkpt>
      <trkpt lat="48.37534" lon="6.82057">
        <ele>439.2</ele>
        <time>2024-03-31T23:29:56.557Z</time>
      </trkpt>
      <trkpt lat="48.37516" lon="6.82081">
        <ele>438.6</ele>
        <time>2024-03-31T23:30:00.907Z</time>
      </trkpt>
      <trkpt lat="48.37506" lon="6.82097">
        <ele>438.4</ele>
        <time>2024-03-31T23:30:05.261Z</time>
      </trkpt>
      <trkpt lat="48.37484" lon="6.8213">
        <ele>437.2</ele>
        <time>2024-03-31T23:30:09.623Z</time>
      </trkpt>
      <trkpt lat="48.37478" lon="6.82138">
        <ele>436.8</ele>
        <time>2024-03-31T23:30:13.987Z</time>
      </trkpt>
      <trkpt lat="48.37469" lon="6.82153">
        <ele>436</ele>
        <time>2024-03-31T23:30:18.354Z</time>
      </trkpt>
      <trkpt lat="48.37464" lon="6.82161">
        <ele>435.4</ele>
        <time>2024-03-31T23:30:22.723Z</time>
      </trkpt>
      <trkpt lat="48.3746" lon="6.8217">
        <ele>434.6</ele>
        <time>2024-03-31T23:30:27.094Z</time>
      </trkpt>
      <trkpt lat="48.37455" lon="6.82179">
        <ele>434.4</ele>
        <time>2024-03-31T23:30:31.467Z</time>
      </trkpt>
      <trkpt lat="48.37442" lon="6.82196">
        <ele>433.2</ele>
        <time>2024-03-31T23:30:35.844Z</time>
      </trkpt>
      <trkpt lat="48.37436" lon="6.82208">
        <ele>432.4</ele>
        <time>2024-03-31T23:30:40.224Z</time>
      </trkpt>
      <trkpt lat="48.37431" lon="6.82219">
        <ele>432</ele>
        <time>2024-03-31T23:30:44.606Z</time>
      </trkpt>
      <trkpt lat="48.37421" lon="6.82239">
        <ele>431</ele>
        <time>2024-03-31T23:30:48.992Z</time>
      </trkpt>
      <trkpt lat="48.37417" lon="6.82246">
        <ele>430.8</ele>
        <time>2024-03-31T23:30:53.380Z</time>
      </trkpt>
      <trkpt lat="48.37411" lon="6.82254">
        <ele>430.2</ele>
        <time>2024-03-31T23:30:57.770Z</time>
      </trkpt>
      <trkpt lat="48.37403" lon="6.82272">
        <ele>429.6</ele>
        <time>2024-03-31T23:31:02.164Z</time>
      </trkpt>
      <trkpt lat="48.37401" lon="6.82283">
        <ele>429.6</ele>
        <time>2024-03-31T23:31:06.560Z</time>
      </trkpt>
      <trkpt lat="48.37398" lon="6.8229">
        <ele>429.4</ele>
        <time>2024-03-31T23:31:10.957Z</time>
      </trkpt>
      <trkpt lat="48.37392" lon="6.82302">
        <ele>429.2</ele>
        <time>2024-03-31T23:31:15.356Z</time>
      </trkpt>
      <trkpt lat="48.37387" lon="6.82317">
        <ele>429.2</ele>
        <time>2024-03-31T23:31:19.758Z</time>
      </trkpt>
      <trkpt lat="48.37385" lon="6.82332">
        <ele>429.2</ele>
        <time>2024-03-31T23:31:24.163Z</time>
      </trkpt>
      <trkpt lat="48.37384" lon="6.8234">
        <ele>429.2</ele>
        <time>2024-03-31T23:31:28.569Z</time>
      </trkpt>
      <trkpt lat="48.37383" lon="6.82347">
        <ele>429.4</ele>
        <time>2024-03-31T23:31:32.976Z</time>
      </trkpt>
      <trkpt lat="48.37379" lon="6.82361">
        <ele>429.6</ele>
        <time>2024-03-31T23:31:37.386Z</time>
      </trkpt>
      <trkpt lat="48.37377" lon="6.82368">
        <ele>429.8</ele>
        <time>2024-03-31T23:31:41.797Z</time>
      </trkpt>
      <trkpt lat="48.37374" lon="6.82375">
        <ele>430</ele>
        <time>2024-03-31T23:31:46.210Z</time>
      </trkpt>
      <trkpt lat="48.3737" lon="6.82387">
        <ele>430</ele>
        <time>2024-03-31T23:31:50.625Z</time>
      </trkpt>
      <trkpt lat="48.37366" lon="6.824">
        <ele>430</ele>
        <time>2024-03-31T23:31:55.043Z</time>
      </trkpt>
      <trkpt lat="48.37364" lon="6.82406">
        <ele>430</ele>
        <time>2024-03-31T23:31:59.462Z</time>
      </trkpt>
      <trkpt lat="48.37351" lon="6.82424">
        <ele>430.2</ele>
        <time>2024-03-31T23:32:03.885Z</time>
      </trkpt>
      <trkpt lat="48.37344" lon="6.82436">
        <ele>430.4</ele>
        <time>2024-03-31T23:32:08.311Z</time>
      </trkpt>
      <trkpt lat="48.37341" lon="6.82444">
        <ele>430.4</ele>
        <time>2024-03-31T23:32:12.738Z</time>
      </trkpt>
      <trkpt lat="48.37337" lon="6.82449">
        <ele>430.2</ele>
        <time>2024-03-31T23:32:17.167Z</time>
      </trkpt>
      <trkpt lat="48.37327" lon="6.82472">
        <ele>430</ele>
        <time>2024-03-31T23:32:21.600Z</time>
      </trkpt>
      <trkpt lat="48.37318" lon="6.82486">
        <ele>429.6</ele>
        <time>2024-03-31T23:32:26.037Z</time>
      </trkpt>
      <trkpt lat="48.37309" lon="6.82508">
        <ele>429.2</ele>
        <time>2024-03-31T23:32:30.478Z</time>
      </trkpt>
      <trkpt lat="48.37306" lon="6.82516">
        <ele>429.2</ele>
        <time>2024-03-31T23:32:34.920Z</time>
      </trkpt>
      <trkpt lat="48.37303" lon="6.82523">
        <ele>429</ele>
        <time>2024-03-31T23:32:39.364Z</time>
      </trkpt>
      <trkpt lat="48.37291" lon="6.82542">
        <ele>429</ele>
        <time>2024-03-31T23:32:43.812Z</time>
      </trkpt>
      <trkpt lat="48.37288" lon="6.8255">
        <ele>428.8</ele>
        <time>2024-03-31T23:32:48.262Z</time>
      </trkpt>
      <trkpt lat="48.37276" lon="6.82579">
        <ele>428</ele>
        <time>2024-03-31T23:32:52.718Z</time>
      </trkpt>
      <trkpt lat="48.37274" lon="6.82587">
        <ele>428</ele>
        <time>2024-03-31T23:32:57.175Z</time>
      </trkpt>
      <trkpt lat="48.37271" lon="6.82597">
        <ele>427.8</ele>
        <time>2024-03-31T23:33:01.634Z</time>
      </trkpt>
      <trkpt lat="48.37266" lon="6.82612">
        <ele>427.6</ele>
        <time>2024-03-31T23:33:06.096Z</time>
      </trkpt>
      <trkpt lat="48.37263" lon="6.82621">
        <ele>427.4</ele>
        <time>2024-03-31T23:33:10.559Z</time>
      </trkpt>
      <trkpt lat="48.37258" lon="6.82637">
        <ele>427.2</ele>
        <time>2024-03-31T23:33:15.025Z</time>
      </trkpt>
      <trkpt lat="48.37253" lon="6.82651">
        <ele>427</ele>
        <time>2024-03-31T23:33:19.494Z</time>
      </trkpt>
      <trkpt lat="48.37248" lon="6.82661">
        <ele>427</ele>
        <time>2024-03-31T23:33:23.965Z</time>
      </trkpt>
      <trkpt lat="48.37238" lon="6.82685">
        <ele>426.6</ele>
        <time>2024-03-31T23:33:28.441Z</time>
      </trkpt>
      <trkpt lat="48.37229" lon="6.82701">
        <ele>426.2</ele>
        <time>2024-03-31T23:33:32.921Z</time>
      </trkpt>
      <trkpt lat="48.37225" lon="6.82709">
        <ele>426</ele>
        <time>2024-03-31T23:33:37.402Z</time>
      </trkpt>
      <trkpt lat="48.37216" lon="6.82725">
        <ele>425.6</ele>
        <time>2024-03-31T23:33:41.887Z</time>
      </trkpt>
      <trkpt lat="48.37211" lon="6.82732">
        <ele>425.6</ele>
        <time>2024-03-31T23:33:46.374Z</time>
      </trkpt>
      <trkpt lat="48.37196" lon="6.82755">
        <ele>424</ele>
        <time>2024-03-31T23:33:50.866Z</time>
      </trkpt>
      <trkpt lat="48.3719" lon="6.82762">
        <ele>423.6</ele>
        <time>2024-03-31T23:33:55.360Z</time>
      </trkpt>
      <trkpt lat="48.37179" lon="6.82775">
        <ele>422.8</ele>
        <time>2024-03-31T23:33:59.858Z</time>
      </trkpt>
      <trkpt lat="48.37141" lon="6.82813">
        <ele>421.4</ele>
        <time>2024-03-31T23:34:04.367Z</time>
      </trkpt>
      <trkpt lat="48.37122" lon="6.8283">
        <ele>420.6</ele>
        <time>2024-03-31T23:34:08.882Z</time>
      </trkpt>
      <trkpt lat="48.37117" lon="6.82833">
        <ele>420.2</ele>
        <time>2024-03-31T23:34:13.398Z</time>
      </trkpt>
      <trkpt lat="48.37111" lon="6.82836">
        <ele>420</ele>
        <time>2024-03-31T23:34:17.916Z</time>
      </trkpt>
      <trkpt lat="48.3709" lon="6.82838">
        <ele>419.4</ele>
        <time>2024-03-31T23:34:22.439Z</time>
      </trkpt>
      <trkpt lat="48.37082" lon="6.82837">
        <ele>418.6</ele>
        <time>2024-03-31T23:34:26.964Z</time>
      </trkpt>
      <trkpt lat="48.37074" lon="6.82835">
        <ele>417.6</ele>
        <time>2024-03-31T23:34:31.491Z</time>
      </trkpt>
      <trkpt lat="48.37066" lon="6.82834">
        <ele>417.4</ele>
        <time>2024-03-31T23:34:36.020Z</time>
      </trkpt>
      <trkpt lat="48.3706" lon="6.82831">
        <ele>417</ele>
        <time>2024-03-31T23:34:40.551Z</time>
      </trkpt>
      <trkpt lat="48.37054" lon="6.82827">
        <ele>416.8</ele>
        <time>2024-03-31T23:34:45.084Z</time>
      </trkpt>
      <trkpt lat="48.37049" lon="6.82823">
        <ele>416.4</ele>
        <time>2024-03-31T23:34:49.618Z</time>
      </trkpt>
      <trkpt lat="48.37043" lon="6.82819">
        <ele>416.2</ele>
        <time>2024-03-31T23:34:54.154Z</time>
      </trkpt>
      <trkpt lat="48.37038" lon="6.82814">
        <ele>415.8</ele>
        <time>2024-03-31T23:34:58.691Z</time>
      </trkpt>
      <trkpt lat="48.37033" lon="6.82809">
        <ele>415.4</ele>
        <time>2024-03-31T23:35:03.230Z</time>
      </trkpt>
      <trkpt lat="48.37024" lon="6.82798">
        <ele>415.2</ele>
        <time>2024-03-31T23:35:07.772Z</time>
      </trkpt>
      <trkpt lat="48.37019" lon="6.82793">
        <ele>415.2</ele>
        <time>2024-03-31T23:35:12.315Z</time>
      </trkpt>
      <trkpt lat="48.37014" lon="6.82788">
        <ele>415</ele>
        <time>2024-03-31T23:35:16.860Z</time>
      </trkpt>
      <trkpt lat="48.37003" lon="6.82778">
        <ele>414.8</ele>
        <time>2024-03-31T23:35:21.408Z</time>
      </trkpt>
      <trkpt lat="48.36991" lon="6.8276">
        <ele>414.8</ele>
        <time>2024-03-31T23:35:25.960Z</time>
      </trkpt>
      <trkpt lat="48.36983" lon="6.82747">
        <ele>414.8</ele>
        <time>2024-03-31T23:35:30.515Z</time>
      </trkpt>
      <trkpt lat="48.36971" lon="6.82727">
        <ele>415</ele>
        <time>2024-03-31T23:35:35.075Z</time>
      </trkpt>
      <trkpt lat="48.36946" lon="6.82693">
        <ele>415.4</ele>
        <time>2024-03-31T23:35:39.644Z</time>
      </trkpt>
      <trkpt lat="48.36937" lon="6.82679">
        <ele>415.6</ele>
        <time>2024-03-31T23:35:44.216Z</time>
      </trkpt>
      <trkpt lat="48.36908" lon="6.8264">
        <ele>415.4</ele>
        <time>2024-03-31T23:35:48.798Z</time>
      </trkpt>
      <trkpt lat="48.36904" lon="6.82635">
        <ele>415.2</ele>
        <time>2024-03-31T23:35:53.381Z</time>
      </trkpt>
      <trkpt lat="48.36891" lon="6.82622">
        <ele>414.8</ele>
        <time>2024-03-31T23:35:57.968Z</time>
      </trkpt>
      <trkpt lat="48.36882" lon="6.82622">
        <ele>414.6</ele>
        <time>2024-03-31T23:36:02.557Z</time>
      </trkpt>
      <trkpt lat="48.36877" lon="6.82633">
        <ele>414.4</ele>
        <time>2024-03-31T23:36:07.149Z</time>
      </trkpt>
      <trkpt lat="48.36876" lon="6.82641">
        <ele>414.2</ele>
        <time>2024-03-31T23:36:11.742Z</time>
      </trkpt>
      <trkpt lat="48.36875" lon="6.82649">
        <ele>414</ele>
        <time>2024-03-31T23:36:16.336Z</time>
      </trkpt>
      <trkpt lat="48.36879" lon="6.82674">
        <ele>413</ele>
        <time>2024-03-31T23:36:20.935Z</time>
      </trkpt>
      <trkpt lat="48.36881" lon="6.82682">
        <ele>412.4</ele>
        <time>2024-03-31T23:36:25.535Z</time>
      </trkpt>
      <trkpt lat="48.36886" lon="6.82697">
        <ele>411</ele>
        <time>2024-03-31T23:36:30.138Z</time>
      </trkpt>
      <trkpt lat="48.36888" lon="6.82705">
        <ele>410</ele>
        <time>2024-03-31T23:36:34.742Z</time>
      </trkpt>
      <trkpt lat="48.36896" lon="6.82725">
        <ele>408.6</ele>
        <time>2024-03-31T23:36:39.350Z</time>
      </trkpt>
      <trkpt lat="48.36904" lon="6.82745">
        <ele>407.4</ele>
        <time>2024-03-31T23:36:43.962Z</time>
      </trkpt>
      <trkpt lat="48.36909" lon="6.82755">
        <ele>407</ele>
        <time>2024-03-31T23:36:48.576Z</time>
      </trkpt>
      <trkpt lat="48.36914" lon="6.82765">
        <ele>405.4</ele>
        <time>2024-03-31T23:36:53.192Z</time>
      </trkpt>
      <trkpt lat="48.36919" lon="6.82775">
        <ele>404.6</ele>
        <time>2024-03-31T23:36:57.811Z</time>
      </trkpt>
      <trkpt lat="48.36924" lon="6.82787">
        <ele>403.2</ele>
        <time>2024-03-31T23:37:02.432Z</time>
      </trkpt>
      <trkpt lat="48.36929" lon="6.828">
        <ele>401.8</ele>
        <time>2024-03-31T23:37:07.056Z</time>
      </trkpt>
      <trkpt lat="48.36933" lon="6.82815">
        <ele>401</ele>
        <time>2024-03-31T23:37:11.682Z</time>
      </trkpt>
      <trkpt lat="48.36936" lon="6.82828">
        <ele>399.6</ele>
        <time>2024-03-31T23:37:16.311Z</time>
      </trkpt>
      <trkpt lat="48.36943" lon="6.82857">
        <ele>397.2</ele>
        <time>2024-03-31T23:37:20.945Z</time>
      </trkpt>
      <trkpt lat="48.3695" lon="6.82884">
        <ele>394.6</ele>
        <time>2024-03-31T23:37:25.584Z</time>
      </trkpt>
      <trkpt lat="48.36956" lon="6.82911">
        <ele>392.2</ele>
        <time>2024-03-31T23:37:30.228Z</time>
      </trkpt>
      <trkpt lat="48.36957" lon="6.82926">
        <ele>391.8</ele>
        <time>2024-03-31T23:37:34.874Z</time>
      </trkpt>
      <trkpt lat="48.36958" lon="6.82941">
        <ele>390</ele>
        <time>2024-03-31T23:37:39.523Z</time>
      </trkpt>
      <trkpt lat="48.36958" lon="6.82955">
        <ele>387.6</ele>
        <time>2024-03-31T23:37:44.174Z</time>
      </trkpt>
      <trkpt lat="48.36958" lon="6.8298">
        <ele>384.8</ele>
        <time>2024-03-31T23:37:48.829Z</time>
      </trkpt>
      <trkpt lat="48.36958" lon="6.82991">
        <ele>383.8</ele>
        <time>2024-03-31T23:37:53.486Z</time>
      </trkpt>
      <trkpt lat="48.36957" lon="6.82999">
        <ele>382.4</ele>
        <time>2024-03-31T23:37:58.145Z</time>
      </trkpt>
      <trkpt lat="48.36956" lon="6.83013">
        <ele>379.6</ele>
        <time>2024-03-31T23:38:02.806Z</time>
      </trkpt>
      <trkpt lat="48.36954" lon="6.83024">
        <ele>377.4</ele>
        <time>2024-03-31T23:38:07.469Z</time>
      </trkpt>
      <trkpt lat="48.36952" lon="6.83037">
        <ele>375.6</ele>
        <time>2024-03-31T23:38:12.134Z</time>
      </trkpt>
      <trkpt lat="48.36949" lon="6.83051">
        <ele>374.6</ele>
        <time>2024-03-31T23:38:16.802Z</time>
      </trkpt>
      <trkpt lat="48.36948" lon="6.83058">
        <ele>374</ele>
        <time>2024-03-31T23:38:21.471Z</time>
      </trkpt>
      <trkpt lat="48.36945" lon="6.83074">
        <ele>372.6</ele>
        <time>2024-03-31T23:38:26.143Z</time>
      </trkpt>
      <trkpt lat="48.36944" lon="6.83076">
        <ele>372</ele>
        <time>2024-03-31T23:38:30.815Z</time>
      </trkpt>
      <trkpt lat="48.36943" lon="6.83054">
        <ele>371.4</ele>
        <time>2024-03-31T23:38:35.491Z</time>
      </trkpt>
      <trkpt lat="48.36942" lon="6.83034">
        <ele>371.2</ele>
        <time>2024-03-31T23:38:40.170Z</time>
      </trkpt>
      <trkpt lat="48.36937" lon="6.83015">
        <ele>371.4</ele>
        <time>2024-03-31T23:38:44.852Z</time>
      </trkpt>
      <trkpt lat="48.3693" lon="6.82983">
        <ele>371.4</ele>
        <time>2024-03-31T23:38:49.540Z</time>
      </trkpt>
      <trkpt lat="48.36922" lon="6.82962">
        <ele>371.8</ele>
        <time>2024-03-31T23:38:54.232Z</time>
      </trkpt>
      <trkpt lat="48.36917" lon="6.82932">
        <ele>371.8</ele>
        <time>2024-03-31T23:38:58.929Z</time>
      </trkpt>
      <trkpt lat="48.36916" lon="6.82925">
        <ele>371.6</ele>
        <time>2024-03-31T23:39:03.628Z</time>
      </trkpt>
      <trkpt lat="48.36914" lon="6.82918">
        <ele>371.4</ele>
        <time>2024-03-31T23:39:08.328Z</time>
      </trkpt>
      <trkpt lat="48.36906" lon="6.82898">
        <ele>371.2</ele>
        <time>2024-03-31T23:39:13.032Z</time>
      </trkpt>
      <trkpt lat="48.36901" lon="6.82893">
        <ele>371</ele>
        <time>2024-03-31T23:39:17.737Z</time>
      </trkpt>
      <trkpt lat="48.36896" lon="6.82889">
        <ele>371</ele>
        <time>2024-03-31T23:39:22.444Z</time>
      </trkpt>
      <trkpt lat="48.36882" lon="6.82881">
        <ele>369.8</ele>
        <time>2024-03-31T23:39:27.155Z</time>
      </trkpt>
      <trkpt lat="48.36877" lon="6.82881">
        <ele>369.6</ele>
        <time>2024-03-31T23:39:31.867Z</time>
      </trkpt>
      <trkpt lat="48.36853" lon="6.82881">
        <ele>368.6</ele>
        <time>2024-03-31T23:39:36.585Z</time>
      </trkpt>
      <trkpt lat="48.36847" lon="6.82881">
        <ele>368.2</ele>
        <time>2024-03-31T23:39:41.305Z</time>
      </trkpt>
      <trkpt lat="48.36841" lon="6.82879">
        <ele>367.8</ele>
        <time>2024-03-31T23:39:46.026Z</time>
      </trkpt>
      <trkpt lat="48.36835" lon="6.82875">
        <ele>367.6</ele>
        <time>2024-03-31T23:39:50.749Z</time>
      </trkpt>
      <trkpt lat="48.36821" lon="6.82859">
        <ele>366.4</ele>
        <time>2024-03-31T23:39:55.476Z</time>
      </trkpt>
      <trkpt lat="48.36817" lon="6.82853">
        <ele>366.2</ele>
        <time>2024-03-31T23:40:00.205Z</time>
      </trkpt>
      <trkpt lat="48.36807" lon="6.82841">
        <ele>365.4</ele>
        <time>2024-03-31T23:40:04.937Z</time>
      </trkpt>
      <trkpt lat="48.36801" lon="6.82835">
        <ele>365</ele>
        <time>2024-03-31T23:40:09.671Z</time>
      </trkpt>
      <trkpt lat="48.36791" lon="6.82828">
        <ele>364.6</ele>
        <time>2024-03-31T23:40:14.408Z</time>
      </trkpt>
      <trkpt lat="48.36781" lon="6.82827">
        <ele>364.4</ele>
        <time>2024-03-31T23:40:19.147Z</time>
      </trkpt>
      <trkpt lat="48.36775" lon="6.82828">
        <ele>363.6</ele>
        <time>2024-03-31T23:40:23.888Z</time>
      </trkpt>
      <trkpt lat="48.36765" lon="6.8283">
        <ele>363.4</ele>
        <time>2024-03-31T23:40:28.631Z</time>
      </trkpt>
      <trkpt lat="48.36747" lon="6.82844">
        <ele>362.6</ele>
        <time>2024-03-31T23:40:33.379Z</time>
      </trkpt>
      <trkpt lat="48.36742" lon="6.82848">
        <ele>362.4</ele>
        <time>2024-03-31T23:40:38.129Z</time>
      </trkpt>
      <trkpt lat="48.3673" lon="6.82851">
        <ele>362.2</ele>
        <time>2024-03-31T23:40:42.882Z</time>
      </trkpt>
      <trkpt lat="48.36726" lon="6.82851">
        <ele>361.8</ele>
        <time>2024-03-31T23:40:47.636Z</time>
      </trkpt>
      <trkpt lat="48.36719" lon="6.82851">
        <ele>361.6</ele>
        <time>2024-03-31T23:40:52.392Z</time>
      </trkpt>
      <trkpt lat="48.36713" lon="6.8285">
        <ele>361.4</ele>
        <time>2024-03-31T23:40:57.149Z</time>
      </trkpt>
      <trkpt lat="48.36705" lon="6.82849">
        <ele>361.4</ele>
        <time>2024-03-31T23:41:01.908Z</time>
      </trkpt>
      <trkpt lat="48.36693" lon="6.82845">
        <ele>361.2</ele>
        <time>2024-03-31T23:41:06.671Z</time>
      </trkpt>
      <trkpt lat="48.36666" lon="6.82831">
        <ele>361</ele>
        <time>2024-03-31T23:41:11.441Z</time>
      </trkpt>
      <trkpt lat="48.36653" lon="6.82822">
        <ele>360.2</ele>
        <time>2024-03-31T23:41:16.214Z</time>
      </trkpt>
      <trkpt lat="48.36634" lon="6.82806">
        <ele>359</ele>
        <time>2024-03-31T23:41:20.993Z</time>
      </trkpt>
      <trkpt lat="48.36613" lon="6.82789">
        <ele>358.2</ele>
        <time>2024-03-31T23:41:25.778Z</time>
      </trkpt>
      <trkpt lat="48.36606" lon="6.82783">
        <ele>357.8</ele>
        <time>2024-03-31T23:41:30.565Z</time>
      </trkpt>
      <trkpt lat="48.36586" lon="6.82764">
        <ele>356.8</ele>
        <time>2024-03-31T23:41:35.358Z</time>
      </trkpt>
      <trkpt lat="48.36564" lon="6.82745">
        <ele>355.4</ele>
        <time>2024-03-31T23:41:40.157Z</time>
      </trkpt>
      <trkpt lat="48.36551" lon="6.82733">
        <ele>354.2</ele>
        <time>2024-03-31T23:41:44.960Z</time>
      </trkpt>
      <trkpt lat="48.36527" lon="6.8271">
        <ele>352.8</ele>
        <time>2024-03-31T23:41:49.771Z</time>
      </trkpt>
      <trkpt lat="48.36522" lon="6.82701">
        <ele>352.4</ele>
        <time>2024-03-31T23:41:54.584Z</time>
      </trkpt>
      <trkpt lat="48.36516" lon="6.82692">
        <ele>351.8</ele>
        <time>2024-03-31T23:41:59.399Z</time>
      </trkpt>
      <trkpt lat="48.36511" lon="6.82683">
        <ele>351.4</ele>
        <time>2024-03-31T23:42:04.216Z</time>
      </trkpt>
      <trkpt lat="48.36506" lon="6.82674">
        <ele>350.6</ele>
        <time>2024-03-31T23:42:09.035Z</time>
      </trkpt>
      <trkpt lat="48.36499" lon="6.82666">
        <ele>349.6</ele>
        <time>2024-03-31T23:42:13.856Z</time>
      </trkpt>
      <trkpt lat="48.36493" lon="6.82658">
        <ele>349.4</ele>
        <time>2024-03-31T23:42:18.679Z</time>
      </trkpt>
      <trkpt lat="48.36476" lon="6.82637">
        <ele>348</ele>
        <time>2024-03-31T23:42:23.507Z</time>
      </trkpt>
      <trkpt lat="48.36471" lon="6.82633">
        <ele>347.8</ele>
        <time>2024-03-31T23:42:28.337Z</time>
      </trkpt>
      <trkpt lat="48.36468" lon="6.82631">
        <ele>346.4</ele>
        <time>2024-03-31T23:42:33.168Z</time>
      </trkpt>
      <trkpt lat="48.36465" lon="6.82631">
        <ele>346</ele>
        <time>2024-03-31T23:42:38.000Z</time>
      </trkpt>
      <trkpt lat="48.36463" lon="6.82634">
        <ele>345</ele>
        <time>2024-03-31T23:42:42.832Z</time>
      </trkpt>
      <trkpt lat="48.36461" lon="6.82647">
        <ele>344</ele>
        <time>2024-03-31T23:42:47.666Z</time>
      </trkpt>
      <trkpt lat="48.36461" lon="6.82655">
        <ele>343.4</ele>
        <time>2024-03-31T23:42:52.502Z</time>
      </trkpt>
      <trkpt lat="48.36461" lon="6.82664">
        <ele>343.2</ele>
        <time>2024-03-31T23:42:57.339Z</time>
      </trkpt>
      <trkpt lat="48.36462" lon="6.82682">
        <ele>342.6</ele>
        <time>2024-03-31T23:43:02.179Z</time>
      </trkpt>
      <trkpt lat="48.36461" lon="6.82691">
        <ele>342</ele>
        <time>2024-03-31T23:43:07.021Z</time>
      </trkpt>
      <trkpt lat="48.3646" lon="6.827">
        <ele>341.6</ele>
        <time>2024-03-31T23:43:11.865Z</time>
      </trkpt>
      <trkpt lat="48.36457" lon="6.82722">
        <ele>341.4</ele>
        <time>2024-03-31T23:43:16.712Z</time>
      </trkpt>
      <trkpt lat="48.36457" lon="6.82732">
        <ele>340.8</ele>
        <time>2024-03-31T23:43:21.561Z</time>
      </trkpt>
      <trkpt lat="48.36453" lon="6.82768">
        <ele>339.8</ele>
        <time>2024-03-31T23:43:26.416Z</time>
      </trkpt>
      <trkpt lat="48.36445" lon="6.82798">
        <ele>338.2</ele>
        <time>2024-03-31T23:43:31.277Z</time>
      </trkpt>
      <trkpt lat="48.36445" lon="6.82816">
        <ele>337.6</ele>
        <time>2024-03-31T23:43:36.141Z</time>
      </trkpt>
      <trkpt lat="48.36444" lon="6.82831">
        <ele>337</ele>
        <time>2024-03-31T23:43:41.007Z</time>
      </trkpt>
      <trkpt lat="48.36442" lon="6.82842">
        <ele>336.6</ele>
        <time>2024-03-31T23:43:45.875Z</time>
      </trkpt>
      <trkpt lat="48.36441" lon="6.82846">
        <ele>336.4</ele>
        <time>2024-03-31T23:43:50.744Z</time>
      </trkpt>
      <trkpt lat="48.3644" lon="6.82845">
        <ele>336.4</ele>
        <time>2024-03-31T23:43:55.613Z</time>
      </trkpt>
      <trkpt lat="48.3644" lon="6.82843">
        <ele>335.8</ele>
        <time>2024-03-31T23:44:00.483Z</time>
      </trkpt>
      <trkpt lat="48.36439" lon="6.82833">
        <ele>335.6</ele>
        <time>2024-03-31T23:44:05.354Z</time>
      </trkpt>
      <trkpt lat="48.36437" lon="6.82816">
        <ele>335.6</ele>
        <time>2024-03-31T23:44:10.228Z</time>
      </trkpt>
      <trkpt lat="48.36429" lon="6.8278">
        <ele>335.6</ele>
        <time>2024-03-31T23:44:15.109Z</time>
      </trkpt>
      <trkpt lat="48.36424" lon="6.82756">
        <ele>336</ele>
        <time>2024-03-31T23:44:19.994Z</time>
      </trkpt>
      <trkpt lat="48.36425" lon="6.82742">
        <ele>336.2</ele>
        <time>2024-03-31T23:44:24.881Z</time>
      </trkpt>
      <trkpt lat="48.36424" lon="6.82736">
        <ele>336.2</ele>
        <time>2024-03-31T23:44:29.769Z</time>
      </trkpt>
      <trkpt lat="48.36424" lon="6.82723">
        <ele>336.2</ele>
        <time>2024-03-31T23:44:34.659Z</time>
      </trkpt>
      <trkpt lat="48.36425" lon="6.82711">
        <ele>336.2</ele>
        <time>2024-03-31T23:44:39.551Z</time>
      </trkpt>
      <trkpt lat="48.36422" lon="6.82698">
        <ele>336.4</ele>
        <time>2024-03-31T23:44:44.446Z</time>
      </trkpt>
      <trkpt lat="48.36419" lon="6.82685">
        <ele>336.6</ele>
        <time>2024-03-31T23:44:49.343Z</time>
      </trkpt>
      <trkpt lat="48.36418" lon="6.82678">
        <ele>336.6</ele>
        <time>2024-03-31T23:44:54.241Z</time>
      </trkpt>
      <trkpt lat="48.36418" lon="6.8267">
        <ele>336.8</ele>
        <time>2024-03-31T23:44:59.141Z</time>
      </trkpt>
      <trkpt lat="48.36414" lon="6.82639">
        <ele>337.2</ele>
        <time>2024-03-31T23:45:04.046Z</time>
      </trkpt>
      <trkpt lat="48.36414" lon="6.82632">
        <ele>337.2</ele>
        <time>2024-03-31T23:45:08.952Z</time>
      </trkpt>
      <trkpt lat="48.36414" lon="6.82615">
        <ele>337.4</ele>
        <time>2024-03-31T23:45:13.861Z</time>
      </trkpt>
      <trkpt lat="48.36415" lon="6.82603">
        <ele>337.6</ele>
        <time>2024-03-31T23:45:18.772Z</time>
      </trkpt>
      <trkpt lat="48.36417" lon="6.82595">
        <ele>337.6</ele>
        <time>2024-03-31T23:45:23.685Z</time>
      </trkpt>
      <trkpt lat="48.36423" lon="6.82582">
        <ele>337.8</ele>
        <time>2024-03-31T23:45:28.600Z</time>
      </trkpt>
      <trkpt lat="48.36427" lon="6.8256">
        <ele>337.8</ele>
        <time>2024-03-31T23:45:33.519Z</time>
      </trkpt>
      <trkpt lat="48.36426" lon="6.8255">
        <ele>337.8</ele>
        <time>2024-03-31T23:45:38.440Z</time>
      </trkpt>
      <trkpt lat="48.36426" lon="6.82534">
        <ele>337.4</ele>
        <time>2024-03-31T23:45:43.363Z</time>
      </trkpt>
      <trkpt lat="48.36424" lon="6.82518">
        <ele>337.2</ele>
        <time>2024-03-31T23:45:48.289Z</time>
      </trkpt>
      <trkpt lat="48.36424" lon="6.82501">
        <ele>337</ele>
        <time>2024-03-31T23:45:53.218Z</time>
      </trkpt>
      <trkpt lat="48.36423" lon="6.82484">
        <ele>336.8</ele>
        <time>2024-03-31T23:45:58.150Z</time>
      </trkpt>
      <trkpt lat="48.36422" lon="6.82465">
        <ele>336.4</ele>
        <time>2024-03-31T23:46:03.085Z</time>
      </trkpt>
      <trkpt lat="48.3642" lon="6.82455">
        <ele>336</ele>
        <time>2024-03-31T23:46:08.022Z</time>
      </trkpt>
      <trkpt lat="48.3642" lon="6.82447">
        <ele>336</ele>
        <time>2024-03-31T23:46:12.960Z</time>
      </trkpt>
      <trkpt lat="48.3642" lon="6.82432">
        <ele>335.4</ele>
        <time>2024-03-31T23:46:17.901Z</time>
      </trkpt>
      <trkpt lat="48.3642" lon="6.82428">
        <ele>335.2</ele>
        <time>2024-03-31T23:46:22.842Z</time>
      </trkpt>
      <trkpt lat="48.36417" lon="6.82417">
        <ele>335</ele>
        <time>2024-03-31T23:46:27.786Z</time>
      </trkpt>
      <trkpt lat="48.36419" lon="6.82408">
        <ele>335</ele>
        <time>2024-03-31T23:46:32.731Z</time>
      </trkpt>
      <trkpt lat="48.36421" lon="6.82392">
        <ele>334.8</ele>
        <time>2024-03-31T23:46:37.679Z</time>
      </trkpt>
      <trkpt lat="48.36424" lon="6.82363">
        <ele>335</ele>
        <time>2024-03-31T23:46:42.632Z</time>
      </trkpt>
      <trkpt lat="48.36427" lon="6.82341">
        <ele>335</ele>
        <time>2024-03-31T23:46:47.589Z</time>
      </trkpt>
      <trkpt lat="48.36431" lon="6.82328">
        <ele>335</ele>
        <time>2024-03-31T23:46:52.548Z</time>
      </trkpt>
      <trkpt lat="48.36433" lon="6.82322">
        <ele>335</ele>
        <time>2024-03-31T23:46:57.508Z</time>
      </trkpt>
      <trkpt lat="48.36448" lon="6.82287">
        <ele>335.2</ele>
        <time>2024-03-31T23:47:02.475Z</time>
      </trkpt>
      <trkpt lat="48.36451" lon="6.82274">
        <ele>335.4</ele>
        <time>2024-03-31T23:47:07.445Z</time>
      </trkpt>
      <trkpt lat="48.36451" lon="6.82261">
        <ele>335.4</ele>
        <time>2024-03-31T23:47:12.417Z</time>
      </trkpt>
      <trkpt lat="48.36452" lon="6.82211">
        <ele>336</ele>
        <time>2024-03-31T23:47:17.397Z</time>
      </trkpt>
      <trkpt lat="48.36452" lon="6.82206">
        <ele>336</ele>
        <time>2024-03-31T23:47:22.378Z</time>
      </trkpt>
      <trkpt lat="48.36455" lon="6.82169">
        <ele>335.8</ele>
        <time>2024-03-31T23:47:27.365Z</time>
      </trkpt>
      <trkpt lat="48.36453" lon="6.82157">
        <ele>335.6</ele>
        <time>2024-03-31T23:47:32.354Z</time>
      </trkpt>
      <trkpt lat="48.36448" lon="6.82146">
        <ele>335.4</ele>
        <time>2024-03-31T23:47:37.346Z</time>
      </trkpt>
      <trkpt lat="48.36442" lon="6.82138">
        <ele>335.4</ele>
        <time>2024-03-31T23:47:42.340Z</time>
      </trkpt>
      <trkpt lat="48.36427" lon="6.82118">
        <ele>335</ele>
        <time>2024-03-31T23:47:47.339Z</time>
      </trkpt>
      <trkpt lat="48.36401" lon="6.82085">
        <ele>335.4</ele>
        <time>2024-03-31T23:47:52.346Z</time>
      </trkpt>
      <trkpt lat="48.36395" lon="6.82078">
        <ele>335.8</ele>
        <time>2024-03-31T23:47:57.356Z</time>
      </trkpt>
      <trkpt lat="48.36388" lon="6.82071">
        <ele>335.8</ele>
        <time>2024-03-31T23:48:02.368Z</time>
      </trkpt>
      <trkpt lat="48.36381" lon="6.82064">
        <ele>336</ele>
        <time>2024-03-31T23:48:07.382Z</time>
      </trkpt>
      <trkpt lat="48.36377" lon="6.82061">
        <ele>336.4</ele>
        <time>2024-03-31T23:48:12.397Z</time>
      </trkpt>
      <trkpt lat="48.36366" lon="6.82052">
        <ele>337.2</ele>
        <time>2024-03-31T23:48:17.415Z</time>
      </trkpt>
      <trkpt lat="48.36363" lon="6.82049">
        <ele>337.2</ele>
        <time>2024-03-31T23:48:22.434Z</time>
      </trkpt>
      <trkpt lat="48.36356" lon="6.82043">
        <ele>337.8</ele>
        <time>2024-03-31T23:48:27.455Z</time>
      </trkpt>
      <trkpt lat="48.36343" lon="6.82031">
        <ele>339</ele>
        <time>2024-03-31T23:48:32.480Z</time>
      </trkpt>
      <trkpt lat="48.36334" lon="6.82022">
        <ele>340.6</ele>
        <time>2024-03-31T23:48:37.508Z</time>
      </trkpt>
      <trkpt lat="48.36328" lon="6.82017">
        <ele>341.2</ele>
        <time>2024-03-31T23:48:42.537Z</time>
      </trkpt>
      <trkpt lat="48.36317" lon="6.82006">
        <ele>341.4</ele>
        <time>2024-03-31T23:48:47.570Z</time>
      </trkpt>
      <trkpt lat="48.36307" lon="6.81997">
        <ele>341.4</ele>
        <time>2024-03-31T23:48:52.606Z</time>
      </trkpt>
      <trkpt lat="48.36303" lon="6.81992">
        <ele>341</ele>
        <time>2024-03-31T23:48:57.643Z</time>
      </trkpt>
      <trkpt lat="48.36294" lon="6.81981">
        <ele>340.2</ele>
        <time>2024-03-31T23:49:02.683Z</time>
      </trkpt>
      <trkpt lat="48.36288" lon="6.81971">
        <ele>339.4</ele>
        <time>2024-03-31T23:49:07.725Z</time>
      </trkpt>
      <trkpt lat="48.36281" lon="6.81958">
        <ele>338.4</ele>
        <time>2024-03-31T23:49:12.770Z</time>
      </trkpt>
      <trkpt lat="48.36267" lon="6.81937">
        <ele>338.2</ele>
        <time>2024-03-31T23:49:17.820Z</time>
      </trkpt>
      <trkpt lat="48.36241" lon="6.81911">
        <ele>338.8</ele>
        <time>2024-03-31T23:49:22.878Z</time>
      </trkpt>
      <trkpt lat="48.36229" lon="6.81894">
        <ele>339.2</ele>
        <time>2024-03-31T23:49:27.940Z</time>
      </trkpt>
      <trkpt lat="48.36227" lon="6.8189">
        <ele>339.4</ele>
        <time>2024-03-31T23:49:33.003Z</time>
      </trkpt>
      <trkpt lat="48.36216" lon="6.81874">
        <ele>339.4</ele>
        <time>2024-03-31T23:49:38.070Z</time>
      </trkpt>
      <trkpt lat="48.36209" lon="6.81864">
        <ele>339</ele>
        <time>2024-03-31T23:49:43.139Z</time>
      </trkpt>
      <trkpt lat="48.36204" lon="6.81854">
        <ele>338.8</ele>
        <time>2024-03-31T23:49:48.211Z</time>
      </trkpt>
      <trkpt lat="48.36198" lon="6.81842">
        <ele>338.8</ele>
        <time>2024-03-31T23:49:53.285Z</time>
      </trkpt>
      <trkpt lat="48.36195" lon="6.81837">
        <ele>338.8</ele>
        <time>2024-03-31T23:49:58.360Z</time>
      </trkpt>
      <trkpt lat="48.36187" lon="6.81814">
        <ele>338.2</ele>
        <time>2024-03-31T23:50:03.440Z</time>
      </trkpt>
      <trkpt lat="48.36185" lon="6.81801">
        <ele>338.2</ele>
        <time>2024-03-31T23:50:08.522Z</time>
      </trkpt>
      <trkpt lat="48.36183" lon="6.81788">
        <ele>338</ele>
        <time>2024-03-31T23:50:13.606Z</time>
      </trkpt>
      <trkpt lat="48.36179" lon="6.81765">
        <ele>337.6</ele>
        <time>2024-03-31T23:50:18.694Z</time>
      </trkpt>
      <trkpt lat="48.36168" lon="6.81737">
        <ele>337.6</ele>
        <time>2024-03-31T23:50:23.788Z</time>
      </trkpt>
      <trkpt lat="48.36165" lon="6.81734">
        <ele>337.4</ele>
        <time>2024-03-31T23:50:28.883Z</time>
      </trkpt>
      <trkpt lat="48.36162" lon="6.81734">
        <ele>337.2</ele>
        <time>2024-03-31T23:50:33.978Z</time>
      </trkpt>
      <trkpt lat="48.3616" lon="6.81735">
        <ele>337</ele>
        <time>2024-03-31T23:50:39.074Z</time>
      </trkpt>
      <trkpt lat="48.36156" lon="6.81742">
        <ele>336.8</ele>
        <time>2024-03-31T23:50:44.172Z</time>
      </trkpt>
      <trkpt lat="48.36156" lon="6.81748">
        <ele>336.4</ele>
        <time>2024-03-31T23:50:49.271Z</time>
      </trkpt>
      <trkpt lat="48.36153" lon="6.81762">
        <ele>336</ele>
        <time>2024-03-31T23:50:54.372Z</time>
      </trkpt>
      <trkpt lat="48.36152" lon="6.81768">
        <ele>335.8</ele>
        <time>2024-03-31T23:50:59.474Z</time>
      </trkpt>
      <trkpt lat="48.36149" lon="6.81782">
        <ele>335.6</ele>
        <time>2024-03-31T23:51:04.579Z</time>
      </trkpt>
      <trkpt lat="48.36142" lon="6.81826">
        <ele>334.8</ele>
        <time>2024-03-31T23:51:09.691Z</time>
      </trkpt>
      <trkpt lat="48.3614" lon="6.81841">
        <ele>334.6</ele>
        <time>2024-03-31T23:51:14.806Z</time>
      </trkpt>
      <trkpt lat="48.36131" lon="6.8191">
        <ele>333.8</ele>
        <time>2024-03-31T23:51:19.933Z</time>
      </trkpt>
      <trkpt lat="48.3613" lon="6.81918">
        <ele>333.6</ele>
        <time>2024-03-31T23:51:25.061Z</time>
      </trkpt>
      <trkpt lat="48.36124" lon="6.81975">
        <ele>332.8</ele>
        <time>2024-03-31T23:51:30.199Z</time>
      </trkpt>
      <trkpt lat="48.36123" lon="6.81982">
        <ele>332.8</ele>
        <time>2024-03-31T23:51:35.338Z</time>
      </trkpt>
      <trkpt lat="48.36122" lon="6.8199">
        <ele>332.8</ele>
        <time>2024-03-31T23:51:40.478Z</time>
      </trkpt>
      <trkpt lat="48.36121" lon="6.81997">
        <ele>332.6</ele>
        <time>2024-03-31T23:51:45.620Z</time>
      </trkpt>
      <trkpt lat="48.36117" lon="6.8203">
        <ele>332.2</ele>
        <time>2024-03-31T23:51:50.767Z</time>
      </trkpt>
      <trkpt lat="48.36111" lon="6.8207">
        <ele>331.6</ele>
        <time>2024-03-31T23:51:55.921Z</time>
      </trkpt>
      <trkpt lat="48.36107" lon="6.82104">
        <ele>331.4</ele>
        <time>2024-03-31T23:52:01.081Z</time>
      </trkpt>
      <trkpt lat="48.36103" lon="6.82138">
        <ele>331</ele>
        <time>2024-03-31T23:52:06.247Z</time>
      </trkpt>
      <trkpt lat="48.361" lon="6.82155">
        <ele>330.6</ele>
        <time>2024-03-31T23:52:11.416Z</time>
      </trkpt>
      <trkpt lat="48.36099" lon="6.82164">
        <ele>330.4</ele>
        <time>2024-03-31T23:52:16.586Z</time>
      </trkpt>
      <trkpt lat="48.3609" lon="6.82233">
        <ele>329.6</ele>
        <time>2024-03-31T23:52:21.769Z</time>
      </trkpt>
      <trkpt lat="48.36089" lon="6.82242">
        <ele>329.4</ele>
        <time>2024-03-31T23:52:26.953Z</time>
      </trkpt>
      <trkpt lat="48.36079" lon="6.82304">
        <ele>328.6</ele>
        <time>2024-03-31T23:52:32.148Z</time>
      </trkpt>
      <trkpt lat="48.36078" lon="6.82312">
        <ele>328.4</ele>
        <time>2024-03-31T23:52:37.344Z</time>
      </trkpt>
      <trkpt lat="48.36073" lon="6.82339">
        <ele>328</ele>
        <time>2024-03-31T23:52:42.545Z</time>
      </trkpt>
      <trkpt lat="48.36069" lon="6.82356">
        <ele>327.8</ele>
        <time>2024-03-31T23:52:47.749Z</time>
      </trkpt>
      <trkpt lat="48.3606" lon="6.82378">
        <ele>327.4</ele>
        <time>2024-03-31T23:52:52.957Z</time>
      </trkpt>
      <trkpt lat="48.36048" lon="6.824">
        <ele>327</ele>
        <time>2024-03-31T23:52:58.170Z</time>
      </trkpt>
      <trkpt lat="48.3602" lon="6.82446">
        <ele>326.8</ele>
        <time>2024-03-31T23:53:03.394Z</time>
      </trkpt>
      <trkpt lat="48.36016" lon="6.82453">
        <ele>326.8</ele>
        <time>2024-03-31T23:53:08.619Z</time>
      </trkpt>
      <trkpt lat="48.36003" lon="6.82483">
        <ele>326.8</ele>
        <time>2024-03-31T23:53:13.850Z</time>
      </trkpt>
      <trkpt lat="48.36002" lon="6.82491">
        <ele>326.8</ele>
        <time>2024-03-31T23:53:19.083Z</time>
      </trkpt>
      <trkpt lat="48.36001" lon="6.82499">
        <ele>326.8</ele>
        <time>2024-03-31T23:53:24.317Z</time>
      </trkpt>
      <trkpt lat="48.36001" lon="6.82517">
        <ele>327</ele>
        <time>2024-03-31T23:53:29.554Z</time>
      </trkpt>
      <trkpt lat="48.36003" lon="6.82525">
        <ele>327</ele>
        <time>2024-03-31T23:53:34.793Z</time>
      </trkpt>
      <trkpt lat="48.36013" lon="6.82566">
        <ele>327.6</ele>
        <time>2024-03-31T23:53:40.039Z</time>
      </trkpt>
      <trkpt lat="48.36016" lon="6.82574">
        <ele>327.6</ele>
        <time>2024-03-31T23:53:45.286Z</time>
      </trkpt>
      <trkpt lat="48.36027" lon="6.82608">
        <ele>327.6</ele>
        <time>2024-03-31T23:53:50.540Z</time>
      </trkpt>
      <trkpt lat="48.36029" lon="6.82626">
        <ele>327.8</ele>
        <time>2024-03-31T23:53:55.797Z</time>
      </trkpt>
      <trkpt lat="48.36029" lon="6.82644">
        <ele>328</ele>
        <time>2024-03-31T23:54:01.057Z</time>
      </trkpt>
      <trkpt lat="48.36026" lon="6.82661">
        <ele>328.4</ele>
        <time>2024-03-31T23:54:06.320Z</time>
      </trkpt>
      <trkpt lat="48.36024" lon="6.8267">
        <ele>328.6</ele>
        <time>2024-03-31T23:54:11.585Z</time>
      </trkpt>
      <trkpt lat="48.3601" lon="6.82709">
        <ele>329</ele>
        <time>2024-03-31T23:54:16.857Z</time>
      </trkpt>
      <trkpt lat="48.36007" lon="6.82717">
        <ele>329</ele>
        <time>2024-03-31T23:54:22.131Z</time>
      </trkpt>
      <trkpt lat="48.35991" lon="6.82774">
        <ele>329.2</ele>
        <time>2024-03-31T23:54:27.415Z</time>
      </trkpt>
      <trkpt lat="48.35984" lon="6.82779">
        <ele>329.2</ele>
        <time>2024-03-31T23:54:32.701Z</time>
      </trkpt>
      <trkpt lat="48.3598" lon="6.82776">
        <ele>329.2</ele>
        <time>2024-03-31T23:54:37.988Z</time>
      </trkpt>
      <trkpt lat="48.35972" lon="6.82763">
        <ele>329</ele>
        <time>2024-03-31T23:54:43.278Z</time>
      </trkpt>
      <trkpt lat="48.35945" lon="6.82718">
        <ele>329.2</ele>
        <time>2024-03-31T23:54:48.578Z</time>
      </trkpt>
      <trkpt lat="48.35928" lon="6.82696">
        <ele>329.6</ele>
        <time>2024-03-31T23:54:53.884Z</time>
      </trkpt>
      <trkpt lat="48.35919" lon="6.82684">
        <ele>329.8</ele>
        <time>2024-03-31T23:54:59.193Z</time>
      </trkpt>
      <trkpt lat="48.35916" lon="6.82678">
        <ele>329.8</ele>
        <time>2024-03-31T23:55:04.503Z</time>
      </trkpt>
      <trkpt lat="48.35906" lon="6.82661">
        <ele>330.2</ele>
        <time>2024-03-31T23:55:09.817Z</time>
      </trkpt>
      <trkpt lat="48.359" lon="6.82651">
        <ele>330.4</ele>
        <time>2024-03-31T23:55:15.134Z</time>
      </trkpt>
      <trkpt lat="48.35897" lon="6.82646">
        <ele>330.6</ele>
        <time>2024-03-31T23:55:20.452Z</time>
      </trkpt>
      <trkpt lat="48.35894" lon="6.82641">
        <ele>330.6</ele>
        <time>2024-03-31T23:55:25.771Z</time>
      </trkpt>
      <trkpt lat="48.35884" lon="6.82624">
        <ele>331</ele>
        <time>2024-03-31T23:55:31.094Z</time>
      </trkpt>
      <trkpt lat="48.35861" lon="6.82585">
        <ele>331.6</ele>
        <time>2024-03-31T23:55:36.426Z</time>
      </trkpt>
      <trkpt lat="48.35857" lon="6.82579">
        <ele>331.8</ele>
        <time>2024-03-31T23:55:41.759Z</time>
      </trkpt>
      <trkpt lat="48.35851" lon="6.82568">
        <ele>332</ele>
        <time>2024-03-31T23:55:47.094Z</time>
      </trkpt>
      <trkpt lat="48.35842" lon="6.8255">
        <ele>332.2</ele>
        <time>2024-03-31T23:55:52.433Z</time>
      </trkpt>
      <trkpt lat="48.35839" lon="6.82544">
        <ele>332.2</ele>
        <time>2024-03-31T23:55:57.774Z</time>
      </trkpt>
      <trkpt lat="48.35829" lon="6.82526">
        <ele>332.4</ele>
        <time>2024-03-31T23:56:03.119Z</time>
      </trkpt>
      <trkpt lat="48.3582" lon="6.82508">
        <ele>332.4</ele>
        <time>2024-03-31T23:56:08.467Z</time>
      </trkpt>
      <trkpt lat="48.35813" lon="6.82495">
        <ele>332.6</ele>
        <time>2024-03-31T23:56:13.818Z</time>
      </trkpt>
      <trkpt lat="48.3581" lon="6.82489">
        <ele>332.6</ele>
        <time>2024-03-31T23:56:19.170Z</time>
      </trkpt>
      <trkpt lat="48.358" lon="6.8247">
        <ele>332.8</ele>
        <time>2024-03-31T23:56:24.526Z</time>
      </trkpt>
      <trkpt lat="48.35788" lon="6.82453">
        <ele>332.8</ele>
        <time>2024-03-31T23:56:29.887Z</time>
      </trkpt>
      <trkpt lat="48.35776" lon="6.82429">
        <ele>332.8</ele>
        <time>2024-03-31T23:56:35.253Z</time>
      </trkpt>
      <trkpt lat="48.35762" lon="6.82406">
        <ele>332.8</ele>
        <time>2024-03-31T23:56:40.624Z</time>
      </trkpt>
      <trkpt lat="48.35754" lon="6.824">
        <ele>332.8</ele>
        <time>2024-03-31T23:56:45.997Z</time>
      </trkpt>
      <trkpt lat="48.3574" lon="6.82404">
        <ele>332.8</ele>
        <time>2024-03-31T23:56:51.374Z</time>
      </trkpt>
      <trkpt lat="48.35735" lon="6.82407">
        <ele>332.8</ele>
        <time>2024-03-31T23:56:56.752Z</time>
      </trkpt>
      <trkpt lat="48.35704" lon="6.82429">
        <ele>333</ele>
        <time>2024-03-31T23:57:02.139Z</time>
      </trkpt>
      <trkpt lat="48.35688" lon="6.82439">
        <ele>333.6</ele>
        <time>2024-03-31T23:57:07.530Z</time>
      </trkpt>
      <trkpt lat="48.35681" lon="6.82445">
        <ele>334.4</ele>
        <time>2024-03-31T23:57:12.923Z</time>
      </trkpt>
      <trkpt lat="48.35676" lon="6.82448">
        <ele>334.8</ele>
        <time>2024-03-31T23:57:18.318Z</time>
      </trkpt>
      <trkpt lat="48.35664" lon="6.82453">
        <ele>335.4</ele>
        <time>2024-03-31T23:57:23.716Z</time>
      </trkpt>
      <trkpt lat="48.35659" lon="6.82456">
        <ele>335.8</ele>
        <time>2024-03-31T23:57:29.116Z</time>
      </trkpt>
      <trkpt lat="48.35651" lon="6.8246">
        <ele>336.2</ele>
        <time>2024-03-31T23:57:34.517Z</time>
      </trkpt>
      <trkpt lat="48.3564" lon="6.82471">
        <ele>337.2</ele>
        <time>2024-03-31T23:57:39.922Z</time>
      </trkpt>
      <trkpt lat="48.35633" lon="6.82475">
        <ele>337.4</ele>
        <time>2024-03-31T23:57:45.329Z</time>
      </trkpt>
      <trkpt lat="48.35623" lon="6.82479">
        <ele>338</ele>
        <time>2024-03-31T23:57:50.739Z</time>
      </trkpt>
      <trkpt lat="48.35617" lon="6.82481">
        <ele>338.2</ele>
        <time>2024-03-31T23:57:56.150Z</time>
      </trkpt>
      <trkpt lat="48.35578" lon="6.82489">
        <ele>338.6</ele>
        <time>2024-03-31T23:58:01.571Z</time>
      </trkpt>
      <trkpt lat="48.35556" lon="6.82495">
        <ele>338.6</ele>
        <time>2024-03-31T23:58:06.998Z</time>
      </trkpt>
      <trkpt lat="48.35544" lon="6.82503">
        <ele>338.6</ele>
        <time>2024-03-31T23:58:12.428Z</time>
      </trkpt>
      <trkpt lat="48.35538" lon="6.82509">
        <ele>338.6</ele>
        <time>2024-03-31T23:58:17.860Z</time>
      </trkpt>
      <trkpt lat="48.35524" lon="6.82523">
        <ele>338.6</ele>
        <time>2024-03-31T23:58:23.296Z</time>
      </trkpt>
      <trkpt lat="48.35507" lon="6.82539">
        <ele>338.8</ele>
        <time>2024-03-31T23:58:28.737Z</time>
      </trkpt>
      <trkpt lat="48.35492" lon="6.82555">
        <ele>339.2</ele>
        <time>2024-03-31T23:58:34.183Z</time>
      </trkpt>
      <trkpt lat="48.35481" lon="6.82566">
        <ele>339.2</ele>
        <time>2024-03-31T23:58:39.632Z</time>
      </trkpt>
      <trkpt lat="48.35461" lon="6.82587">
        <ele>339.2</ele>
        <time>2024-03-31T23:58:45.087Z</time>
      </trkpt>
      <trkpt lat="48.35433" lon="6.82611">
        <ele>339</ele>
        <time>2024-03-31T23:58:50.551Z</time>
      </trkpt>
      <trkpt lat="48.35395" lon="6.82645">
        <ele>340</ele>
        <time>2024-03-31T23:58:56.026Z</time>
      </trkpt>
      <trkpt lat="48.3539" lon="6.82649">
        <ele>340.2</ele>
        <time>2024-03-31T23:59:01.502Z</time>
      </trkpt>
      <trkpt lat="48.35375" lon="6.82662">
        <ele>340.4</ele>
        <time>2024-03-31T23:59:06.983Z</time>
      </trkpt>
      <trkpt lat="48.35361" lon="6.82672">
        <ele>340</ele>
        <time>2024-03-31T23:59:12.468Z</time>
      </trkpt>
      <trkpt lat="48.35355" lon="6.82697">
        <ele>338.4</ele>
        <time>2024-03-31T23:59:17.957Z</time>
      </trkpt>
      <trkpt lat="48.35354" lon="6.82706">
        <ele>338.4</ele>
        <time>2024-03-31T23:59:23.448Z</time>
      </trkpt>
      <trkpt lat="48.35348" lon="6.82755">
        <ele>337.4</ele>
        <time>2024-03-31T23:59:28.947Z</time>
      </trkpt>
      <trkpt lat="48.35339" lon="6.82788">
        <ele>336.2</ele>
        <time>2024-03-31T23:59:34.452Z</time>
      </trkpt>
      <trkpt lat="48.35331" lon="6.8281">
        <ele>334.8</ele>
        <time>2024-03-31T23:59:39.961Z</time>
      </trkpt>
      <trkpt lat="48.35324" lon="6.8283">
        <ele>333.6</ele>
        <time>2024-03-31T23:59:45.474Z</time>
      </trkpt>
      <trkpt lat="48.35314" lon="6.82859">
        <ele>332.4</ele>
        <time>2024-03-31T23:59:50.993Z</time>
      </trkpt>
      <trkpt lat="48.35311" lon="6.82868">
        <ele>332</ele>
        <time>2024-03-31T23:59:56.514Z</time>
      </trkpt>
      <trkpt lat="48.35305" lon="6.82884">
        <ele>331.6</ele>
        <time>2024-04-01T00:00:02.038Z</time>
      </trkpt>
      <trkpt lat="48.35293" lon="6.82905">
        <ele>331.4</ele>
        <time>2024-04-01T00:00:07.566Z</time>
      </trkpt>
      <trkpt lat="48.35283" lon="6.82911">
        <ele>331.4</ele>
        <time>2024-04-01T00:00:13.097Z</time>
      </trkpt>
      <trkpt lat="48.35278" lon="6.82911">
        <ele>331.6</ele>
        <time>2024-04-01T00:00:18.629Z</time>
      </trkpt>
      <trkpt lat="48.3525" lon="6.82902">
        <ele>332.8</ele>
        <time>2024-04-01T00:00:24.168Z</time>
      </trkpt>
      <trkpt lat="48.35245" lon="6.82901">
        <ele>333</ele>
        <time>2024-04-01T00:00:29.709Z</time>
      </trkpt>
      <trkpt lat="48.3524" lon="6.829">
        <ele>333</ele>
        <time>2024-04-01T00:00:35.251Z</time>
      </trkpt>
      <trkpt lat="48.35223" lon="6.82896">
        <ele>333.4</ele>
        <time>2024-04-01T00:00:40.798Z</time>
      </trkpt>
      <trkpt lat="48.35211" lon="6.82894">
        <ele>333.8</ele>
        <time>2024-04-01T00:00:46.348Z</time>
      </trkpt>
      <trkpt lat="48.35183" lon="6.82894">
        <ele>334.6</ele>
        <time>2024-04-01T00:00:51.905Z</time>
      </trkpt>
      <trkpt lat="48.3516" lon="6.82892">
        <ele>335.2</ele>
        <time>2024-04-01T00:00:57.468Z</time>
      </trkpt>
      <trkpt lat="48.35155" lon="6.82891">
        <ele>335.2</ele>
        <time>2024-04-01T00:01:03.032Z</time>
      </trkpt>
      <trkpt lat="48.35149" lon="6.8289">
        <ele>336</ele>
        <time>2024-04-01T00:01:08.597Z</time>
      </trkpt>
      <trkpt lat="48.35144" lon="6.82889">
        <ele>336.2</ele>
        <time>2024-04-01T00:01:14.164Z</time>
      </trkpt>
      <trkpt lat="48.35133" lon="6.82889">
        <ele>337</ele>
        <time>2024-04-01T00:01:19.734Z</time>
      </trkpt>
      <trkpt lat="48.35127" lon="6.82888">
        <ele>337.6</ele>
        <time>2024-04-01T00:01:25.305Z</time>
      </trkpt>
      <trkpt lat="48.35099" lon="6.82885">
        <ele>339</ele>
        <time>2024-04-01T00:01:30.883Z</time>
      </trkpt>
      <trkpt lat="48.35089" lon="6.82887">
        <ele>340.4</ele>
        <time>2024-04-01T00:01:36.464Z</time>
      </trkpt>
      <trkpt lat="48.35084" lon="6.82889">
        <ele>340.4</ele>
        <time>2024-04-01T00:01:42.046Z</time>
      </trkpt>
      <trkpt lat="48.35075" lon="6.82895">
        <ele>341.8</ele>
        <time>2024-04-01T00:01:47.631Z</time>
      </trkpt>
      <trkpt lat="48.35058" lon="6.82909">
        <ele>343</ele>
        <time>2024-04-01T00:01:53.220Z</time>
      </trkpt>
      <trkpt lat="48.35054" lon="6.82913">
        <ele>343.2</ele>
        <time>2024-04-01T00:01:58.811Z</time>
      </trkpt>
      <trkpt lat="48.3505" lon="6.82917">
        <ele>343.6</ele>
        <time>2024-04-01T00:02:04.403Z</time>
      </trkpt>
      <trkpt lat="48.35046" lon="6.82921">
        <ele>343.8</ele>
        <time>2024-04-01T00:02:09.996Z</time>
      </trkpt>
      <trkpt lat="48.35042" lon="6.82925">
        <ele>344.2</ele>
        <time>2024-04-01T00:02:15.590Z</time>
      </trkpt>
      <trkpt lat="48.35026" lon="6.82939">
        <ele>345.2</ele>
        <time>2024-04-01T00:02:21.189Z</time>
      </trkpt>
      <trkpt lat="48.35022" lon="6.82943">
        <ele>345.6</ele>
        <time>2024-04-01T00:02:26.789Z</time>
      </trkpt>
      <trkpt lat="48.35014" lon="6.82949">
        <ele>345.8</ele>
        <time>2024-04-01T00:02:32.392Z</time>
      </trkpt>
      <trkpt lat="48.35" lon="6.82955">
        <ele>346.4</ele>
        <time>2024-04-01T00:02:37.998Z</time>
      </trkpt>
      <trkpt lat="48.34996" lon="6.82956">
        <ele>346.6</ele>
        <time>2024-04-01T00:02:43.605Z</time>
      </trkpt>
      <trkpt lat="48.34991" lon="6.82955">
        <ele>346.6</ele>
        <time>2024-04-01T00:02:49.214Z</time>
      </trkpt>
      <trkpt lat="48.34978" lon="6.82952">
        <ele>347</ele>
        <time>2024-04-01T00:02:54.826Z</time>
      </trkpt>
      <trkpt lat="48.34965" lon="6.82948">
        <ele>347.8</ele>
        <time>2024-04-01T00:03:00.441Z</time>
      </trkpt>
      <trkpt lat="48.34942" lon="6.82935">
        <ele>348.8</ele>
        <time>2024-04-01T00:03:06.063Z</time>
      </trkpt>
      <trkpt lat="48.34933" lon="6.82929">
        <ele>349.8</ele>
        <time>2024-04-01T00:03:11.687Z</time>
      </trkpt>
      <trkpt lat="48.34929" lon="6.82926">
        <ele>350</ele>
        <time>2024-04-01T00:03:17.312Z</time>
      </trkpt>
      <trkpt lat="48.34916" lon="6.82914">
        <ele>351</ele>
        <time>2024-04-01T00:03:22.941Z</time>
      </trkpt>
      <trkpt lat="48.34904" lon="6.82903">
        <ele>351.8</ele>
        <time>2024-04-01T00:03:28.574Z</time>
      </trkpt>
      <trkpt lat="48.349" lon="6.829">
        <ele>352.2</ele>
        <time>2024-04-01T00:03:34.208Z</time>
      </trkpt>
      <trkpt lat="48.34886" lon="6.82894">
        <ele>353.2</ele>
        <time>2024-04-01T00:03:39.845Z</time>
      </trkpt>
      <trkpt lat="48.34881" lon="6.82893">
        <ele>353.4</ele>
        <time>2024-04-01T00:03:45.484Z</time>
      </trkpt>
      <trkpt lat="48.34861" lon="6.82889">
        <ele>354.6</ele>
        <time>2024-04-01T00:03:51.128Z</time>
      </trkpt>
      <trkpt lat="48.34846" lon="6.82888">
        <ele>355.8</ele>
        <time>2024-04-01T00:03:56.776Z</time>
      </trkpt>
      <trkpt lat="48.34842" lon="6.82887">
        <ele>356.2</ele>
        <time>2024-04-01T00:04:02.425Z</time>
      </trkpt>
      <trkpt lat="48.34832" lon="6.82886">
        <ele>357</ele>
        <time>2024-04-01T00:04:08.076Z</time>
      </trkpt>
      <trkpt lat="48.34813" lon="6.82883">
        <ele>358.4</ele>
        <time>2024-04-01T00:04:13.732Z</time>
      </trkpt>
      <trkpt lat="48.34804" lon="6.82881">
        <ele>359</ele>
        <time>2024-04-01T00:04:19.390Z</time>
      </trkpt>
      <trkpt lat="48.34798" lon="6.82881">
        <ele>359.2</ele>
        <time>2024-04-01T00:04:25.050Z</time>
      </trkpt>
      <trkpt lat="48.34793" lon="6.82881">
        <ele>359.4</ele>
        <time>2024-04-01T00:04:30.711Z</time>
      </trkpt>
      <trkpt lat="48.34774" lon="6.8288">
        <ele>360.4</ele>
        <time>2024-04-01T00:04:36.377Z</time>
      </trkpt>
      <trkpt lat="48.3476" lon="6.82878">
        <ele>361.2</ele>
        <time>2024-04-01T00:04:42.047Z</time>
      </trkpt>
      <trkpt lat="48.34735" lon="6.82874">
        <ele>361.6</ele>
        <time>2024-04-01T00:04:47.723Z</time>
      </trkpt>
      <trkpt lat="48.3472" lon="6.82868">
        <ele>361.6</ele>
        <time>2024-04-01T00:04:53.403Z</time>
      </trkpt>
      <trkpt lat="48.34675" lon="6.82853">
        <ele>361</ele>
        <time>2024-04-01T00:04:59.095Z</time>
      </trkpt>
      <trkpt lat="48.34627" lon="6.82844">
        <ele>360.4</ele>
        <time>2024-04-01T00:05:04.799Z</time>
      </trkpt>
      <trkpt lat="48.34603" lon="6.82837">
        <ele>360.2</ele>
        <time>2024-04-01T00:05:10.509Z</time>
      </trkpt>
      <trkpt lat="48.34587" lon="6.82828">
        <ele>360</ele>
        <time>2024-04-01T00:05:16.223Z</time>
      </trkpt>
      <trkpt lat="48.3458" lon="6.82815">
        <ele>360</ele>
        <time>2024-04-01T00:05:21.940Z</time>
      </trkpt>
      <trkpt lat="48.34578" lon="6.82807">
        <ele>359.8</ele>
        <time>2024-04-01T00:05:27.659Z</time>
      </trkpt>
      <trkpt lat="48.3456" lon="6.82774">
        <ele>359.8</ele>
        <time>2024-04-01T00:05:33.385Z</time>
      </trkpt>
      <trkpt lat="48.34558" lon="6.82766">
        <ele>359.8</ele>
        <time>2024-04-01T00:05:39.112Z</time>
      </trkpt>
      <trkpt lat="48.34557" lon="6.82758">
        <ele>360</ele>
        <time>2024-04-01T00:05:44.841Z</time>
      </trkpt>
      <trkpt lat="48.34553" lon="6.82733">
        <ele>360.4</ele>
        <time>2024-04-01T00:05:50.574Z</time>
      </trkpt>
      <trkpt lat="48.34539" lon="6.82659">
        <ele>361.4</ele>
        <time>2024-04-01T00:05:56.320Z</time>
      </trkpt>
      <trkpt lat="48.34531" lon="6.82624">
        <ele>361.8</ele>
        <time>2024-04-01T00:06:02.072Z</time>
      </trkpt>
      <trkpt lat="48.34529" lon="6.8262">
        <ele>362</ele>
        <time>2024-04-01T00:06:07.825Z</time>
      </trkpt>
    </trkseg>
  </trk>
</gpx>